[[{"header":{"parameterUnit":"m.s-1","parameterCategory":1,"la1":30.6,"la2":29.2853,"lo1":-89.7004,"lo2":-87.6739,"dy":0.0162,"dx":0.0183,"nx":112,"ny":82,"refTime":"2023-09-14T18:00:00:Z","depth":0,"parameterNumber":2,"parameterNumberName":"U-component_of_WINDS"},"data":[0.0,0.0,0.0,0.0,0.0,0.0,0.0,0.0,0.0,0.0,0.0,0.0,0.0,0.0,0.0,0.0,0.0,0.0,0.0,0.0,0.0,0.0,0.0,0.0,0.0,0.0,0.0,0.0,0.0,0.0,0.0,0.0,0.0,0.0,0.0,0.0,0.0,0.0,0.0,0.0,0.0,0.0,0.0,0.0,0.0,0.0,0.0,0.0,0.0,0.0,0.0,0.0,0.0,0.0,0.0,0.0,0.0,0.0,0.0,0.0,0.0,0.0,0.0,0.0,0.0,0.0,0.0,0.0,0.0,0.0,0.0,0.0,0.0,0.0,0.0,0.0,0.0,0.0,0.0,0.0,0.0,0.0,0.0,0.0,0.0,0.0,0.0,0.0,0.0,0.0,2.7714,2.8466,3.1091,3.2797,3.2797,3.2727,3.0516,2.5351,0.0,0.0,0.0,0.0,0.0,0.0,0.0,0.0,0.0,0.0,0.0,0.0,0.0,0.0,0.0,0.0,0.0,0.0,0.0,0.0,0.0,0.0,0.0,0.0,0.0,0.0,0.0,0.0,0.0,0.0,0.0,0.0,0.0,0.0,0.0,0.0,0.0,0.0,0.0,0.0,0.0,0.0,0.0,0.0,0.0,0.0,0.0,0.0,0.0,0.0,0.0,0.0,0.0,0.0,0.0,0.0,0.0,0.0,0.0,0.0,0.0,0.0,0.0,0.0,0.0,0.0,0.0,0.0,0.0,0.0,0.0,0.0,0.0,0.0,0.0,0.0,0.0,0.0,0.0,0.0,0.0,0.0,0.0,0.0,0.0,0.0,0.0,0.0,0.0,0.0,0.0,0.0,0.0,0.0,0.0,0.0,0.0,0.0,0.0,0.0,0.0,0.0,0.0,0.0,2.7328,3.1439,3.2926,3.3623,3.3623,3.3312,3.1337,2.7145,0.0,0.0,0.0,0.0,0.0,0.0,0.0,0.0,0.0,0.0,0.0,0.0,0.0,0.0,0.0,0.0,0.0,0.0,0.0,0.0,0.0,0.0,0.0,0.0,0.0,0.0,0.0,0.0,0.0,0.0,0.0,0.0,0.0,0.0,0.0,0.0,0.0,0.0,0.0,0.0,0.0,0.0,0.0,0.0,0.0,0.0,0.0,0.0,0.0,0.0,0.0,0.0,0.0,0.0,0.0,0.0,0.0,0.0,0.0,0.0,0.0,0.0,0.0,0.0,0.0,0.0,0.0,0.0,0.0,0.0,0.0,0.0,0.0,0.0,0.0,0.0,0.0,0.0,0.0,0.0,0.0,0.0,0.0,0.0,0.0,0.0,0.0,0.0,0.0,0.0,0.0,0.0,0.0,0.0,0.0,0.0,0.0,0.0,0.0,0.0,0.0,0.0,0.0,2.6502,2.9347,3.2871,3.3587,3.3707,3.3494,3.3302,3.1355,2.7041,2.5597,0.0,0.0,0.0,0.0,0.0,0.0,0.0,0.0,0.0,0.0,0.0,0.0,0.0,0.0,0.0,0.0,0.0,0.0,0.0,0.0,0.0,0.0,0.0,0.0,0.0,0.0,0.0,0.0,0.0,0.0,0.0,0.0,0.0,0.0,0.0,0.0,0.0,0.0,0.0,0.0,0.0,0.0,0.0,0.0,0.0,0.0,0.0,0.0,0.0,0.0,0.0,0.0,0.0,0.0,0.0,0.0,0.0,0.0,0.0,0.0,0.0,0.0,0.0,0.0,0.0,0.0,0.0,0.0,0.0,0.0,0.0,0.0,0.0,0.0,0.0,0.0,0.0,0.0,0.0,0.0,0.0,0.0,0.0,0.0,0.0,0.0,0.0,0.0,0.0,0.0,0.0,0.0,0.0,0.0,0.0,0.0,0.0,0.0,0.0,0.0,0.0,0.0,2.9163,3.1623,3.3862,3.3917,3.3725,3.3515,3.2979,3.0915,2.6824,2.5523,0.0,0.0,0.0,0.0,0.0,0.0,0.0,0.0,0.0,0.0,0.0,0.0,0.0,0.0,0.0,0.0,0.0,0.0,0.0,0.0,0.0,0.0,0.0,0.0,0.0,0.0,0.0,0.0,0.0,0.0,0.0,0.0,0.0,0.0,0.0,0.0,0.0,0.0,0.0,0.0,0.0,0.0,0.0,0.0,0.0,0.0,0.0,0.0,0.0,0.0,0.0,0.0,0.0,0.0,0.0,0.0,0.0,0.0,0.0,0.0,0.0,0.0,0.0,0.0,0.0,0.0,0.0,0.0,0.0,0.0,0.0,0.0,0.0,0.0,0.0,0.0,0.0,0.0,0.0,0.0,0.0,0.0,0.0,0.0,0.0,0.0,0.0,0.0,0.0,0.0,0.0,0.0,0.0,0.0,0.0,0.0,0.0,0.0,0.0,0.0,0.0,0.0,3.0485,3.3065,3.4734,3.4266,3.3945,3.431,3.2303,2.9994,2.7474,2.5331,0.0,0.0,0.0,0.0,0.0,0.0,0.0,0.0,0.0,0.0,0.0,0.0,0.0,0.0,0.0,0.0,0.0,0.0,0.0,0.0,0.0,0.0,0.0,0.0,0.0,0.0,0.0,0.0,0.0,0.0,0.0,0.0,0.0,0.0,0.0,0.0,0.0,0.0,0.0,0.0,0.0,0.0,0.0,0.0,0.0,0.0,0.0,0.0,0.0,0.0,0.0,0.0,0.0,0.0,0.0,0.0,0.0,0.0,0.0,0.0,0.0,0.0,0.0,0.0,0.0,0.0,0.0,0.0,0.0,0.0,0.0,0.0,0.0,0.0,0.0,0.0,0.0,0.0,0.0,0.0,0.0,0.0,0.0,0.0,0.0,0.0,0.0,0.0,0.0,0.0,0.0,0.0,0.0,0.0,0.0,0.0,0.0,0.0,0.0,0.0,0.0,0.0,3.0613,3.3238,0.0,3.522,3.5096,3.4455,3.3324,3.116,2.7631,0.0,0.0,0.0,0.0,0.0,0.0,0.0,0.0,0.0,0.0,0.0,0.0,0.0,0.0,0.0,0.0,0.0,0.0,0.0,0.0,0.0,0.0,0.0,0.0,0.0,0.0,0.0,0.0,0.0,0.0,0.0,0.0,0.0,0.0,0.0,0.0,0.0,0.0,0.0,0.0,0.0,0.0,0.0,0.0,0.0,0.0,0.0,0.0,0.0,0.0,0.0,0.0,0.0,0.0,0.0,0.0,0.0,0.0,0.0,0.0,0.0,0.0,0.0,0.0,0.0,0.0,0.0,0.0,0.0,0.0,0.0,0.0,0.0,0.0,0.0,0.0,0.0,0.0,0.0,0.0,0.0,0.0,0.0,0.0,0.0,0.0,0.0,0.0,0.0,0.0,0.0,0.0,0.0,0.0,0.0,0.0,0.0,0.0,0.0,0.0,0.0,0.0,2.7934,3.1219,3.3872,0.0,3.5936,3.5914,3.5004,3.3743,3.1417,2.7762,0.0,0.0,0.0,0.0,0.0,0.0,0.0,0.0,0.0,0.0,0.0,0.0,0.0,0.0,0.0,0.0,0.0,0.0,0.0,0.0,0.0,0.0,0.0,0.0,0.0,0.0,0.0,0.0,0.0,0.0,0.0,0.0,0.0,0.0,0.0,0.0,0.0,0.0,0.0,0.0,0.0,0.0,0.0,0.0,0.0,0.0,0.0,0.0,0.0,0.0,0.0,0.0,0.0,0.0,0.0,0.0,0.0,0.0,0.0,0.0,0.0,0.0,0.0,0.0,0.0,0.0,0.0,0.0,0.0,0.0,0.0,0.0,0.0,0.0,0.0,0.0,0.0,0.0,0.0,0.0,0.0,0.0,0.0,0.0,0.0,0.0,0.0,0.0,0.0,0.0,0.0,0.0,0.0,0.0,0.0,0.0,0.0,0.0,0.0,0.0,0.0,0.0,2.8902,3.2515,3.5367,3.6211,3.6321,3.623,3.6025,3.3273,3.0457,0.0,0.0,0.0,0.0,0.0,0.0,0.0,0.0,0.0,0.0,0.0,0.0,0.0,0.0,0.0,0.0,0.0,0.0,0.0,0.0,0.0,0.0,0.0,0.0,0.0,0.0,0.0,0.0,0.0,0.0,0.0,0.0,0.0,0.0,0.0,0.0,0.0,0.0,0.0,0.0,0.0,0.0,0.0,0.0,0.0,0.0,0.0,0.0,0.0,0.0,0.0,0.0,0.0,0.0,0.0,0.0,0.0,0.0,0.0,0.0,0.0,0.0,0.0,0.0,0.0,0.0,0.0,0.0,0.0,0.0,0.0,0.0,0.0,0.0,0.0,0.0,0.0,0.0,0.0,0.0,0.0,0.0,0.0,0.0,0.0,0.0,0.0,0.0,0.0,0.0,0.0,0.0,0.0,0.0,0.0,0.0,0.0,0.0,0.0,0.0,0.0,0.0,0.0,2.9677,3.3403,3.6229,3.7055,3.7643,3.7593,3.657,3.5383,3.3072,2.9299,0.0,0.0,0.0,0.0,0.0,0.0,0.0,0.0,0.0,0.0,0.0,0.0,0.0,0.0,0.0,0.0,0.0,0.0,0.0,0.0,0.0,0.0,0.0,0.0,0.0,0.0,0.0,0.0,0.0,0.0,0.0,0.0,0.0,0.0,0.0,0.0,0.0,0.0,0.0,0.0,0.0,0.0,0.0,0.0,0.0,0.0,0.0,0.0,0.0,0.0,0.0,0.0,0.0,0.0,0.0,0.0,0.0,0.0,0.0,0.0,0.0,0.0,0.0,0.0,0.0,0.0,0.0,0.0,0.0,0.0,0.0,0.0,0.0,0.0,0.0,0.0,0.0,0.0,0.0,0.0,0.0,0.0,0.0,0.0,0.0,0.0,0.0,0.0,0.0,0.0,0.0,0.0,0.0,0.0,0.0,0.0,0.0,0.0,0.0,0.0,0.0,0.0,3.0081,3.4045,3.6945,3.747,3.8212,3.82,3.7004,3.6346,3.4461,3.09,0.0,0.0,0.0,0.0,0.0,0.0,0.0,0.0,0.0,0.0,0.0,0.0,0.0,0.0,0.0,0.0,0.0,0.0,0.0,0.0,0.0,0.0,0.0,0.0,0.0,0.0,0.0,0.0,0.0,0.0,0.0,0.0,0.0,0.0,0.0,0.0,0.0,0.0,0.0,0.0,0.0,0.0,0.0,0.0,0.0,0.0,0.0,0.0,0.0,0.0,0.0,0.0,0.0,0.0,0.0,0.0,0.0,0.0,0.0,0.0,0.0,0.0,0.0,0.0,0.0,0.0,0.0,0.0,0.0,0.0,0.0,0.0,0.0,0.0,0.0,0.0,0.0,0.0,0.0,0.0,0.0,0.0,0.0,0.0,0.0,0.0,0.0,0.0,0.0,0.0,0.0,0.0,0.0,0.0,0.0,0.0,0.0,0.0,0.0,0.0,0.0,0.0,3.0411,3.4559,3.7544,3.7588,3.8218,3.8252,3.7303,3.65,3.4976,3.2557,0.0,0.0,0.0,0.0,0.0,0.0,0.0,0.0,0.0,0.0,0.0,0.0,0.0,0.0,0.0,0.0,0.0,0.0,0.0,0.0,0.0,0.0,0.0,0.0,0.0,0.0,0.0,0.0,0.0,0.0,0.0,0.0,0.0,0.0,0.0,0.0,0.0,0.0,0.0,0.0,0.0,0.0,0.0,0.0,0.0,0.0,0.0,0.0,0.0,0.0,0.0,0.0,0.0,0.0,0.0,0.0,0.0,0.0,0.0,0.0,2.5511,0.0,0.0,0.0,0.0,0.0,0.0,0.0,0.0,0.0,0.0,0.0,0.0,0.0,0.0,0.0,0.0,0.0,0.0,0.0,0.0,0.0,0.0,0.0,0.0,0.0,0.0,0.0,0.0,0.0,0.0,0.0,0.0,0.0,0.0,0.0,0.0,0.0,0.0,0.0,0.0,0.0,3.2008,3.5257,3.7734,3.8377,3.8241,3.7843,3.7248,3.6646,3.5393,3.3296,3.2171,0.0,0.0,0.0,0.0,0.0,0.0,0.0,0.0,0.0,0.0,0.0,0.0,0.0,0.0,0.0,0.0,0.0,0.0,0.0,0.0,0.0,0.0,0.0,0.0,0.0,0.0,0.0,0.0,0.0,0.0,0.0,0.0,0.0,0.0,0.0,0.0,0.0,0.0,0.0,0.0,0.0,0.0,0.0,0.0,0.0,0.0,0.0,0.0,0.0,0.0,0.0,0.0,0.0,0.0,0.0,0.0,0.0,0.0,0.0,0.0,2.6943,0.0,0.0,0.0,0.0,0.0,0.0,0.0,0.0,0.0,0.0,0.0,0.0,0.0,0.0,0.0,0.0,0.0,0.0,0.0,0.0,0.0,0.0,0.0,0.0,0.0,0.0,0.0,0.0,0.0,0.0,0.0,0.0,0.0,0.0,0.0,0.0,0.0,0.0,0.0,0.0,3.3605,3.6285,3.8377,3.9184,3.8779,3.8403,3.8291,3.7434,3.6388,3.5108,3.3643,0.0,0.0,0.0,0.0,0.0,0.0,0.0,0.0,0.0,0.0,0.0,0.0,0.0,0.0,0.0,0.0,0.0,0.0,0.0,0.0,0.0,0.0,0.0,0.0,0.0,0.0,0.0,0.0,0.0,0.0,0.0,0.0,0.0,0.0,0.0,0.0,0.0,0.0,0.0,0.0,0.0,0.0,0.0,0.0,0.0,0.0,0.0,0.0,0.0,0.0,0.0,0.0,0.0,3.1311,3.1751,3.1916,3.2577,3.2944,3.2999,3.1403,3.1127,3.1549,0.0,0.0,0.0,0.0,0.0,0.0,0.0,0.0,0.0,0.0,0.0,0.0,0.0,0.0,0.0,0.0,0.0,0.0,0.0,0.0,0.0,0.0,0.0,0.0,0.0,3.4174,3.377,0.0,0.0,0.0,0.0,0.0,0.0,0.0,0.0,0.0,0.0,0.0,0.0,3.5247,3.7606,3.9368,4.0029,3.9563,3.9318,3.9478,3.8419,3.7489,3.7005,3.5233,3.3846,0.0,0.0,0.0,0.0,0.0,0.0,0.0,0.0,0.0,0.0,0.0,0.0,0.0,0.0,0.0,0.0,0.0,0.0,0.0,0.0,0.0,0.0,0.0,0.0,0.0,0.0,0.0,0.0,0.0,0.0,0.0,0.0,2.2409,2.4006,0.0,0.0,0.0,0.0,0.0,0.0,0.0,0.0,0.0,0.0,0.0,0.0,0.0,3.0228,3.1953,3.334,3.4835,3.6376,3.7202,3.7955,3.8615,3.8726,3.9166,3.9735,3.812,0.0,3.344,3.2908,0.0,0.0,0.0,0.0,0.0,0.0,0.0,0.0,0.0,0.0,0.0,0.0,0.0,0.0,0.0,0.0,0.0,0.0,0.0,0.0,0.0,0.0,3.6762,3.7679,3.7991,3.8102,0.0,3.4412,3.0925,3.0925,3.0925,0.0,0.0,0.0,0.0,0.0,0.0,0.0,3.7129,3.9294,4.0836,4.0946,4.0433,3.9965,3.9532,3.8891,3.8326,3.7801,3.7483,3.6975,3.6214,3.4912,0.0,0.0,0.0,0.0,0.0,0.0,0.0,0.0,0.0,0.0,0.0,0.0,0.0,0.0,0.0,0.0,0.0,0.0,0.0,0.0,0.0,0.0,0.0,0.0,0.0,0.0,0.0,0.0,0.0,2.2776,2.4575,2.6649,2.6098,2.5419,0.0,0.0,0.0,0.0,0.0,0.0,0.0,0.0,0.0,3.2294,3.3201,3.4614,3.6688,3.7404,3.8358,3.9533,3.9882,4.023,4.0579,4.0579,4.0781,4.1075,4.0359,3.9239,3.7808,3.6431,3.5862,3.5679,0.0,0.0,0.0,0.0,3.1715,3.1806,3.2504,3.3825,0.0,0.0,0.0,0.0,0.0,0.0,0.0,0.0,0.0,0.0,0.0,0.0,0.0,3.9753,4.0065,4.0157,4.0506,3.8615,3.6578,0.0,3.5495,3.5,3.3385,0.0,0.0,0.0,0.0,3.8487,3.9405,4.0451,4.1277,4.1735,4.0998,4.0566,4.0748,3.9596,3.8781,3.8514,3.8142,3.777,3.7432,3.6772,3.5504,0.0,0.0,0.0,0.0,0.0,0.0,0.0,0.0,0.0,0.0,0.0,0.0,0.0,0.0,0.0,0.0,0.0,0.0,0.0,0.0,0.0,0.0,0.0,0.0,0.0,0.0,0.0,0.0,2.4685,2.6594,2.9035,2.8613,2.8154,0.0,0.0,0.0,0.0,0.0,0.0,3.1754,3.2411,3.3834,3.6243,3.6967,3.8217,4.0194,4.013,4.0445,4.1168,4.1588,4.1841,4.1841,4.2164,4.2341,4.2341,4.2341,4.2341,4.2139,3.9496,3.8414,3.8303,3.7312,3.6156,3.5055,3.5055,3.5055,3.511,3.5532,3.6486,3.7533,3.7533,0.0,3.7441,3.7037,0.0,0.0,0.0,0.0,3.6285,3.7734,3.8854,3.9974,4.1387,4.1717,4.1717,4.1717,4.1717,4.124,0.0,3.9313,3.8799,3.7184,0.0,0.0,0.0,0.0,4.0047,4.1258,4.1589,4.187,4.2353,4.162,4.1274,4.1542,4.0296,3.9438,3.9259,3.8768,3.8379,3.8193,3.8176,3.7297,3.5402,0.0,0.0,0.0,0.0,0.0,0.0,0.0,0.0,0.0,0.0,0.0,0.0,0.0,0.0,0.0,0.0,0.0,0.0,0.0,0.0,0.0,0.0,0.0,0.0,0.0,0.0,0.0,0.0,0.0,2.9861,3.1421,0.0,0.0,0.0,0.0,3.2247,3.1872,3.3027,3.6098,3.6314,3.7428,3.9842,4.0005,4.0345,4.1024,4.0697,4.0838,4.1376,4.2985,4.3764,4.38,4.5095,4.5663,4.5663,4.5663,4.5663,4.5406,4.2231,4.0928,4.0763,3.9203,3.8542,3.845,3.845,3.845,3.867,4.0212,4.0799,4.0873,4.0873,4.0873,4.0579,3.9038,3.8524,0.0,0.0,3.7294,3.8707,3.9551,4.0928,4.2323,4.3167,4.3369,4.3369,4.3369,4.3369,4.2892,0.0,4.0983,4.0487,3.8872,0.0,4.0377,3.8927,4.0653,4.2158,4.2231,4.291,4.3194,4.2716,4.2639,4.2167,4.1041,4.0868,4.0603,4.007,3.9986,3.9665,3.8971,3.8937,3.8565,3.7753,3.6299,0.0,0.0,0.0,0.0,0.0,0.0,0.0,0.0,0.0,0.0,0.0,0.0,0.0,0.0,0.0,0.0,0.0,0.0,0.0,0.0,0.0,0.0,0.0,0.0,0.0,0.0,0.0,0.0,3.2863,3.378,0.0,3.4383,3.4878,3.5168,3.5168,3.645,3.77,3.8869,3.941,3.991,4.0442,4.1833,4.249,4.2257,4.3439,4.37,4.3088,4.4114,4.4384,4.3985,4.4467,4.4921,4.5337,4.5337,4.5548,4.581,4.4654,4.4195,4.4085,4.3002,4.2561,4.2506,4.1974,4.1791,4.1864,4.2451,4.2635,4.2635,4.2635,4.2635,4.2543,4.1956,4.1791,4.1662,4.1075,4.135,4.1864,4.2139,4.2635,4.313,4.3424,4.3497,4.3497,4.3497,4.3497,4.3314,4.2763,4.2635,4.2451,4.1882,4.2249,4.2451,4.1882,4.2506,4.3057,4.3057,4.3032,4.2902,4.2711,4.1997,4.1358,4.0949,4.0577,4.0286,4.0121,4.007,3.9969,3.9698,3.9698,3.9343,3.8616,3.8075,3.6468,0.0,0.0,0.0,0.0,0.0,0.0,0.0,0.0,0.0,0.0,0.0,0.0,0.0,0.0,0.0,0.0,0.0,0.0,0.0,0.0,0.0,0.0,0.0,0.0,0.0,0.0,3.2151,3.5192,3.603,3.6544,3.6978,3.7362,3.7739,3.8186,3.9328,4.0295,4.0829,4.1345,4.1587,4.1481,4.2881,4.3543,4.3289,4.4196,4.4377,4.3717,4.4485,4.468,4.4456,4.4902,4.5645,4.6553,4.6553,4.6934,4.7553,4.7553,4.7388,4.7003,4.5645,4.5112,4.5039,4.4507,4.4305,4.4305,4.4305,4.4305,4.4305,4.4305,4.4305,4.4305,4.4305,4.4305,4.4305,4.4305,4.4305,4.4305,4.4305,4.4305,4.4305,4.4305,4.4305,4.4305,4.4305,4.4305,4.4305,4.4305,4.3864,4.3314,4.2782,4.269,4.2506,4.1956,4.1882,4.1882,4.1882,4.2047,4.2012,4.1651,4.1364,4.1041,4.0655,3.9827,3.9546,4.0054,3.9614,3.9563,4.0054,3.9597,3.9123,3.8633,3.7872,3.6502,3.4539,0.0,0.0,0.0,0.0,0.0,0.0,0.0,0.0,0.0,0.0,0.0,0.0,0.0,0.0,0.0,0.0,0.0,0.0,0.0,0.0,0.0,0.0,0.0,3.2399,3.4028,3.5447,3.6584,3.8096,3.9374,4.0129,3.9761,4.002,4.1317,4.0418,4.0464,4.2033,4.212,4.2448,4.3175,4.321,4.3502,4.3966,4.2944,4.2705,4.3264,4.4091,4.475,4.5386,4.6775,4.8182,4.953,4.953,5.001,5.0762,5.0762,5.0325,4.937,4.6929,4.5957,4.592,4.5902,4.5902,4.5902,4.5902,4.5902,4.5902,4.5902,4.5902,4.5902,4.5902,4.5902,4.5902,4.5902,4.5902,4.5902,4.5902,4.5902,4.5902,4.5902,4.5902,4.5902,4.5902,4.5902,4.5902,4.5902,4.4635,4.3057,4.1497,4.1222,4.0689,3.9093,3.8854,0.0,3.8854,4.018,4.0688,3.9532,4.0789,4.1268,4.0153,3.8751,3.8582,3.9986,3.8751,3.8616,4.002,3.8717,3.7973,3.7973,3.5757,3.5334,3.6806,0.0,0.0,0.0,0.0,0.0,0.0,0.0,0.0,0.0,0.0,0.0,0.0,0.0,0.0,0.0,0.0,0.0,0.0,0.0,0.0,0.0,0.0,3.4195,3.4573,3.5193,3.6559,3.9185,3.9878,4.0306,4.0666,4.1073,4.1527,4.1901,4.2119,4.2431,4.2864,4.2898,4.2804,4.2568,4.3528,4.3905,4.3579,4.4709,4.5199,4.5018,4.5681,4.6149,4.6409,4.6763,4.7404,4.8199,4.8199,4.8913,5.0007,5.0007,5.0192,5.0288,4.8379,4.7278,4.6709,4.6122,4.5902,4.5902,4.5902,4.5902,4.5902,4.5902,4.5902,4.5902,4.5902,4.5902,4.5902,4.5902,4.5902,4.5902,4.5902,4.5902,4.5902,4.5902,4.5902,4.5902,4.5902,4.5902,4.5902,4.5902,4.5535,4.4911,4.3901,4.3718,4.3369,4.2323,4.2176,0.0,4.2176,4.1867,4.1074,3.9696,4.0172,3.999,3.8631,3.9106,3.9648,4.0054,3.9698,3.9665,4.0054,3.9698,3.9478,3.9478,3.7838,3.7178,0.0,0.0,0.0,0.0,0.0,0.0,0.0,0.0,0.0,0.0,0.0,0.0,0.0,0.0,0.0,0.0,0.0,0.0,0.0,0.0,0.0,0.0,3.4951,3.6601,3.715,3.7553,3.8649,4.0981,4.1218,4.138,4.1804,4.2031,4.2274,4.2552,4.272,4.2963,4.3271,4.3289,4.3304,4.3234,4.4363,4.4756,4.4384,4.5836,4.6439,4.616,4.6532,4.685,4.7182,4.7182,4.7713,0.0,4.8609,4.9422,5.0695,5.0695,5.0955,0.0,0.0,0.0,0.0,0.0,4.7443,4.7388,4.704,4.6911,4.6911,4.6911,4.6911,4.6911,4.6911,4.6911,4.6911,4.6911,4.6911,4.6911,4.6911,4.6911,4.6911,4.6911,4.6911,4.6911,4.6911,4.6911,4.6911,4.6911,4.6911,0.0,4.5847,4.4874,4.3809,4.2671,4.2488,4.2402,4.2103,4.2109,4.1476,3.9761,4.04,4.0353,3.8969,3.9039,0.0,0.0,0.0,3.9174,3.9174,3.9174,0.0,0.0,0.0,3.7263,3.7905,0.0,0.0,0.0,3.5115,3.4438,0.0,0.0,0.0,0.0,0.0,0.0,0.0,0.0,0.0,0.0,0.0,0.0,0.0,0.0,0.0,0.0,3.5904,3.8219,3.9652,4.0393,4.1068,4.1881,4.2058,4.2386,4.3042,4.2705,4.2652,4.3182,4.279,4.2878,4.3639,0.0,0.0,0.0,0.0,4.5821,4.5821,4.6464,4.6836,4.6921,4.6921,4.7254,4.7876,4.7876,4.8551,4.9819,4.9819,5.0619,5.1856,5.1856,5.1919,5.193,5.111,5.0802,5.071,4.9994,4.9719,4.9609,4.8857,0.0,0.0,4.8581,4.8581,4.8563,4.8471,4.8453,4.8434,4.8343,4.8306,4.8306,4.8306,4.8306,4.8306,4.8306,4.8306,4.8306,4.8306,4.8306,4.8306,4.8306,4.8306,4.8086,4.737,4.5388,4.3387,4.1882,4.1644,4.1405,4.0762,4.189,4.2009,3.9956,0.0,0.0,4.0189,3.8971,3.8836,4.0121,3.892,3.8159,3.8159,3.8159,3.7516,3.6146,3.6129,3.6789,3.8159,3.8159,3.8819,4.002,3.7347,3.6857,0.0,0.0,0.0,0.0,0.0,0.0,0.0,0.0,0.0,0.0,0.0,0.0,0.0,0.0,0.0,3.6396,3.8709,4.0578,4.0866,4.1495,4.1801,4.1427,4.192,4.2328,4.2464,4.2898,4.3254,4.3345,4.383,4.4468,4.5229,4.5263,4.5602,4.6346,4.6498,4.6583,4.6583,4.6718,4.7107,4.7699,0.0,0.0,4.8727,4.8727,4.8916,4.9155,4.9155,4.966,5.0497,5.0407,5.1083,5.2019,5.1151,5.0802,5.0784,5.0637,5.0563,5.0545,5.038,5.0325,5.0325,5.0325,5.0325,5.0196,4.9536,4.9334,0.0,4.8508,4.8306,4.8306,4.8306,4.8306,4.8306,4.8306,4.8306,4.8306,4.8306,4.8306,4.8306,4.8306,4.8306,4.8251,4.8104,4.715,4.6085,4.5131,4.4966,4.4748,4.414,4.3924,4.2988,4.088,4.1627,4.1681,4.0239,4.0375,4.0679,4.0967,4.0155,3.9648,3.9648,3.9648,3.9512,3.9225,3.9225,3.936,3.9648,3.9648,3.98,4.007,3.9478,3.9377,0.0,0.0,0.0,0.0,0.0,0.0,0.0,0.0,0.0,0.0,0.0,3.3076,0.0,0.0,3.7102,3.7984,3.9881,4.1339,4.1694,4.2388,4.2726,4.2354,4.2642,4.3014,4.3403,4.3775,4.4147,4.4536,4.4925,4.5466,4.621,4.6244,4.6413,4.6786,4.7158,4.7361,4.7361,4.7716,4.8088,4.846,4.846,4.8646,4.9001,4.9001,4.9001,4.9001,4.9001,4.9376,5.0067,5.0407,5.0964,5.1571,5.1124,5.1391,5.1958,5.1555,5.1389,5.1334,5.0949,5.0802,5.0802,5.0802,5.0802,5.0729,5.0306,5.0196,5.0105,4.9682,4.9554,4.9554,4.9554,4.9554,4.9554,4.9554,4.9554,4.9554,4.9554,4.9554,4.9554,4.9554,4.9554,4.9554,4.9554,4.8601,4.7682,4.7186,4.683,4.6418,4.5774,4.5187,4.4098,4.2346,4.2583,4.2405,4.1288,4.1542,4.1745,4.1745,4.139,4.1018,4.0663,4.0646,4.046,4.0087,4.007,4.007,4.007,4.007,4.007,4.0087,4.046,4.0443,0.0,0.0,0.0,0.0,0.0,0.0,0.0,0.0,3.4142,3.4155,3.4514,3.5043,3.5701,3.6924,3.8244,3.9445,4.0764,4.1847,4.2422,4.3166,4.3639,4.3639,4.3639,4.3893,4.4519,4.4705,4.5043,4.5669,4.5838,4.6244,4.6972,4.7005,4.7073,4.7208,4.7817,4.8122,4.8122,4.8714,4.9001,4.9001,4.9001,4.9001,4.9001,4.9001,4.9001,4.9001,4.9001,4.9316,4.9879,5.0572,5.0876,5.0876,5.1034,5.1777,5.2714,5.204,5.1907,5.1919,5.1279,5.1161,5.1279,5.1279,5.1279,5.1242,5.1077,5.1041,5.1004,5.0839,5.0802,5.0802,5.0802,5.0802,5.0802,5.0802,5.0802,5.0802,5.0802,5.0802,5.0802,5.0802,5.0802,5.0743,5.0602,4.9585,4.8731,4.8382,4.7705,4.6955,4.6288,4.5783,4.5026,4.3762,4.3639,4.3335,4.2574,4.2506,4.2439,4.2303,4.2286,4.2016,4.1441,4.1407,4.1119,4.0527,4.051,4.051,4.051,4.051,4.051,4.0527,4.1274,4.1189,2.8407,2.9043,3.002,2.95,3.1298,3.3713,0.0,0.0,3.6648,3.8545,3.9537,4.0143,4.0408,4.1119,4.1728,4.1897,4.2625,4.32,4.3284,4.3961,4.4451,4.4451,4.4451,4.4485,4.457,4.5179,4.5618,4.5703,4.6312,4.7005,4.775,4.78,4.8088,4.8731,4.8832,4.8883,4.8883,4.8968,4.9001,4.9001,4.9001,4.9001,4.9001,4.9001,4.9001,4.9001,4.9001,4.9063,4.9152,4.9821,5.0129,5.0185,5.0823,5.1207,5.1343,5.1254,5.1585,5.208,5.1989,5.2389,5.2949,5.2949,5.2949,5.2803,5.2087,5.1867,5.172,5.1004,5.0802,5.0802,5.0802,5.0802,5.0802,5.0802,5.0802,5.0802,5.0802,5.0802,5.0802,5.0802,5.0802,5.0584,4.9963,4.9676,4.9352,4.8663,4.7402,4.6288,4.5681,4.5545,4.5233,4.4546,4.4451,4.413,4.3352,4.3301,4.3014,4.2337,4.2286,4.2252,4.2168,4.2168,4.2134,4.2049,4.2033,4.2033,4.2033,4.2033,4.2033,4.2049,4.2755,4.2673,3.1769,3.2125,0.0,0.0,3.572,3.6573,3.7728,3.8903,3.9882,4.0466,4.117,4.175,4.1814,4.2083,4.2439,0.0,4.3217,4.3572,4.4028,4.4367,4.4587,4.4587,4.4976,4.5229,4.5229,4.5517,4.6075,4.6938,4.7276,4.7767,4.8511,4.8545,4.8697,4.8984,4.9001,4.9001,4.9001,4.9001,4.9001,4.9001,4.9001,4.9001,4.9001,4.9001,4.9001,4.9001,4.9001,4.9001,4.9001,4.9316,4.9419,4.9479,4.9739,4.9896,4.9993,5.0787,5.1292,5.1494,5.1494,5.171,5.1988,5.1988,5.1988,5.1934,5.1592,5.1736,5.1972,5.1645,5.1889,5.2215,5.2215,5.2215,5.2215,5.2215,5.2215,5.2215,5.2215,5.1871,5.1554,5.1554,5.1248,5.0904,5.0579,4.9824,4.9113,4.8847,4.7838,4.6882,4.6204,4.5831,4.5346,4.4677,4.4587,4.4451,4.413,4.4096,4.3961,4.3639,4.3623,4.342,4.2963,4.2946,4.2743,4.2303,4.2286,4.2286,4.2286,4.2286,4.2286,4.2356,4.3441,4.3938,3.3953,0.0,0.0,3.8425,3.9276,3.946,4.0004,4.1199,4.202,4.1595,4.2083,4.2591,4.2591,4.2777,4.3098,4.3639,4.3741,4.3927,4.4502,4.4756,4.4891,4.4891,4.5551,4.6092,4.6295,4.6312,4.6769,4.7834,4.8105,4.8443,4.8968,4.9001,4.9001,4.9001,4.9001,4.9001,4.9001,4.9001,4.9001,4.9001,4.9001,4.9001,4.9001,4.9001,4.9001,4.9001,4.9001,4.9001,4.9001,4.9001,4.9001,4.9001,4.9001,4.9001,4.9107,5.0146,5.0626,5.0823,5.0823,5.0929,5.1086,5.1086,5.1086,5.1086,5.1086,5.1444,5.1808,5.1808,5.2335,5.2893,5.2893,5.3042,5.3206,5.3206,5.3042,5.2893,5.2893,5.2335,5.1808,5.1808,5.1444,5.1034,5.0823,4.9936,4.9145,4.8953,4.8432,4.7743,4.678,4.6283,4.572,4.4976,4.4891,4.4807,4.4604,4.4587,4.4587,4.4587,4.4587,4.4333,4.3775,4.3741,4.3487,4.2929,4.2912,4.2912,4.2912,4.2912,4.2912,4.2983,4.4318,4.5075,3.3769,0.0,3.6385,3.8276,4.0377,4.2202,4.2916,4.2655,4.2306,4.2252,4.2861,4.3386,4.3386,4.3995,4.4519,4.4536,4.4536,4.4553,4.4587,4.5213,4.5669,4.5669,4.6312,4.7056,0.0,4.7851,4.7868,4.7919,4.8578,4.8984,4.9001,4.9001,4.9001,4.9001,4.9001,4.9001,4.9001,4.9001,4.9001,4.9001,4.9001,4.9001,4.9001,4.9001,4.9001,4.9001,4.9001,4.9001,4.9001,4.9001,4.9001,4.9001,4.9001,4.9001,4.9001,4.9063,4.9462,5.0016,5.0016,5.05,5.1086,5.1086,5.1086,5.1086,5.1086,5.1086,5.1138,5.1138,5.1593,5.2112,5.2112,5.2662,5.3206,5.3206,5.2662,5.2112,5.2112,5.1611,5.1138,5.1138,5.1086,5.0876,5.0129,5.0016,4.9729,4.9073,4.8951,4.847,4.6997,4.6752,4.6481,4.5754,4.5669,4.5382,4.4637,4.4587,4.4587,4.4587,4.4587,4.457,4.4536,4.4536,4.4536,4.4502,4.4502,4.4502,4.4502,4.4502,4.4502,4.4558,4.578,4.6028,3.6024,3.7223,3.8442,4.0476,4.1604,4.2278,4.2569,4.2819,4.3031,4.3031,4.2844,4.2675,4.2675,4.21,4.1931,4.2895,4.3064,4.342,4.4434,4.5229,4.5703,4.5703,4.6786,0.0,0.0,0.0,0.0,4.8595,4.8866,4.9001,4.9001,4.9001,4.9001,4.9001,4.9001,4.9001,4.9001,4.9001,4.9001,4.9001,4.9001,4.9255,4.9729,4.9729,4.9729,4.9729,4.9729,4.9458,4.9001,4.9001,4.9001,4.9001,4.9001,4.9001,4.9001,4.9001,4.9152,4.9376,4.9376,4.9521,4.9681,4.9681,4.9681,4.9681,4.9681,5.005,5.0352,5.0352,5.0876,5.1544,5.2,5.197,5.194,5.2335,5.1922,5.1444,5.1444,5.0858,5.0352,5.0352,4.9993,4.9639,4.9359,4.9376,4.9256,4.9063,4.8595,4.8105,4.7597,4.7107,4.6701,4.6447,4.643,4.6329,4.6075,4.5602,4.5331,4.5331,4.4857,4.4587,4.4587,4.4587,4.4759,4.5178,4.5178,4.5407,4.5783,4.5783,4.5783,4.5815,4.6682,4.6955,3.7489,3.8542,3.9561,4.197,4.2636,4.2777,4.3047,4.3487,4.3673,4.3132,4.2625,4.2134,4.161,4.0747,4.0595,4.2049,4.2286,4.2828,4.4367,4.5449,4.6092,4.6092,4.7411,4.8308,0.0,0.0,0.0,4.8968,4.9001,4.9001,4.9001,4.9001,4.9001,4.9001,4.9001,4.9001,4.9001,4.9001,4.9001,4.9001,4.9272,4.9644,5.0101,5.0371,5.0338,5.0084,5.0084,4.9678,4.9001,4.9001,4.9001,4.9001,4.9001,4.9001,4.9001,4.9001,4.9001,4.9001,4.9001,4.9001,4.9001,4.9001,4.9001,4.9001,4.9001,4.9316,4.9622,4.9622,5.0146,5.0876,5.1544,5.1444,5.1292,5.1952,5.1393,5.0716,5.0716,5.0146,4.9622,4.9622,4.9316,4.9001,4.9001,4.9001,4.9001,4.9001,4.8612,4.8308,4.8308,4.7885,4.7479,4.7225,4.7192,4.709,4.6802,4.6363,4.6092,4.6092,4.5635,4.5246,4.4993,4.4976,4.5124,4.5511,4.5511,4.5783,4.6383,4.6383,4.6572,4.6855,4.7537,4.7875,3.8108,3.9157,3.9901,4.2709,4.3453,4.3673,4.4418,4.4485,4.3995,4.254,4.2083,4.1525,0.0,0.0,4.0426,4.188,4.2219,4.2828,4.4367,4.5855,4.6786,0.0,0.0,0.0,0.0,0.0,0.0,4.9001,0.0,4.9001,4.9001,4.9001,4.9001,4.9001,4.9001,4.9001,4.9001,4.9001,4.9001,4.9018,4.9712,5.005,5.0118,5.0828,5.076,5.0084,5.0084,4.9678,4.9001,4.9001,4.9001,4.9001,4.9001,4.9001,4.9001,4.9001,4.9001,4.9001,4.9001,4.9001,4.9001,4.9001,4.9001,4.9001,4.9001,4.9001,4.9001,4.9001,4.9462,5.0146,5.0876,5.1034,5.1138,5.1838,5.0964,4.9976,4.9976,4.9462,4.9001,4.9001,4.9001,4.9001,4.9001,4.9001,4.9001,4.9001,4.9001,4.9001,4.9001,4.9001,4.8731,4.8054,4.797,4.7682,4.6955,4.687,4.6853,4.6853,4.6802,4.6481,4.5845,4.5811,4.5815,4.5736,4.5718,4.6038,4.6649,4.6649,4.7039,4.785,4.847,4.8802,4.0087,4.1441,4.2472,4.3234,4.3859,4.4333,4.4536,4.3284,4.1965,4.1559,3.9259,3.7212,0.0,0.0,0.0,3.9597,4.1204,0.0,4.4367,4.5855,0.0,4.6786,0.0,4.9001,4.9001,4.9001,0.0,0.0,4.9001,4.9001,4.9001,4.9001,4.9001,4.9001,4.9001,4.9001,4.9001,4.9001,4.9001,4.9001,4.9187,4.956,5.0101,5.0287,5.027,5.0084,5.0084,4.9678,4.9001,4.9001,4.9001,4.9001,4.9001,4.9001,4.9001,4.9001,4.9001,4.9001,4.9001,4.9001,4.9001,4.9001,4.9001,4.9001,4.9001,4.9001,4.9001,4.9001,4.9107,4.9419,5.009,4.9879,4.9681,5.039,4.9879,4.9256,4.9256,4.9107,4.9001,4.9001,4.9001,4.9001,4.9001,4.9001,4.9001,4.9001,4.9001,4.9001,4.9001,4.9001,4.8934,4.8748,4.8731,4.8646,4.846,4.7953,4.7631,4.7631,4.7107,4.6958,4.7248,4.7231,4.7736,4.8662,4.8708,4.9019,4.9677,4.9677,4.9786,5.0004,5.019,5.0258,4.1187,4.2523,4.3504,4.3842,4.4265,4.4316,4.3318,4.2117,4.073,3.9089,3.7094,3.5622,3.5622,3.5977,0.0,0.0,0.0,0.0,4.4316,4.5855,4.6786,0.0,4.8105,0.0,4.9001,4.9001,4.9001,0.0,4.9001,4.9001,4.9001,4.9001,4.9001,4.9001,4.9001,4.9001,4.9001,4.9001,4.9171,4.9492,4.9813,5.0355,5.1082,5.142,5.1403,5.1065,0.0,5.0456,4.9475,4.9475,4.9289,4.9001,4.9001,4.9001,4.9001,4.9001,4.9001,4.9001,4.9001,4.9001,4.9001,4.9001,4.9001,4.9001,4.9001,4.9001,4.9001,4.9001,4.9001,4.9168,4.9855,4.9521,4.9152,4.9821,4.9462,4.9001,4.9001,4.9001,4.9001,4.9001,4.9001,4.9001,4.9001,4.9001,4.9001,4.9001,4.9001,4.9001,4.9001,4.9001,4.9001,4.9001,4.9001,4.9001,4.9001,4.8629,4.8392,4.8392,4.8003,4.7919,4.8266,4.8303,4.8748,4.9767,4.9793,5.0112,5.0802,5.0802,5.0986,5.1334,5.1334,5.1518,4.1779,4.2912,4.3741,4.4418,4.4502,4.3859,4.1694,4.0899,3.9631,3.618,3.5233,3.5098,3.5284,3.5402,3.6671,4.0324,0.0,4.1965,4.413,4.5788,4.6786,4.6786,4.8105,4.9001,4.9001,4.9001,4.9001,4.9001,4.9001,4.9001,4.9001,4.9001,4.9001,4.9001,4.9001,4.9001,4.9001,4.9001,4.9373,5.0101,5.076,5.1454,5.2181,5.2892,5.2824,5.2147,0.0,0.0,5.0236,5.0135,4.9712,4.9137,4.9035,4.9001,4.9001,4.9001,4.9001,4.9001,4.9001,4.9001,4.9001,4.9001,4.9001,4.9001,4.9001,4.9001,4.9001,4.9001,4.9001,4.9168,4.9774,4.9496,4.9168,4.9722,4.9402,4.9001,4.9001,4.9001,4.9001,4.9001,4.9001,4.9001,4.9001,4.9001,4.9001,4.9001,4.9001,4.9001,4.9001,4.9001,4.9001,4.9001,4.9001,4.9001,4.9001,4.9001,4.9001,4.9001,4.9001,4.9069,4.9156,4.9194,4.9536,5.0244,5.0271,5.0544,5.1132,5.1132,5.1481,5.216,5.216,5.2527,4.2185,4.3318,4.4418,4.4553,4.4096,4.32,4.1576,3.9309,0.0,0.0,3.3237,3.2341,3.3558,3.4286,3.5707,3.887,4.0409,4.1762,4.3386,4.5449,4.6786,0.0,4.8105,4.9001,4.9001,0.0,0.0,0.0,0.0,4.9001,4.9001,4.9001,4.9001,4.9001,4.9001,4.9001,4.9001,4.9001,4.9373,5.0084,5.0219,5.0676,5.142,5.1555,5.1539,5.1403,5.1403,0.0,5.098,5.0338,5.0016,4.9847,4.9238,4.9001,4.9001,4.9001,4.9001,4.9001,4.9001,4.9001,4.9001,4.9001,4.9001,4.9001,4.9001,4.9001,4.9001,4.9001,4.9001,4.9001,4.9168,4.9124,4.9001,4.9168,4.9107,4.9001,4.9001,4.9001,4.9001,4.9001,4.9001,4.9001,4.9001,4.9001,4.9001,4.9001,4.9001,4.9001,4.9001,4.9001,4.9001,4.9001,4.9001,4.9001,4.9001,4.9001,4.9001,4.9001,4.9001,4.9529,5.0682,5.0735,5.1294,5.2578,5.2621,5.2682,5.2784,5.2784,5.2876,5.3004,5.3004,5.3078,4.1339,4.2828,4.4485,4.4079,4.369,4.2625,3.9597,0.0,0.0,0.0,3.1935,3.1647,3.3136,3.3694,0.0,3.7415,3.9411,4.1018,4.2117,4.4553,0.0,4.6752,4.7767,4.8595,0.0,0.0,0.0,0.0,0.0,4.9001,4.9001,4.9001,4.9001,4.9001,4.9001,4.9001,4.9001,4.9373,4.9932,5.0676,5.1065,5.1657,5.2418,5.2418,5.2418,5.2418,5.2418,0.0,5.1758,5.1386,5.1014,5.0642,5.0287,5.0152,5.0152,5.0152,5.0152,5.0152,5.0152,5.0152,5.0152,5.0152,4.9644,4.9001,4.9001,4.9001,4.9001,4.9001,4.9001,4.9001,4.9001,4.9001,4.9001,4.9001,4.9001,4.9001,4.9001,4.9001,4.9001,4.9001,4.9001,4.9001,4.9001,4.9001,4.9001,4.9001,4.9001,4.9001,4.9001,4.9001,4.9001,4.9001,4.9001,4.9001,4.9001,4.9001,4.9001,4.9001,4.9316,4.9993,5.1034,5.1444,5.2131,5.3164,5.3206,5.3206,5.3206,5.3206,5.3206,5.3206,5.3206,5.3206,4.0544,4.2168,4.3944,4.3335,4.3064,4.1863,3.7719,3.6654,0.0,3.1935,3.119,3.1647,3.3136,3.3152,3.3728,0.0,3.7872,3.9394,4.0781,4.3284,4.5432,0.0,4.7462,0.0,4.8934,0.0,0.0,0.0,0.0,0.0,4.9001,4.9001,4.9001,4.9001,4.9001,4.9001,4.9001,4.9729,5.0473,5.1217,5.1961,5.2723,5.3501,5.3501,5.3501,5.3501,5.3501,0.0,0.0,5.2367,5.1961,5.1437,5.1268,5.1217,5.1217,5.1217,5.1217,5.1217,5.1217,5.1217,5.1217,5.1217,5.0439,4.9475,4.9475,4.9373,4.9238,4.9238,4.912,4.9001,4.9001,4.9001,4.9001,4.9001,4.9001,4.9001,4.9001,4.9001,4.9001,4.9001,4.9001,4.9001,4.9001,4.9001,4.9001,4.9001,4.9001,4.9001,4.9001,4.9001,4.9001,4.9001,4.9001,4.9001,4.9001,4.9001,4.9063,4.9212,4.9722,5.0407,5.1292,5.1808,5.2445,5.3164,5.3206,5.3206,5.3206,5.3206,5.3206,5.3206,5.3206,5.3206,4.0764,4.1779,4.2472,4.2405,4.1897,4.0595,3.7483,0.0,3.4861,3.1816,3.119,3.1647,3.3136,3.2307,3.2357,3.525,0.0,3.6231,3.9732,4.1593,4.3639,4.6464,0.0,0.0,4.8934,0.0,0.0,0.0,0.0,0.0,4.9001,4.9001,4.9001,4.9001,4.9001,4.9001,4.9001,4.9729,5.0473,5.1217,5.1961,5.2723,5.3501,5.3501,5.3501,5.3501,5.3501,0.0,0.0,5.2604,5.2266,5.2131,5.1471,5.1217,5.1217,5.1217,5.1217,5.1217,5.1217,5.1217,5.1217,5.1217,5.1133,5.1014,5.1014,5.0541,4.9982,4.9982,4.9509,4.9001,4.9001,4.9001,4.9001,4.9001,4.9001,4.9001,4.9001,4.9001,4.9001,4.9001,4.9001,4.9001,4.9001,4.9001,4.9001,4.9001,4.9001,4.9001,4.9001,4.9001,4.9001,4.9001,4.9001,4.9001,4.9001,4.9001,4.9256,4.9879,4.9976,5.0591,5.1952,5.2065,5.2445,5.3164,5.3206,5.3206,5.3206,5.3206,5.3206,5.3206,5.3206,5.3206,3.8616,4.0375,4.2185,4.1745,4.1424,4.0307,3.6857,0.0,3.4776,3.1799,3.119,3.1376,3.1968,3.1596,3.1579,0.0,0.0,0.0,3.8379,4.0426,4.276,4.5788,4.6786,0.0,0.0,0.0,0.0,0.0,0.0,0.0,4.9001,4.9001,4.9001,4.9001,4.9001,4.9001,4.9001,4.9729,5.0473,5.1217,5.1961,5.2723,5.3501,5.3501,5.3501,5.3501,5.3501,0.0,0.0,5.3162,5.3027,5.2993,5.2706,5.2587,5.2587,5.2587,5.2587,5.2587,5.2587,5.2587,5.2587,5.2587,5.2587,5.2418,5.1505,5.0997,5.076,5.076,5.0557,5.0338,5.0338,5.0338,5.0338,5.0338,5.0338,5.0219,4.9763,4.9661,4.9526,4.9086,4.9001,4.9001,4.9001,4.9001,4.9001,4.9001,4.9001,4.9001,4.9001,4.9001,4.9001,4.9001,4.9001,4.9152,4.9563,4.9622,4.9879,5.0608,5.1016,5.1544,5.2065,5.2554,5.2893,5.3206,5.3206,5.3206,5.3206,5.3206,5.3206,5.3206,5.3206,5.3206,3.7094,3.9005,4.0984,4.0899,4.0544,3.9411,0.0,0.0,3.4252,3.1715,3.119,3.119,3.119,3.119,3.119,0.0,0.0,3.4387,3.6874,3.8954,4.1271,0.0,0.0,0.0,0.0,0.0,0.0,0.0,0.0,0.0,0.0,4.9001,4.9001,4.9001,4.9001,4.9001,4.9001,4.9729,5.0355,5.0896,5.1623,5.2283,5.2824,5.2824,5.2824,5.2841,0.0,0.0,0.0,5.3399,5.3501,5.3501,5.3501,5.3501,5.3501,5.3501,5.3501,5.3501,5.3501,5.3501,5.3501,5.3501,5.3501,5.3315,5.2215,5.1725,5.1539,5.1539,5.1386,5.1217,5.1217,5.1217,5.1217,5.1217,5.1217,5.1065,5.0541,5.0422,5.0202,4.9475,4.9323,4.9255,4.9035,4.9001,4.9001,4.9001,4.9001,4.9001,4.9001,4.9001,4.9001,4.9001,4.9001,4.9212,4.9664,4.9879,5.0279,5.1034,5.1759,5.2224,5.2445,5.2937,5.3206,5.3206,5.3206,5.3206,5.3206,5.3206,5.3206,5.3206,5.3206,5.3206,3.6891,3.7922,3.8294,3.9732,3.9005,3.7533,0.0,0.0,3.3,3.1512,3.119,3.119,3.119,3.119,3.119,3.119,0.0,0.0,3.5233,3.6975,0.0,0.0,0.0,0.0,0.0,0.0,0.0,0.0,0.0,0.0,0.0,4.9001,4.9001,4.9001,4.9001,4.9001,4.9001,4.9729,5.0084,5.0101,5.0862,5.1234,5.1234,5.1234,5.1234,0.0,0.0,0.0,0.0,5.3179,5.3501,5.3501,5.3501,5.3501,5.3501,5.3501,5.3501,5.3501,5.3501,5.3501,5.3501,5.3501,5.3501,5.3501,5.3484,5.2926,5.2283,5.2283,5.1775,5.1217,5.1217,5.1217,5.1217,5.1217,5.1217,5.1217,5.12,5.12,5.098,5.0219,5.0084,4.9847,4.9137,4.9001,4.9001,4.9001,4.9001,4.9001,4.9001,4.9001,4.9001,4.9001,4.9001,4.9001,4.9001,4.9622,5.0279,5.1034,5.1759,5.2445,5.3164,5.3206,5.3206,5.3206,5.3206,5.3206,5.3206,5.3206,5.3206,5.3206,5.3206,5.3206,3.3,3.4421,3.569,3.6146,3.6299,3.5808,3.3795,0.0,3.207,3.0091,3.0091,3.0446,3.0446,3.0852,3.119,3.119,3.119,0.0,0.0,0.0,0.0,0.0,0.0,0.0,0.0,0.0,0.0,0.0,0.0,0.0,0.0,4.9001,4.9001,4.9001,4.9001,4.9001,4.9001,4.9238,4.9593,5.0084,5.0338,5.071,5.1217,5.1217,0.0,0.0,0.0,0.0,0.0,5.3179,5.3501,5.3501,5.3501,5.3501,5.3501,5.3501,5.3501,5.3501,5.3501,5.3501,5.3501,5.3501,5.3501,5.3501,5.3501,5.3331,5.3129,5.3129,5.2959,5.2773,5.2773,5.2773,5.2773,5.2773,5.2773,5.2621,5.208,5.1961,5.1589,5.0338,5.0084,4.9864,4.9137,4.9001,4.9001,4.9001,4.9001,4.9001,4.9001,4.9001,4.9001,4.9001,4.9001,4.9212,4.9664,5.0352,5.1034,5.1741,5.2445,5.2937,5.3206,5.3206,5.3206,5.3206,5.3206,5.3206,5.3206,5.3206,5.3206,5.3206,5.3206,5.3206,0.0,3.1985,3.3389,3.3947,3.4015,0.0,0.0,0.0,3.0649,2.9299,2.9583,3.0108,3.0108,3.07,3.119,3.119,3.119,0.0,0.0,0.0,0.0,0.0,0.0,0.0,0.0,0.0,0.0,0.0,0.0,0.0,0.0,4.9001,4.9001,4.9001,4.9001,4.9001,4.9001,4.9001,4.9238,4.9678,4.9678,4.9932,5.0388,5.0388,0.0,0.0,0.0,0.0,0.0,5.2317,5.2807,5.3061,5.3061,5.323,5.3501,5.3501,5.3501,5.3501,5.3501,5.3501,5.3501,5.3501,5.3501,5.3501,5.3501,5.3501,5.3501,5.3501,5.3501,5.3501,5.3501,5.3501,5.3501,5.3501,5.3501,5.3365,5.2858,5.2756,5.2384,5.1166,5.071,5.0287,4.9543,4.9187,4.9001,4.9001,4.9001,4.9001,4.9001,4.9001,4.9001,4.9001,4.9212,4.958,4.9976,5.0662,5.1393,5.2065,5.2769,5.3206,5.3206,5.3206,5.3206,5.3206,5.3206,5.3206,5.3206,5.3206,5.3206,5.3206,5.3206,5.3206,0.0,3.0243,3.1224,3.2662,3.2019,3.1021,0.0,0.0,0.0,0.0,0.0,3.004,3.0091,3.07,3.119,3.119,0.0,0.0,0.0,0.0,0.0,0.0,0.0,0.0,0.0,0.0,0.0,0.0,0.0,0.0,0.0,4.9168,4.9168,4.9168,4.9168,4.9107,4.9001,4.9001,4.9001,4.9001,4.9001,4.9001,4.9001,4.9001,0.0,0.0,0.0,0.0,0.0,5.0913,5.1606,5.2232,5.2281,5.2772,5.3483,5.3533,5.3567,5.3551,5.3551,5.3551,5.3501,5.3501,5.3501,5.3501,5.3501,5.3501,5.3501,5.3501,5.3501,5.3501,5.3501,5.3501,5.3501,5.3501,5.3501,5.3501,5.3501,5.3501,5.3264,5.2469,5.1708,5.098,5.0219,4.9492,4.9001,4.9001,4.9001,4.9001,4.9063,4.9046,4.9107,4.9152,4.9722,5.0072,5.0129,5.077,5.1444,5.2065,5.2769,5.3206,5.3206,5.3206,5.3206,5.3206,5.3206,5.3206,5.3206,5.3206,5.3206,5.3206,5.3206,5.3206,2.4729,0.0,2.7977,2.8907,2.9313,2.9347,0.0,0.0,0.0,0.0,0.0,0.0,0.0,0.0,0.0,0.0,0.0,0.0,0.0,0.0,0.0,0.0,0.0,0.0,0.0,0.0,0.0,0.0,0.0,0.0,0.0,5.0626,5.0626,5.0626,5.0626,5.0107,4.9001,4.9001,4.9001,4.9001,4.9001,4.9001,4.9001,4.9001,0.0,0.0,0.0,0.0,5.0152,5.0913,5.1319,5.1519,5.2083,5.2795,5.3591,5.405,5.4313,5.431,5.431,5.3994,5.3501,5.3501,5.3501,5.3501,5.3501,5.3501,5.3501,5.3501,5.3501,5.3501,5.3501,5.3501,5.3501,5.3501,5.3501,5.3501,5.3501,5.3501,5.3264,5.2469,5.1708,5.098,5.0219,4.9492,4.9001,4.9001,4.9001,4.9212,4.9722,4.9763,4.9993,5.0572,5.0716,5.1034,5.1576,5.1759,5.1952,5.2112,5.2769,5.3206,5.3206,5.3206,5.3206,5.3206,5.3206,5.3206,5.3206,5.3206,5.3206,5.3206,5.3206,5.3206,2.3308,2.4763,2.6302,2.6708,2.7368,2.7824,2.7402,0.0,0.0,0.0,0.0,0.0,0.0,0.0,0.0,0.0,0.0,0.0,0.0,0.0,0.0,0.0,0.0,0.0,0.0,0.0,0.0,0.0,0.0,0.0,0.0,5.1086,5.1086,5.1086,5.1086,5.0716,4.9993,4.9936,4.9936,4.9936,4.9936,4.9936,4.9936,4.9936,4.9936,0.0,0.0,0.0,5.0576,5.099,5.1371,5.1699,5.2074,5.2544,5.3003,5.369,5.38,5.355,5.355,5.3283,5.301,5.3382,5.3501,5.3501,5.3501,5.3501,5.3501,5.3501,5.3501,5.3501,5.3501,5.3501,5.3501,5.3501,5.3501,5.3501,5.3501,5.3501,5.3365,5.2942,5.2252,5.1583,5.1172,5.0214,4.9598,4.9896,4.9681,4.9722,5.039,5.05,5.0662,5.1034,5.1393,5.171,5.2065,5.2381,5.2599,5.2599,5.2999,5.3206,5.3206,5.3206,5.3206,5.3206,5.3206,5.3206,5.3206,5.3206,5.3206,5.3206,5.3206,5.3206,2.3054,2.4306,2.5456,2.5575,2.615,2.6725,2.6843,0.0,0.0,0.0,0.0,0.0,0.0,0.0,0.0,0.0,0.0,0.0,0.0,0.0,0.0,0.0,0.0,0.0,0.0,0.0,0.0,0.0,0.0,0.0,0.0,5.1411,5.1411,5.1411,5.1411,5.1411,5.1411,5.1189,5.1086,5.1086,5.1086,5.1086,5.1086,5.1086,5.1086,0.0,0.0,0.0,5.1086,5.1086,5.1475,5.2024,5.213,5.2285,5.252,5.3228,5.3024,5.2438,5.232,5.23,5.2428,5.3243,5.3382,5.3348,5.3467,5.3501,5.3501,5.3501,5.3501,5.3501,5.3501,5.3501,5.3501,5.3501,5.3501,5.3501,5.3501,5.3501,5.3467,5.3348,5.2694,5.2063,5.2002,5.0904,5.0293,5.0841,5.05,5.0445,5.1138,5.1241,5.1292,5.1411,5.1922,5.2271,5.2271,5.2831,5.3206,5.3206,5.3206,5.3206,5.3206,5.3206,5.3206,5.3206,5.3206,5.3206,5.3206,5.3206,5.3206,5.3206,5.3206,5.3206,2.2446,2.3545,2.4814,2.5439,2.615,2.686,2.7503,0.0,0.0,0.0,0.0,0.0,0.0,0.0,0.0,0.0,0.0,0.0,0.0,0.0,0.0,0.0,0.0,0.0,0.0,0.0,0.0,0.0,0.0,0.0,0.0,5.2893,5.2893,5.2893,5.2893,5.2893,5.2893,5.1679,5.1086,5.1086,5.1086,5.1086,5.1086,5.1086,5.1086,0.0,0.0,5.1086,5.1086,5.1086,5.1157,5.1315,5.1871,5.2569,5.3235,5.3981,5.3819,5.313,5.2555,5.2287,5.239,5.3184,5.3019,5.2604,5.3298,5.3501,5.3501,5.3501,5.3501,5.3501,5.3501,5.3501,5.3501,5.3501,5.3501,5.3501,5.3501,5.3501,5.3298,5.2621,5.184,5.1172,5.0544,5.0189,5.0033,5.0129,5.0608,5.1189,5.1856,5.1952,5.2177,5.2787,5.2999,5.3042,5.3042,5.3146,5.3206,5.3206,5.3206,5.3206,5.3206,5.3206,5.3206,5.3206,5.3206,5.3206,5.3206,5.3206,5.3206,5.3206,5.3206,5.3206,2.2801,2.3663,2.5026,2.7306,2.7588,2.7385,2.7705,0.0,0.0,0.0,0.0,0.0,0.0,0.0,0.0,0.0,0.0,0.0,0.0,0.0,0.0,0.0,0.0,0.0,0.0,0.0,0.0,0.0,0.0,0.0,0.0,0.0,5.3206,5.3206,5.3206,5.3206,5.3206,5.2572,5.2242,5.2242,5.2242,5.2242,5.2242,5.2242,5.2242,5.2242,0.0,5.2242,5.2242,5.2242,5.2242,5.226,5.2554,5.2663,5.2701,5.3035,5.2954,5.2738,5.2785,5.2551,5.2376,5.3089,5.3117,5.2963,5.334,5.346,5.3501,5.3501,5.3501,5.3501,5.3501,5.3501,5.3501,5.3501,5.3501,5.3501,5.3501,5.3162,5.2739,5.2367,5.1673,5.1227,5.1246,5.0858,5.0876,5.1611,5.1661,5.1922,5.2599,5.2707,5.2813,5.3164,5.3206,5.3206,5.3206,5.3206,5.3206,5.3206,5.3206,5.3206,5.3206,5.3206,5.3206,5.3206,5.3206,5.3206,5.3206,5.3206,5.3206,5.3206,5.3206,5.3445,2.319,2.3934,2.5227,2.8295,0.0,2.8571,2.9394,0.0,0.0,0.0,0.0,0.0,0.0,0.0,0.0,0.0,0.0,0.0,0.0,0.0,0.0,0.0,0.0,0.0,0.0,0.0,0.0,0.0,0.0,0.0,0.0,0.0,5.3206,5.3206,5.3206,5.3206,5.3206,5.3206,5.3206,5.3206,5.3206,5.3206,5.3206,5.3206,5.3206,5.3206,5.3206,5.3206,5.3206,5.3206,5.3206,5.3206,5.3206,5.2831,5.2335,5.2159,5.2224,5.2408,5.2798,5.2588,5.2323,5.3034,5.3215,5.314,5.3314,5.3529,5.3738,5.3738,5.3874,5.3946,5.3618,5.3501,5.3501,5.3501,5.3501,5.3517,5.3513,5.2855,5.2264,5.2085,5.1623,5.1315,5.1648,5.1475,5.171,5.2787,5.2599,5.2554,5.3121,5.3206,5.3206,5.3206,5.3206,5.3206,5.3206,5.3206,5.3206,5.3206,5.3206,5.3206,5.3206,5.3206,5.3206,5.3206,5.3206,5.3206,5.3206,5.3206,5.3206,5.3206,5.3206,5.3628,2.319,2.3934,2.4896,2.6521,2.8435,0.0,3.4108,3.4975,0.0,3.5908,0.0,0.0,0.0,0.0,0.0,0.0,0.0,0.0,0.0,0.0,0.0,0.0,0.0,0.0,0.0,0.0,0.0,0.0,0.0,0.0,0.0,0.0,0.0,5.3206,5.3206,5.3206,5.3206,5.3206,5.3206,5.3206,5.3206,5.3206,5.3206,5.3206,5.3206,5.3206,5.3206,5.3206,5.3206,5.3206,5.3206,5.3206,5.3206,5.3164,5.3042,5.2335,5.2536,5.306,5.2389,5.2137,5.2216,5.299,5.2779,5.2394,5.3099,5.3802,5.4437,5.4437,5.4948,5.522,5.3832,5.3501,5.3501,5.3501,5.3501,5.3481,5.3432,5.2819,5.2072,5.1425,5.1239,5.0986,5.0298,5.1207,5.2065,5.2159,5.2725,5.3164,5.3206,5.3206,5.3206,5.3206,5.3206,5.3206,5.3206,5.3206,5.3206,5.3206,5.3206,5.3206,5.3206,5.3206,5.3206,5.3206,5.3206,5.3206,5.3206,5.3206,5.3206,5.3206,5.3206,5.3628,2.4202,2.6074,2.8526,3.1529,3.3054,0.0,0.0,3.5332,3.6629,3.6914,3.7772,0.0,0.0,0.0,0.0,0.0,0.0,0.0,0.0,0.0,0.0,0.0,0.0,0.0,0.0,0.0,0.0,0.0,0.0,0.0,0.0,0.0,0.0,5.3206,5.3206,5.3206,5.3206,5.3206,5.3206,5.3206,5.3206,5.3206,5.3206,5.3206,5.3206,5.3206,5.3206,5.3206,5.3206,5.3206,5.3206,5.3206,5.3206,5.3206,5.3164,5.2893,5.2937,5.3164,5.2875,5.2769,5.2824,5.3115,5.302,5.286,5.3146,5.3478,5.3881,5.4376,5.473,5.4952,5.4877,5.4896,5.4896,5.4896,5.4136,5.3615,5.3976,5.2778,5.1666,5.1794,5.1452,5.1175,5.1276,5.1741,5.2271,5.2725,5.2999,5.3206,5.3206,5.3206,5.3206,5.3206,5.3206,5.3206,5.3206,5.3206,5.3206,5.3206,5.3206,5.3206,5.3206,5.3206,5.3206,5.3206,5.3206,5.3206,5.3206,5.3206,5.3206,5.3206,5.3206,5.3904,2.4826,2.7477,3.0755,0.0,0.0,0.0,3.5667,3.645,3.7629,3.8417,0.0,0.0,0.0,0.0,0.0,0.0,0.0,0.0,0.0,0.0,0.0,0.0,0.0,0.0,0.0,0.0,0.0,0.0,0.0,0.0,0.0,0.0,0.0,0.0,5.3206,5.3206,5.3206,5.3206,5.3206,5.3206,5.3206,5.3206,5.3206,5.3206,5.3206,5.3206,5.3206,5.3206,5.3206,5.3206,5.3206,5.3206,5.3206,5.3206,5.3206,5.3206,5.3206,5.3206,5.3206,5.3206,5.3206,5.3206,5.3196,5.3179,5.3179,5.3417,5.3736,5.4291,5.4683,5.4988,5.5525,5.5685,5.5653,5.5405,5.4565,5.39,5.4045,5.2743,5.1675,5.2093,5.1767,5.1544,5.2,5.2271,5.2599,5.3103,5.3206,5.3206,5.3206,5.3206,5.3206,5.3206,5.3206,5.3206,5.3206,5.3206,5.3206,5.3206,5.3206,5.3206,5.3206,5.3206,5.3206,5.3206,5.3206,5.3206,5.3206,5.3206,5.3206,5.3206,5.3206,5.4069,2.4927,2.7736,0.0,0.0,0.0,0.0,4.0095,3.9048,3.8509,4.0888,0.0,0.0,0.0,0.0,0.0,0.0,0.0,0.0,0.0,0.0,0.0,0.0,0.0,0.0,0.0,0.0,0.0,0.0,0.0,0.0,0.0,0.0,0.0,0.0,5.3206,5.3206,5.3206,5.3206,5.3206,5.3206,5.3206,5.3206,5.3206,5.3206,5.3206,5.3206,5.3206,5.3206,5.3206,5.3206,5.3206,5.3206,5.3206,5.3206,5.3206,5.3206,5.3206,5.3206,5.3206,5.3206,5.3206,5.3206,5.3206,5.3206,5.3206,5.3775,5.4399,5.4399,5.4968,5.5574,5.5592,5.5649,5.5494,5.4715,5.4482,5.4222,5.3396,5.2654,5.2182,5.2114,5.2112,5.2112,5.2112,5.2725,5.3206,5.3206,5.3206,5.3206,5.3206,5.3206,5.3206,5.3206,5.3206,5.3206,5.3206,5.3206,5.3206,5.3206,5.3206,5.3206,5.3206,5.3206,5.3206,5.3206,5.3206,5.3206,5.3206,5.3206,5.3206,5.3206,5.3206,5.4069,2.7308,0.0,0.0,3.6708,0.0,0.0,0.0,4.0616,0.0,0.0,0.0,0.0,0.0,0.0,0.0,0.0,0.0,0.0,0.0,0.0,0.0,0.0,0.0,0.0,0.0,0.0,0.0,0.0,0.0,0.0,0.0,0.0,0.0,0.0,5.3206,5.3206,5.3206,5.3206,5.3206,5.3206,5.3206,5.3206,5.3206,5.3206,5.3206,5.3206,5.3206,5.3206,5.3206,5.3206,5.3206,5.3206,5.3206,5.3206,5.3206,5.3206,5.3206,5.3206,5.3206,5.3206,5.3206,5.3206,5.3206,5.3206,5.3206,5.339,5.3683,5.4234,5.4564,5.4876,5.5445,5.5615,5.5571,5.5334,5.4453,5.3698,5.4,5.3031,5.2306,5.2779,5.2875,5.2875,5.2875,5.306,5.3206,5.3206,5.3206,5.3206,5.3206,5.3206,5.3206,5.3206,5.3206,5.3206,5.3206,5.3206,5.3206,5.3206,5.3206,5.3206,5.3206,5.3206,5.3206,5.3206,5.3206,5.3206,5.3206,5.3206,5.3206,5.3206,5.3206,5.4069,2.9151,0.0,0.0,3.9061,4.0634,4.2047,0.0,0.0,0.0,0.0,0.0,0.0,0.0,0.0,0.0,0.0,0.0,0.0,0.0,0.0,0.0,0.0,0.0,0.0,0.0,0.0,0.0,0.0,0.0,0.0,0.0,0.0,0.0,0.0,5.3206,5.3206,5.3206,5.3206,5.3206,5.3206,5.3206,5.3206,5.3206,5.3206,5.3206,5.3206,5.3206,5.3206,5.3206,5.3206,5.3206,5.3206,5.3206,5.3206,5.3206,5.3206,5.3206,5.3206,5.3206,5.3206,5.3206,5.3206,5.3206,5.3206,5.3206,5.3206,5.3316,5.3794,5.3922,5.4032,5.4528,5.4638,5.473,5.5042,5.4409,5.3754,5.3891,5.3204,5.2662,5.3103,5.3206,5.3206,5.3206,5.3206,5.3206,5.3206,5.3206,5.3206,5.3206,5.3206,5.3206,5.3206,5.3206,5.3206,5.3206,5.3206,5.3206,5.3206,5.3206,5.3206,5.3206,5.3206,5.3206,5.3206,5.3206,5.3206,5.3206,5.3206,5.3206,5.3206,5.3206,5.3904,3.0686,0.0,0.0,3.9882,4.1864,0.0,0.0,0.0,0.0,0.0,0.0,0.0,0.0,0.0,0.0,0.0,0.0,0.0,0.0,0.0,0.0,0.0,0.0,0.0,0.0,0.0,0.0,0.0,0.0,0.0,0.0,0.0,0.0,5.3206,5.3206,5.3206,5.3206,5.3206,5.3206,0.0,5.3206,5.3206,5.3206,5.3206,5.3206,5.3206,5.3206,5.3206,5.3206,5.3206,5.3206,5.3206,5.3206,5.3206,5.3206,5.3206,5.3206,5.3206,5.3206,5.3206,5.3206,5.3206,5.3206,5.3206,5.3206,5.3206,5.3206,5.3206,5.3206,5.3206,5.3206,5.3206,5.339,5.4124,5.4289,5.4087,5.3371,5.3206,5.3206,5.3206,5.3206,5.3206,5.3206,5.3206,5.3206,5.3206,5.3206,5.3206,5.3206,5.3206,5.3206,5.3206,5.3206,5.3206,5.3206,5.3206,5.3206,5.3206,5.3206,5.3206,5.3206,5.3206,5.3206,5.3206,5.3206,5.3206,5.3206,5.3206,5.3206,5.3206,5.3206,5.3628,0.0,3.586,0.0,0.0,4.313,0.0,0.0,0.0,0.0,0.0,0.0,0.0,0.0,0.0,0.0,0.0,0.0,0.0,0.0,0.0,0.0,0.0,0.0,0.0,0.0,0.0,0.0,0.0,0.0,0.0,0.0,0.0,0.0,5.3206,5.3206,5.3206,5.3206,5.3206,5.3206,0.0,5.3206,5.3206,5.3206,5.3206,5.3206,5.3206,5.3206,5.3206,5.3206,5.3206,5.3206,5.3206,5.3206,5.3206,5.3206,5.3206,5.3206,5.3206,5.3206,5.3206,5.3206,5.3206,5.3206,5.3206,5.3206,5.3206,5.3206,5.3206,5.3206,5.3206,5.3206,5.3206,5.3243,5.3427,5.3463,5.3427,5.3243,5.3206,5.3206,5.3206,5.3206,5.3206,5.3206,5.3206,5.3206,5.3206,5.3206,5.3206,5.3206,5.3206,5.3206,5.3206,5.3206,5.3206,5.3206,5.3206,5.3206,5.3206,5.3206,5.3206,5.3206,5.3206,5.3206,5.3206,5.3206,5.3206,5.3206,5.3206,5.3206,5.3206,5.3206,5.3628,0.0,0.0,0.0,4.2176,0.0,0.0,0.0,0.0,0.0,0.0,0.0,0.0,0.0,0.0,0.0,0.0,0.0,0.0,0.0,0.0,0.0,0.0,0.0,0.0,0.0,0.0,0.0,0.0,0.0,0.0,0.0,5.3206,5.3206,5.3206,5.3206,5.3206,5.3206,5.3206,5.3206,5.3206,5.3206,5.3206,5.3206,5.3206,5.3206,5.3206,5.3206,5.3206,5.3206,5.3206,5.3206,5.3206,5.3206,5.3206,5.3206,5.3206,5.3206,5.3206,5.3206,5.3206,5.3206,5.3206,5.3206,5.3206,5.3206,5.3206,5.3206,5.3206,5.3206,5.3206,5.3206,5.3206,5.3206,5.3206,5.3206,5.3206,5.3206,5.3206,5.3206,5.3206,5.3206,5.3206,5.3206,5.3206,5.3206,5.3206,5.3206,5.3206,5.3206,5.3206,5.3206,5.3206,5.3206,5.3206,5.3206,5.3206,5.3206,5.3206,5.3206,5.3206,5.3206,5.3206,5.3206,5.3206,5.3206,5.3206,5.3206,5.3206,5.3206,5.3206,5.3206,5.3427,0.0,0.0,3.9827,4.2763,0.0,0.0,0.0,0.0,0.0,0.0,0.0,0.0,0.0,0.0,0.0,0.0,0.0,0.0,0.0,0.0,0.0,0.0,0.0,0.0,0.0,0.0,0.0,0.0,0.0,0.0,5.3206,5.3206,5.3206,5.3206,5.3206,5.3206,5.3206,5.3206,5.3206,5.3206,5.3206,5.3206,5.3206,5.3206,5.3206,5.3206,5.3206,5.3206,5.3206,5.3206,5.3206,5.3206,5.3206,5.3206,5.3206,5.3206,5.3206,5.3206,5.3206,5.3206,5.3206,5.3206,5.3206,5.3206,5.3206,5.3206,5.3206,5.3206,5.3206,5.3206,5.3206,5.3206,5.3206,5.3206,5.3206,5.3206,5.3206,5.3206,5.3206,5.3206,5.3206,5.3206,5.3206,5.3206,5.3206,5.3206,5.3206,5.3206,5.3206,5.3206,5.3206,5.3206,5.3206,5.3206,5.3206,5.3206,5.3206,5.3206,5.3206,5.3206,5.3206,5.3206,5.3206,5.3206,5.3206,5.3206,5.3206,5.3206,5.3206,5.3206,5.3206,5.3206,0.0,0.0,4.1222,0.0,0.0,0.0,0.0,0.0,0.0,0.0,0.0,0.0,0.0,0.0,0.0,0.0,0.0,0.0,0.0,0.0,0.0,0.0,0.0,0.0,0.0,0.0,0.0,0.0,0.0,0.0,5.3206,5.3206,5.3206,5.3206,5.3206,5.3206,5.3206,5.3206,5.3206,5.3206,5.3206,5.3206,5.3206,5.3206,5.3206,5.3206,5.3206,5.3206,5.3206,5.3206,5.3206,5.3206,5.3206,5.3206,5.3206,5.3206,5.3206,5.3206,5.3206,5.3206,5.3206,5.3206,5.3206,5.3206,5.3206,5.3206,5.3206,5.3206,5.3206,5.3206,5.3206,5.3206,5.3206,5.3206,5.3206,5.3206,5.3206,5.3206,5.3206,5.3206,5.3206,5.3206,5.3206,5.3206,5.3206,5.3206,5.3206,5.3206,5.3206,5.3206,5.3206,5.3206,5.3206,5.3206,5.3206,5.3206,5.3206,5.3206,5.3206,5.3206,5.3206,5.3206,5.3206,5.3206,5.3206,5.3206,5.3206,5.3206,5.3206,5.3206,5.3206,5.3206,3.2485,3.7037,4.0708,0.0,0.0,0.0,0.0,0.0,0.0,0.0,0.0,0.0,0.0,0.0,0.0,0.0,0.0,0.0,0.0,0.0,0.0,0.0,0.0,0.0,0.0,0.0,0.0,0.0,0.0,5.3206,5.3206,5.3206,5.3206,5.3206,5.3206,5.3206,5.3206,5.3206,5.3206,5.3206,5.3206,5.3206,5.3206,5.3206,5.3206,5.3206,5.3206,5.3206,5.3206,5.3206,5.3206,5.3206,5.3206,5.3206,5.3206,5.3206,5.3206,5.3206,5.3206,5.3206,5.3206,5.3206,5.3206,5.3206,5.3206,5.3206,5.3206,5.3206,5.3206,5.3206,5.3206,5.3206,5.3206,5.3206,5.3206,5.3206,5.3206,5.3206,5.3206,5.3206,5.3206,5.3206,5.3206,5.3206,5.3206,5.3206,5.3206,5.3206,5.3206,5.3206,5.3206,5.3206,5.3206,5.3206,5.3206,5.3206,5.3206,5.3206,5.3206,5.3206,5.3206,5.3206,5.3206,5.3206,5.3206,5.3206,5.3206,5.3206,5.3206,5.3206,5.3206,5.3206,0.0,0.0,3.9056,0.0,0.0,0.0,0.0,0.0,0.0,0.0,0.0,0.0,0.0,0.0,0.0,0.0,0.0,0.0,0.0,0.0,0.0,0.0,0.0,0.0,0.0,0.0,0.0,0.0,0.0,5.3206,5.3206,5.3206,5.3206,5.3206,5.3206,5.3206,5.3206,5.3206,5.3206,5.3206,5.3206,5.323,5.3359,5.3359,5.344,5.3542,5.3314,5.3206,5.3206,5.3206,5.3206,5.3206,5.3206,5.3206,5.3206,5.3206,5.3206,5.3206,5.3206,5.3206,5.3206,5.3206,5.3206,5.3206,5.3206,5.3206,5.3206,5.3206,5.3206,5.3206,5.3206,5.3206,5.3206,5.3206,5.3206,5.3206,5.3206,5.3206,5.3206,5.3206,5.3206,5.3206,5.3206,5.3206,5.3206,5.3206,5.3206,5.3206,5.3206,5.3206,5.3206,5.3206,5.3206,5.3206,5.3206,5.3206,5.3206,5.3206,5.3206,5.3206,5.3206,5.3206,5.3206,5.3206,5.3206,5.3206,5.3206,5.3206,5.3206,5.3206,5.3206,5.3206,0.0,3.4523,0.0,0.0,0.0,0.0,0.0,0.0,0.0,0.0,0.0,0.0,0.0,0.0,0.0,0.0,0.0,0.0,0.0,0.0,0.0,0.0,0.0,0.0,0.0,0.0,0.0,0.0,0.0,5.3206,5.3206,5.3206,5.3206,5.3206,5.3206,5.3206,5.3206,5.3206,5.3206,5.3206,5.3206,5.3381,5.3777,5.3777,5.4013,5.4373,5.3563,5.3206,5.3206,5.3206,5.3206,5.3206,5.3206,5.3206,5.3206,5.3206,5.3206,5.3206,5.3206,5.3206,5.3206,5.3206,5.3206,5.3206,5.3206,5.3206,5.3206,5.3206,5.3206,5.3206,5.3206,5.3206,5.3206,5.3206,5.3206,5.3206,5.3206,5.3206,5.3206,5.3206,5.3206,5.3206,5.3206,5.3206,5.3206,5.3206,5.3206,5.3206,5.3206,5.3206,5.3206,5.3206,5.3206,5.3206,5.3206,5.3206,5.3206,5.3206,5.3206,5.3206,5.3206,5.3206,5.3206,5.3206,5.3206,5.3206,5.3206,5.3206,5.3206,5.3206,5.3206,5.3206,0.0,0.0,0.0,0.0,0.0,0.0,0.0,0.0,0.0,0.0,0.0,0.0,0.0,0.0,0.0,0.0,0.0,0.0,0.0,0.0,0.0,0.0,0.0,0.0,0.0,0.0,0.0,0.0,0.0,0.0,5.3206,5.3206,5.3206,5.3206,5.3206,5.3206,5.3206,5.3206,5.3206,5.3206,5.3444,5.3663,5.3814,5.4118,5.4322,5.4503,5.4171,5.405,5.405,5.405,5.405,5.4015,5.3701,5.3604,5.3565,5.3314,5.3206,5.3206,5.3206,5.3206,5.3206,5.3206,5.3206,5.3206,5.3206,5.3206,5.3206,5.3206,5.3206,5.3206,5.3206,5.3206,5.3206,5.3206,5.3206,5.3206,5.3206,5.3206,5.3206,5.3206,5.3206,5.3206,5.3206,5.3206,5.3206,5.3206,5.3206,5.3206,5.3206,5.3206,5.3206,5.3206,5.3206,5.3206,5.3206,5.3206,5.3206,5.3206,5.3206,5.3206,5.3206,5.3206,5.3206,5.3206,5.3206,5.3206,5.3206,5.3206,5.3206,5.3206,5.3206,5.3206,3.032,0.0,0.0,0.0,0.0,0.0,0.0,0.0,0.0,0.0,0.0,0.0,0.0,0.0,0.0,0.0,0.0,0.0,0.0,0.0,0.0,0.0,0.0,0.0,0.0,0.0,0.0,0.0,0.0,0.0,5.3206,5.3206,5.3206,5.3206,5.3206,5.3206,5.3206,5.3206,5.3272,5.3422,5.3644,5.3923,5.427,5.4579,5.4779,5.4905,5.4905,5.4731,5.4503,5.4503,5.4503,5.4471,5.4153,5.4048,5.3977,5.3739,5.3623,5.3623,5.3462,5.3381,5.34,5.323,5.3206,5.3206,5.3206,5.3206,5.3206,5.3206,5.3206,5.3206,5.3206,5.3206,5.3206,5.3206,5.3206,5.3206,5.3206,5.3206,5.3206,5.3206,5.3206,5.3206,5.3206,5.3206,5.3206,5.3206,5.3206,5.3206,5.3206,5.3206,5.3206,5.3206,5.3206,5.3206,5.3206,5.3206,5.3206,5.3206,5.3206,5.3206,5.3206,5.3206,5.3206,5.3206,5.3206,5.3206,5.3206,5.3206,5.3206,5.3206,5.3206,5.3206,0.0,0.0,0.0,0.0,0.0,0.0,0.0,0.0,0.0,0.0,0.0,0.0,0.0,0.0,0.0,0.0,0.0,0.0,0.0,0.0,0.0,0.0,0.0,0.0,0.0,0.0,0.0,0.0,0.0,5.3151,5.317,5.3206,5.3206,5.3206,5.3206,5.3206,5.3206,5.3206,5.3422,5.3814,5.3851,5.4284,5.5088,5.5115,5.5331,5.5703,5.5703,5.5256,5.4535,5.4535,5.4535,5.4516,5.4535,5.4535,5.4535,5.4503,5.4503,5.442,5.3977,5.3814,5.3758,5.3359,5.3248,5.3248,5.3206,5.3206,5.3206,5.3206,5.3206,5.3206,5.3206,5.3206,5.3206,5.3206,5.3206,5.3206,5.3206,5.3206,5.3206,5.3206,5.3206,5.3206,5.3206,5.3206,5.3206,5.3206,5.3206,5.3206,5.3206,5.3206,5.3206,5.3206,5.3206,5.3206,5.3206,5.3206,5.3206,5.3206,5.3206,5.3206,5.3206,5.3206,5.3206,5.3206,5.3206,5.3206,5.3206,5.3206,5.3206,5.3206,5.3206,5.3206,3.0246,0.0,0.0,0.0,0.0,0.0,0.0,0.0,0.0,0.0,0.0,0.0,0.0,0.0,0.0,0.0,0.0,0.0,0.0,0.0,0.0,0.0,0.0,0.0,0.0,0.0,0.0,0.0,5.1353,5.172,5.2307,5.2894,5.3206,5.3206,5.3206,5.3206,5.3206,5.3484,5.3683,5.3814,5.4446,5.4876,5.5107,5.5399,5.5599,5.5703,5.5703,5.5577,5.5375,5.5375,5.5375,5.5331,5.5034,5.4933,5.4895,5.4628,5.4503,5.4503,5.4355,5.4288,5.4288,5.4171,5.4137,5.4086,5.3739,5.3624,5.3565,5.3254,5.3206,5.3206,5.3206,5.3206,5.3206,5.3206,5.3206,5.3206,5.3206,5.3206,5.3206,5.3206,5.3206,5.3206,5.3206,5.3206,5.3206,5.3206,5.3206,5.3206,5.3206,5.3206,5.3206,5.3206,5.3206,5.3206,5.3206,5.3206,5.3206,5.3206,5.3206,5.3206,5.3206,5.3206,5.3206,5.3206,5.3206,5.3206,5.3206,5.3206,5.3206,5.3206,5.3206,5.3206,0.0,0.0,0.0,0.0,0.0,0.0,3.5018,3.5789,0.0,0.0,0.0,0.0,0.0,0.0,0.0,0.0,0.0,0.0,0.0,0.0,0.0,0.0,0.0,0.0,0.0,4.9811,0.0,5.0288,5.0618,5.1004,5.1463,5.194,5.2215,5.2215,5.2215,5.2261,5.2428,5.2623,5.3099,5.3809,5.4297,5.4842,5.5375,5.5599,5.5703,5.5703,5.5703,5.5703,5.5703,5.5703,5.5703,5.5662,5.5446,5.5331,5.5331,5.5088,5.5007,5.4979,5.4809,5.4731,5.4701,5.4547,5.4503,5.4471,5.4187,5.4083,5.3977,5.3584,5.3336,5.3206,5.3206,5.3206,5.3206,5.3206,5.3206,5.3206,5.3206,5.3206,5.3206,5.3206,5.3206,5.3206,5.3206,5.3206,5.3206,5.3206,5.3206,5.3206,5.3206,5.3206,5.3206,5.3206,5.3206,5.3206,5.3206,5.3206,5.3206,5.3206,5.3206,5.3206,5.3206,5.3206,5.3206,5.3206,5.3206,5.3206,5.3206,5.3206,5.3206,5.3206,5.3206,5.3206,0.0,0.0,0.0,0.0,0.0,0.0,3.4045,3.5092,3.6523,0.0,0.0,0.0,0.0,0.0,0.0,0.0,0.0,0.0,0.0,0.0,0.0,0.0,0.0,0.0,4.8306,4.9003,4.9444,4.9444,5.0196,5.0674,5.0674,5.0747,5.0802,5.0802,5.0824,5.0986,5.1301,5.1407,5.219,5.367,5.3722,5.4374,5.5568,5.5568,5.5607,5.5703,5.5703,5.5703,5.5703,5.5703,5.5703,5.5703,5.5703,5.5703,5.5703,5.5703,5.5703,5.5662,5.5282,5.516,5.5107,5.4731,5.4609,5.4609,5.4597,5.4566,5.4452,5.4013,5.3604,5.3336,5.3336,5.3314,5.3272,5.3272,5.323,5.3206,5.3206,5.3206,5.3206,5.3206,5.3206,5.3206,5.3206,5.3206,5.3206,5.3206,5.3206,5.3206,5.3206,5.3206,5.3206,5.3206,5.3206,5.3206,5.3206,5.3206,5.3206,5.3272,5.3248,5.323,5.3336,5.3295,5.3314,5.3336,5.3295,5.323,5.3206,5.3206,5.3206,5.3206,5.3206,5.3206,0.0,0.0,0.0,0.0,0.0,0.0,3.5495,3.5018,3.5128,0.0,0.0,0.0,0.0,0.0,0.0,0.0,0.0,0.0,0.0,0.0,0.0,0.0,0.0,0.0,4.8306,4.8453,4.8545,4.8545,4.9334,4.9811,4.9811,5.0453,5.0802,5.0802,5.1064,5.1212,5.1301,5.1994,5.2509,5.2831,5.3158,5.3812,5.4722,5.4722,5.5088,5.5703,5.5703,5.5703,5.5703,5.5703,5.5703,5.5703,5.5703,5.5703,5.5703,5.5703,5.5703,5.5703,5.5599,5.5577,5.5577,5.5489,5.5466,5.5399,5.5061,5.4979,5.4895,5.4484,5.4307,5.424,5.424,5.3979,5.3683,5.3683,5.3462,5.3206,5.3206,5.3206,5.3206,5.3206,5.3206,5.3206,5.3206,5.3206,5.3206,5.3206,5.3206,5.3206,5.3206,5.3206,5.3206,5.3206,5.3206,5.3206,5.3206,5.3206,5.3336,5.3663,5.34,5.3502,5.4206,5.3888,5.387,5.424,5.387,5.3505,5.3206,5.3206,5.3206,5.3206,5.3206,5.3206,0.0,0.0,0.0,3.3697,0.0,0.0,0.0,3.4394,3.4504,3.6982,0.0,0.0,0.0,0.0,0.0,0.0,0.0,0.0,0.0,0.0,0.0,0.0,0.0,0.0,4.8306,4.8306,4.8306,4.8306,4.8691,4.8948,4.8948,4.9334,4.9653,4.9862,5.0023,5.031,5.07,5.1133,5.1672,5.2254,5.2447,5.301,5.3876,5.4299,5.4722,5.5126,5.553,5.5703,5.5703,5.5703,5.5703,5.5703,5.5703,5.5703,5.5703,5.5703,5.5703,5.5703,5.5703,5.5703,5.5703,5.5703,5.5703,5.5662,5.5466,5.5256,5.5061,5.4867,5.464,5.4503,5.4503,5.434,5.4083,5.3851,5.3663,5.3444,5.323,5.3206,5.3206,5.3206,5.3206,5.3206,5.3206,5.3206,5.3206,5.3206,5.3206,5.3206,5.3206,5.3206,5.3206,5.3206,5.3206,5.3206,5.3206,5.3381,5.3505,5.3505,5.372,5.3943,5.4153,5.4153,5.4255,5.4503,5.4255,5.4067,5.3851,5.3604,5.34,5.3206,5.3206,5.3206,0.0,0.0,0.0,0.0,0.0,3.3807,0.0,0.0,0.0,3.5532,0.0,0.0,0.0,0.0,0.0,0.0,0.0,0.0,0.0,0.0,0.0,0.0,0.0,0.0,0.0,4.8031,4.8306,4.8306,4.8306,4.8306,4.8306,4.8306,4.8477,4.8897,4.8996,4.9367,5.0092,5.0183,5.0684,5.1683,5.1683,5.2125,5.2972,5.3683,5.4184,5.453,5.5184,5.5549,5.5703,5.5703,5.5703,5.5703,5.5703,5.5703,5.5703,5.5703,5.5703,5.5703,5.5703,5.5703,5.5703,5.5703,5.5703,5.5703,5.5703,5.5489,5.5212,5.5212,5.4979,5.4731,5.4731,5.4671,5.4516,5.4134,5.4013,5.387,5.3524,5.3359,5.3336,5.3336,5.323,5.3206,5.3206,5.3206,5.3206,5.3206,5.3206,5.3206,5.3206,5.3206,5.3206,5.3206,5.3206,5.3206,5.3206,5.3565,5.3683,5.3462,5.4121,5.4387,5.4202,5.4528,5.4701,5.4628,5.4628,5.4597,5.4503,5.4118,5.3777,5.344,5.3272,5.323,0.0,0.0,0.0,0.0,3.3807,0.0,0.0,0.0,3.3844,3.4045,0.0,0.0,0.0,0.0,0.0,0.0,0.0,0.0,0.0,0.0,0.0,0.0,0.0,0.0,0.0,4.7058,4.8306,4.8306,4.8306,4.8306,4.8306,4.8306,4.8477,4.8897,4.9234,4.9664,5.0111,5.0442,5.0702,5.0837,5.0837,5.126,5.2049,5.2164,5.3049,5.4511,5.4607,5.503,5.5703,5.5703,5.5703,5.5703,5.5703,5.5703,5.5703,5.5703,5.5703,5.5703,5.5703,5.5703,5.5703,5.5703,5.5703,5.5703,5.5703,5.5662,5.564,5.564,5.5599,5.5577,5.5577,5.5306,5.5007,5.4979,5.4671,5.4406,5.4373,5.4032,5.372,5.372,5.3444,5.3206,5.3206,5.3206,5.3206,5.3206,5.3206,5.3206,5.3206,5.3206,5.3206,5.3206,5.3206,5.3206,5.3206,5.3565,5.396,5.434,5.4439,5.479,5.5446,5.5535,5.5399,5.5034,5.5034,5.4867,5.4503,5.4471,5.4406,5.434,5.3563,5.3381,0.0,0.0,0.0,0.0,0.0,0.0,3.4027,0.0,3.3807,0.0,0.0,0.0,0.0,0.0,0.0,0.0,3.4174,0.0,0.0,0.0,0.0,0.0,0.0,0.0,0.0,0.0,0.0,0.0,4.6636,4.6911,4.6911,4.7792,4.8477,4.8897,4.9295,4.9692,5.0092,5.0504,5.0702,5.0702,5.0702,5.0875,5.1221,5.1702,5.2299,5.3049,5.4068,5.4684,5.503,5.5511,5.5703,5.5703,5.5703,5.5703,5.5703,5.5703,5.5703,5.5703,5.5703,5.5703,5.5703,5.5703,5.5703,5.5703,5.5703,5.5703,5.5703,5.5703,5.5703,5.5703,5.5703,5.5577,5.5399,5.516,5.4979,5.479,5.4566,5.4118,5.3814,5.3814,5.3484,5.3206,5.3206,5.3206,5.3206,5.3206,5.3206,5.3206,5.3206,5.3206,5.3206,5.3206,5.3206,5.3206,5.3206,5.3814,5.4187,5.4083,5.4579,5.5088,5.5662,5.5703,5.5621,5.5446,5.5446,5.5375,5.5186,5.4979,5.4979,5.5186,5.4083,5.3624,3.6786,0.0,0.0,0.0,0.0,0.0,0.0,0.0,0.0,0.0,0.0,0.0,0.0,0.0,0.0,0.0,0.0,3.3715,0.0,0.0,0.0,0.0,0.0,0.0,0.0,0.0,0.0,4.3644,4.447,4.5112,4.5553,4.6893,4.8016,4.8878,4.9295,4.9692,5.0092,5.0504,5.0702,5.0702,5.0702,5.0702,5.0721,5.1298,5.1702,5.1972,5.3241,5.4068,5.4549,5.5126,5.5491,5.5703,5.5703,5.5703,5.5703,5.5703,5.5703,5.5703,5.5703,5.5703,5.5703,5.5703,5.5703,5.5703,5.5703,5.5703,5.5703,5.5703,5.5703,5.5703,5.5703,5.5703,5.564,5.5331,5.5262,5.5186,5.4876,5.4465,5.4168,5.4168,5.3833,5.3563,5.3563,5.3378,5.3206,5.3206,5.3206,5.323,5.3359,5.3359,5.3422,5.3524,5.3422,5.3359,5.3359,5.3943,5.4255,5.4168,5.4857,5.5399,5.5703,5.5703,5.5703,5.5703,5.5703,5.5703,5.5703,5.5399,5.5423,5.5662,5.451,5.4048,0.0,0.0,0.0,3.8332,0.0,0.0,0.0,0.0,3.3807,0.0,0.0,0.0,0.0,0.0,0.0,0.0,0.0,0.0,0.0,0.0,0.0,0.0,0.0,0.0,0.0,0.0,0.0,4.1222,4.1974,4.3112,4.4672,4.5535,4.6872,4.8841,4.9295,4.9692,5.0092,5.0504,5.0702,5.0702,5.0702,5.0702,5.0702,5.0721,5.1164,5.1914,5.1972,5.2953,5.4491,5.453,5.4991,5.5703,5.5703,5.5703,5.5703,5.5703,5.5703,5.5703,5.5703,5.5703,5.5703,5.5703,5.5703,5.5703,5.5703,5.5703,5.5703,5.5703,5.5703,5.5703,5.5703,5.5703,5.5703,5.5684,5.5684,5.5662,5.5662,5.5331,5.5061,5.5061,5.4731,5.4471,5.4471,5.3758,5.3206,5.3206,5.3206,5.3318,5.372,5.3777,5.3941,5.4406,5.4048,5.3777,5.3777,5.3814,5.4168,5.5007,5.5446,5.5703,5.5703,5.5703,5.5703,5.5703,5.5703,5.5703,5.5703,5.5703,5.5703,5.5684,5.4848,5.4671,0.0,0.0,4.0372,4.057,0.0,0.0,0.0,0.0,0.0,0.0,0.0,0.0,0.0,0.0,0.0,0.0,0.0,0.0,0.0,0.0,0.0,0.0,0.0,0.0,0.0,0.0,0.0,3.8634,3.946,4.0855,4.3002,4.4378,4.614,4.844,4.8897,4.9295,4.9692,5.0092,5.0421,5.0702,5.0702,5.0702,5.0702,5.0702,5.0837,5.1144,5.1683,5.2568,5.3683,5.426,5.4972,5.5703,5.5703,5.5703,5.5703,5.5703,5.5703,5.5703,5.5703,5.5703,5.5703,5.5703,5.5703,5.5703,5.5703,5.5703,5.5703,5.5703,5.5703,5.5703,5.5703,5.5703,5.5703,5.5703,5.5703,5.5703,5.5703,5.538,5.5088,5.5088,5.4779,5.4503,5.4503,5.424,5.405,5.405,5.405,5.4102,5.4255,5.4255,5.4322,5.4503,5.4355,5.4255,5.4255,5.4497,5.4886,5.5446,5.5621,5.5703,5.5703,5.5703,5.5703,5.5703,5.5703,5.5703,5.5703,5.5703,5.5703,5.5684,5.5423,5.5212,4.4649,4.3843,0.0,4.3031,4.1233,0.0,3.8377,0.0,0.0,0.0,0.0,0.0,0.0,0.0,0.0,0.0,0.0,0.0,0.0,3.3807,0.0,0.0,0.0,0.0,0.0,0.0,3.5037,3.6083,3.6927,3.8579,0.0,0.0,4.5094,4.781,4.8699,4.9234,4.9504,5.0043,5.0442,5.0702,5.0702,5.0702,5.0702,5.0702,5.0702,5.0721,5.1241,5.1952,5.2818,5.3683,5.453,5.5299,5.5588,5.5703,5.5703,5.5703,5.5703,5.5703,5.5703,5.5703,5.5703,5.5703,5.5703,5.5703,5.5703,5.5703,5.5703,5.5703,5.5703,5.5703,5.5703,5.5703,5.5703,5.5703,5.5703,5.5703,5.5703,5.5489,5.5306,5.5306,5.5088,5.4924,5.4924,5.4924,5.4819,5.4535,5.4503,5.4566,5.4701,5.4701,5.4779,5.4924,5.4809,5.4659,5.4503,5.4867,5.5212,5.5466,5.5621,5.5703,5.5703,5.5703,5.5703,5.5703,5.5703,5.5703,5.5703,5.5703,5.5703,5.5703,5.5703,5.5577]},{"header":{"parameterUnit":"m.s-1","parameterCategory":1,"la1":30.6,"la2":29.2853,"lo1":-89.7004,"lo2":-87.6739,"dy":0.0162,"dx":0.0183,"nx":112,"ny":82,"refTime":"2023-09-14T18:00:00:Z","depth":0,"parameterNumber":3,"parameterNumberName":"V-component_of_WINDS"},"data":[0.0,0.0,0.0,0.0,0.0,0.0,0.0,0.0,0.0,0.0,0.0,0.0,0.0,0.0,0.0,0.0,0.0,0.0,0.0,0.0,0.0,0.0,0.0,0.0,0.0,0.0,0.0,0.0,0.0,0.0,0.0,0.0,0.0,0.0,0.0,0.0,0.0,0.0,0.0,0.0,0.0,0.0,0.0,0.0,0.0,0.0,0.0,0.0,0.0,0.0,0.0,0.0,0.0,0.0,0.0,0.0,0.0,0.0,0.0,0.0,0.0,0.0,0.0,0.0,0.0,0.0,0.0,0.0,0.0,0.0,0.0,0.0,0.0,0.0,0.0,0.0,0.0,0.0,0.0,0.0,0.0,0.0,0.0,0.0,0.0,0.0,0.0,0.0,0.0,0.0,1.0087,1.0361,1.1316,1.1937,1.1937,1.2074,1.1791,1.0957,0.0,0.0,0.0,0.0,0.0,0.0,0.0,0.0,0.0,0.0,0.0,0.0,0.0,0.0,0.0,0.0,0.0,0.0,0.0,0.0,0.0,0.0,0.0,0.0,0.0,0.0,0.0,0.0,0.0,0.0,0.0,0.0,0.0,0.0,0.0,0.0,0.0,0.0,0.0,0.0,0.0,0.0,0.0,0.0,0.0,0.0,0.0,0.0,0.0,0.0,0.0,0.0,0.0,0.0,0.0,0.0,0.0,0.0,0.0,0.0,0.0,0.0,0.0,0.0,0.0,0.0,0.0,0.0,0.0,0.0,0.0,0.0,0.0,0.0,0.0,0.0,0.0,0.0,0.0,0.0,0.0,0.0,0.0,0.0,0.0,0.0,0.0,0.0,0.0,0.0,0.0,0.0,0.0,0.0,0.0,0.0,0.0,0.0,0.0,0.0,0.0,0.0,0.0,0.0,0.9947,1.1443,1.1984,1.2238,1.2238,1.2954,1.2741,1.1175,0.0,0.0,0.0,0.0,0.0,0.0,0.0,0.0,0.0,0.0,0.0,0.0,0.0,0.0,0.0,0.0,0.0,0.0,0.0,0.0,0.0,0.0,0.0,0.0,0.0,0.0,0.0,0.0,0.0,0.0,0.0,0.0,0.0,0.0,0.0,0.0,0.0,0.0,0.0,0.0,0.0,0.0,0.0,0.0,0.0,0.0,0.0,0.0,0.0,0.0,0.0,0.0,0.0,0.0,0.0,0.0,0.0,0.0,0.0,0.0,0.0,0.0,0.0,0.0,0.0,0.0,0.0,0.0,0.0,0.0,0.0,0.0,0.0,0.0,0.0,0.0,0.0,0.0,0.0,0.0,0.0,0.0,0.0,0.0,0.0,0.0,0.0,0.0,0.0,0.0,0.0,0.0,0.0,0.0,0.0,0.0,0.0,0.0,0.0,0.0,0.0,0.0,0.0,0.9646,1.0681,1.1964,1.2225,1.2519,1.3025,1.3455,1.3309,1.2394,1.2072,0.0,0.0,0.0,0.0,0.0,0.0,0.0,0.0,0.0,0.0,0.0,0.0,0.0,0.0,0.0,0.0,0.0,0.0,0.0,0.0,0.0,0.0,0.0,0.0,0.0,0.0,0.0,0.0,0.0,0.0,0.0,0.0,0.0,0.0,0.0,0.0,0.0,0.0,0.0,0.0,0.0,0.0,0.0,0.0,0.0,0.0,0.0,0.0,0.0,0.0,0.0,0.0,0.0,0.0,0.0,0.0,0.0,0.0,0.0,0.0,0.0,0.0,0.0,0.0,0.0,0.0,0.0,0.0,0.0,0.0,0.0,0.0,0.0,0.0,0.0,0.0,0.0,0.0,0.0,0.0,0.0,0.0,0.0,0.0,0.0,0.0,0.0,0.0,0.0,0.0,0.0,0.0,0.0,0.0,0.0,0.0,0.0,0.0,0.0,0.0,0.0,0.0,1.0615,1.151,1.2325,1.2345,1.2693,1.3711,1.3576,1.3442,1.3521,1.2934,0.0,0.0,0.0,0.0,0.0,0.0,0.0,0.0,0.0,0.0,0.0,0.0,0.0,0.0,0.0,0.0,0.0,0.0,0.0,0.0,0.0,0.0,0.0,0.0,0.0,0.0,0.0,0.0,0.0,0.0,0.0,0.0,0.0,0.0,0.0,0.0,0.0,0.0,0.0,0.0,0.0,0.0,0.0,0.0,0.0,0.0,0.0,0.0,0.0,0.0,0.0,0.0,0.0,0.0,0.0,0.0,0.0,0.0,0.0,0.0,0.0,0.0,0.0,0.0,0.0,0.0,0.0,0.0,0.0,0.0,0.0,0.0,0.0,0.0,0.0,0.0,0.0,0.0,0.0,0.0,0.0,0.0,0.0,0.0,0.0,0.0,0.0,0.0,0.0,0.0,0.0,0.0,0.0,0.0,0.0,0.0,0.0,0.0,0.0,0.0,0.0,0.0,1.1096,1.2116,1.2728,1.2472,1.2776,1.4037,1.3216,1.2964,1.3923,1.2837,0.0,0.0,0.0,0.0,0.0,0.0,0.0,0.0,0.0,0.0,0.0,0.0,0.0,0.0,0.0,0.0,0.0,0.0,0.0,0.0,0.0,0.0,0.0,0.0,0.0,0.0,0.0,0.0,0.0,0.0,0.0,0.0,0.0,0.0,0.0,0.0,0.0,0.0,0.0,0.0,0.0,0.0,0.0,0.0,0.0,0.0,0.0,0.0,0.0,0.0,0.0,0.0,0.0,0.0,0.0,0.0,0.0,0.0,0.0,0.0,0.0,0.0,0.0,0.0,0.0,0.0,0.0,0.0,0.0,0.0,0.0,0.0,0.0,0.0,0.0,0.0,0.0,0.0,0.0,0.0,0.0,0.0,0.0,0.0,0.0,0.0,0.0,0.0,0.0,0.0,0.0,0.0,0.0,0.0,0.0,0.0,0.0,0.0,0.0,0.0,0.0,0.0,1.1142,1.2098,0.0,1.2819,1.3209,1.4096,1.4317,1.4283,1.4003,0.0,0.0,0.0,0.0,0.0,0.0,0.0,0.0,0.0,0.0,0.0,0.0,0.0,0.0,0.0,0.0,0.0,0.0,0.0,0.0,0.0,0.0,0.0,0.0,0.0,0.0,0.0,0.0,0.0,0.0,0.0,0.0,0.0,0.0,0.0,0.0,0.0,0.0,0.0,0.0,0.0,0.0,0.0,0.0,0.0,0.0,0.0,0.0,0.0,0.0,0.0,0.0,0.0,0.0,0.0,0.0,0.0,0.0,0.0,0.0,0.0,0.0,0.0,0.0,0.0,0.0,0.0,0.0,0.0,0.0,0.0,0.0,0.0,0.0,0.0,0.0,0.0,0.0,0.0,0.0,0.0,0.0,0.0,0.0,0.0,0.0,0.0,0.0,0.0,0.0,0.0,0.0,0.0,0.0,0.0,0.0,0.0,0.0,0.0,0.0,0.0,0.0,1.0167,1.1363,1.2412,0.0,1.308,1.3696,1.4858,1.5112,1.5069,1.4684,0.0,0.0,0.0,0.0,0.0,0.0,0.0,0.0,0.0,0.0,0.0,0.0,0.0,0.0,0.0,0.0,0.0,0.0,0.0,0.0,0.0,0.0,0.0,0.0,0.0,0.0,0.0,0.0,0.0,0.0,0.0,0.0,0.0,0.0,0.0,0.0,0.0,0.0,0.0,0.0,0.0,0.0,0.0,0.0,0.0,0.0,0.0,0.0,0.0,0.0,0.0,0.0,0.0,0.0,0.0,0.0,0.0,0.0,0.0,0.0,0.0,0.0,0.0,0.0,0.0,0.0,0.0,0.0,0.0,0.0,0.0,0.0,0.0,0.0,0.0,0.0,0.0,0.0,0.0,0.0,0.0,0.0,0.0,0.0,0.0,0.0,0.0,0.0,0.0,0.0,0.0,0.0,0.0,0.0,0.0,0.0,0.0,0.0,0.0,0.0,0.0,0.0,1.0591,1.1915,1.2872,1.318,1.322,1.418,1.6512,1.5251,1.4855,0.0,0.0,0.0,0.0,0.0,0.0,0.0,0.0,0.0,0.0,0.0,0.0,0.0,0.0,0.0,0.0,0.0,0.0,0.0,0.0,0.0,0.0,0.0,0.0,0.0,0.0,0.0,0.0,0.0,0.0,0.0,0.0,0.0,0.0,0.0,0.0,0.0,0.0,0.0,0.0,0.0,0.0,0.0,0.0,0.0,0.0,0.0,0.0,0.0,0.0,0.0,0.0,0.0,0.0,0.0,0.0,0.0,0.0,0.0,0.0,0.0,0.0,0.0,0.0,0.0,0.0,0.0,0.0,0.0,0.0,0.0,0.0,0.0,0.0,0.0,0.0,0.0,0.0,0.0,0.0,0.0,0.0,0.0,0.0,0.0,0.0,0.0,0.0,0.0,0.0,0.0,0.0,0.0,0.0,0.0,0.0,0.0,0.0,0.0,0.0,0.0,0.0,0.0,1.0802,1.2158,1.3186,1.3487,1.3701,1.4337,1.5617,1.5846,1.5863,1.5579,0.0,0.0,0.0,0.0,0.0,0.0,0.0,0.0,0.0,0.0,0.0,0.0,0.0,0.0,0.0,0.0,0.0,0.0,0.0,0.0,0.0,0.0,0.0,0.0,0.0,0.0,0.0,0.0,0.0,0.0,0.0,0.0,0.0,0.0,0.0,0.0,0.0,0.0,0.0,0.0,0.0,0.0,0.0,0.0,0.0,0.0,0.0,0.0,0.0,0.0,0.0,0.0,0.0,0.0,0.0,0.0,0.0,0.0,0.0,0.0,0.0,0.0,0.0,0.0,0.0,0.0,0.0,0.0,0.0,0.0,0.0,0.0,0.0,0.0,0.0,0.0,0.0,0.0,0.0,0.0,0.0,0.0,0.0,0.0,0.0,0.0,0.0,0.0,0.0,0.0,0.0,0.0,0.0,0.0,0.0,0.0,0.0,0.0,0.0,0.0,0.0,0.0,1.0949,1.2392,1.3447,1.3546,1.3908,1.4664,1.5994,1.6468,1.6715,1.6603,0.0,0.0,0.0,0.0,0.0,0.0,0.0,0.0,0.0,0.0,0.0,0.0,0.0,0.0,0.0,0.0,0.0,0.0,0.0,0.0,0.0,0.0,0.0,0.0,0.0,0.0,0.0,0.0,0.0,0.0,0.0,0.0,0.0,0.0,0.0,0.0,0.0,0.0,0.0,0.0,0.0,0.0,0.0,0.0,0.0,0.0,0.0,0.0,0.0,0.0,0.0,0.0,0.0,0.0,0.0,0.0,0.0,0.0,0.0,0.0,0.0,0.0,0.0,0.0,0.0,0.0,0.0,0.0,0.0,0.0,0.0,0.0,0.0,0.0,0.0,0.0,0.0,0.0,0.0,0.0,0.0,0.0,0.0,0.0,0.0,0.0,0.0,0.0,0.0,0.0,0.0,0.0,0.0,0.0,0.0,0.0,0.0,0.0,0.0,0.0,0.0,0.0,1.1069,1.2579,1.3572,1.3681,1.4005,1.5068,1.7098,1.702,1.7438,1.8608,0.0,0.0,0.0,0.0,0.0,0.0,0.0,0.0,0.0,0.0,0.0,0.0,0.0,0.0,0.0,0.0,0.0,0.0,0.0,0.0,0.0,0.0,0.0,0.0,0.0,0.0,0.0,0.0,0.0,0.0,0.0,0.0,0.0,0.0,0.0,0.0,0.0,0.0,0.0,0.0,0.0,0.0,0.0,0.0,0.0,0.0,0.0,0.0,0.0,0.0,0.0,0.0,0.0,0.0,0.0,0.0,0.0,0.0,0.0,0.0,0.9285,0.0,0.0,0.0,0.0,0.0,0.0,0.0,0.0,0.0,0.0,0.0,0.0,0.0,0.0,0.0,0.0,0.0,0.0,0.0,0.0,0.0,0.0,0.0,0.0,0.0,0.0,0.0,0.0,0.0,0.0,0.0,0.0,0.0,0.0,0.0,0.0,0.0,0.0,0.0,0.0,0.0,1.165,1.2832,1.3734,1.3968,1.4775,1.5869,1.7172,1.8072,1.872,1.9127,1.8574,0.0,0.0,0.0,0.0,0.0,0.0,0.0,0.0,0.0,0.0,0.0,0.0,0.0,0.0,0.0,0.0,0.0,0.0,0.0,0.0,0.0,0.0,0.0,0.0,0.0,0.0,0.0,0.0,0.0,0.0,0.0,0.0,0.0,0.0,0.0,0.0,0.0,0.0,0.0,0.0,0.0,0.0,0.0,0.0,0.0,0.0,0.0,0.0,0.0,0.0,0.0,0.0,0.0,0.0,0.0,0.0,0.0,0.0,0.0,0.0,0.9806,0.0,0.0,0.0,0.0,0.0,0.0,0.0,0.0,0.0,0.0,0.0,0.0,0.0,0.0,0.0,0.0,0.0,0.0,0.0,0.0,0.0,0.0,0.0,0.0,0.0,0.0,0.0,0.0,0.0,0.0,0.0,0.0,0.0,0.0,0.0,0.0,0.0,0.0,0.0,0.0,1.2231,1.3206,1.3968,1.4262,1.5276,1.6499,1.7754,1.8766,1.9552,2.0168,1.9424,0.0,0.0,0.0,0.0,0.0,0.0,0.0,0.0,0.0,0.0,0.0,0.0,0.0,0.0,0.0,0.0,0.0,0.0,0.0,0.0,0.0,0.0,0.0,0.0,0.0,0.0,0.0,0.0,0.0,0.0,0.0,0.0,0.0,0.0,0.0,0.0,0.0,0.0,0.0,0.0,0.0,0.0,0.0,0.0,0.0,0.0,0.0,0.0,0.0,0.0,0.0,0.0,0.0,1.1396,1.1557,1.1617,1.1857,1.1991,1.2011,1.143,1.1329,1.1483,0.0,0.0,0.0,0.0,0.0,0.0,0.0,0.0,0.0,0.0,0.0,0.0,0.0,0.0,0.0,0.0,0.0,0.0,0.0,0.0,0.0,0.0,0.0,0.0,0.0,1.2438,1.2291,0.0,0.0,0.0,0.0,0.0,0.0,0.0,0.0,0.0,0.0,0.0,0.0,1.2916,1.3687,1.4329,1.4569,1.5684,1.6892,1.8304,1.9155,2.0144,2.1257,2.0342,1.9541,0.0,0.0,0.0,0.0,0.0,0.0,0.0,0.0,0.0,0.0,0.0,0.0,0.0,0.0,0.0,0.0,0.0,0.0,0.0,0.0,0.0,0.0,0.0,0.0,0.0,0.0,0.0,0.0,0.0,0.0,0.0,0.0,0.8101,0.8738,0.0,0.0,0.0,0.0,0.0,0.0,0.0,0.0,0.0,0.0,0.0,0.0,0.0,1.1002,1.163,1.2217,1.2679,1.324,1.354,1.3814,1.4055,1.4095,1.4255,1.4462,1.3874,0.0,1.2171,1.1977,0.0,0.0,0.0,0.0,0.0,0.0,0.0,0.0,0.0,0.0,0.0,0.0,0.0,0.0,0.0,0.0,0.0,0.0,0.0,0.0,0.0,0.0,1.338,1.3714,1.3828,1.3868,0.0,1.2525,1.1256,1.1256,1.1256,0.0,0.0,0.0,0.0,0.0,0.0,0.0,1.3514,1.4302,1.4863,1.4903,1.5927,1.7067,1.8329,1.939,2.0485,2.1714,2.1641,2.1348,2.0908,2.0156,0.0,0.0,0.0,0.0,0.0,0.0,0.0,0.0,0.0,0.0,0.0,0.0,0.0,0.0,0.0,0.0,0.0,0.0,0.0,0.0,0.0,0.0,0.0,0.0,0.0,0.0,0.0,0.0,0.0,0.829,0.8945,0.9699,0.9499,0.9252,0.0,0.0,0.0,0.0,0.0,0.0,0.0,0.0,0.0,1.1834,1.2084,1.2599,1.3353,1.3614,1.3961,1.4389,1.4516,1.4643,1.477,1.477,1.4843,1.495,1.4689,1.4282,1.3761,1.326,1.3053,1.2986,0.0,0.0,0.0,0.0,1.1543,1.1577,1.183,1.2311,0.0,0.0,0.0,0.0,0.0,0.0,0.0,0.0,0.0,0.0,0.0,0.0,0.0,1.4469,1.4583,1.4616,1.4743,1.4055,1.3313,0.0,1.2919,1.2739,1.2151,0.0,0.0,0.0,0.0,1.4008,1.4342,1.4723,1.5023,1.519,1.6877,1.8274,1.9001,2.0503,2.1608,2.2236,2.2021,2.1807,2.1611,2.123,2.0498,0.0,0.0,0.0,0.0,0.0,0.0,0.0,0.0,0.0,0.0,0.0,0.0,0.0,0.0,0.0,0.0,0.0,0.0,0.0,0.0,0.0,0.0,0.0,0.0,0.0,0.0,0.0,0.0,0.8985,0.9679,1.0568,1.0414,1.0247,0.0,0.0,0.0,0.0,0.0,0.0,1.211,1.236,1.2903,1.3822,1.4006,1.4289,1.4629,1.5304,1.5627,1.5597,1.5756,1.5748,1.5748,1.5555,1.5411,1.5411,1.5411,1.5411,1.5337,1.4376,1.3981,1.3941,1.3581,1.316,1.2759,1.2759,1.2759,1.2779,1.2933,1.328,1.3661,1.3661,0.0,1.3627,1.348,0.0,0.0,0.0,0.0,1.3206,1.3734,1.4142,1.4549,1.5064,1.5184,1.5184,1.5184,1.5184,1.501,0.0,1.4309,1.4122,1.3534,0.0,0.0,0.0,0.0,1.4576,1.5017,1.5137,1.5447,1.5941,1.7667,1.9028,1.9926,2.1313,2.2313,2.2666,2.2383,2.2158,2.2051,2.2041,2.1533,2.0439,0.0,0.0,0.0,0.0,0.0,0.0,0.0,0.0,0.0,0.0,0.0,0.0,0.0,0.0,0.0,0.0,0.0,0.0,0.0,0.0,0.0,0.0,0.0,0.0,0.0,0.0,0.0,0.0,0.0,1.0868,1.1436,0.0,0.0,0.0,0.0,1.1737,1.2877,1.4019,1.523,1.5321,1.5695,1.6605,1.657,1.6096,1.5033,1.759,1.8289,1.7138,1.7695,1.7904,1.7919,1.6973,1.662,1.662,1.662,1.662,1.6526,1.5371,1.4897,1.4836,1.4269,1.4028,1.3995,1.3995,1.3995,1.4075,1.4636,1.485,1.4877,1.4877,1.4877,1.477,1.4208,1.4021,0.0,0.0,1.3574,1.4088,1.4396,1.4897,1.5404,1.5712,1.5785,1.5785,1.5785,1.5785,1.5611,0.0,1.4917,1.4736,1.4148,0.0,1.4696,1.4168,1.4796,1.5344,1.5371,1.5618,1.6257,1.7475,1.7662,1.8664,2.1025,2.1275,2.1817,2.3018,2.3086,2.29,2.25,2.248,2.2266,2.1797,2.0957,0.0,0.0,0.0,0.0,0.0,0.0,0.0,0.0,0.0,0.0,0.0,0.0,0.0,0.0,0.0,0.0,0.0,0.0,0.0,0.0,0.0,0.0,0.0,0.0,0.0,0.0,0.0,0.0,1.2042,1.2378,0.0,1.3804,1.4092,1.4209,1.4209,1.5098,1.5906,1.6299,1.6526,1.7147,1.8218,1.7865,1.7817,1.8264,1.7771,1.8213,1.9523,1.8839,1.8954,1.9814,1.945,1.8837,1.7973,1.7973,1.7484,1.6673,1.6253,1.6086,1.6046,1.5651,1.5491,1.5471,1.5277,1.5211,1.5237,1.5451,1.5518,1.5518,1.5518,1.5518,1.5484,1.5271,1.5211,1.5164,1.495,1.505,1.5237,1.5337,1.5518,1.5698,1.5805,1.5832,1.5832,1.5832,1.5832,1.5765,1.5565,1.5518,1.5451,1.5244,1.5378,1.5451,1.5244,1.5471,1.5671,1.5671,1.6411,1.7225,1.7692,1.9139,2.0395,2.1203,2.2031,2.2677,2.3047,2.3135,2.3076,2.292,2.292,2.2715,2.2295,2.1982,2.1055,0.0,0.0,0.0,0.0,0.0,0.0,0.0,0.0,0.0,0.0,0.0,0.0,0.0,0.0,0.0,0.0,0.0,0.0,0.0,0.0,0.0,0.0,0.0,0.0,0.0,0.0,1.1941,1.3509,1.3831,1.4395,1.5506,1.6149,1.6409,1.6111,1.7407,1.8257,1.8499,1.8733,1.9282,2.0232,1.9882,1.9844,2.0301,1.9677,1.999,2.144,2.0508,2.0362,2.0848,2.0582,1.9729,1.8455,1.8455,1.8016,1.7308,1.7308,1.7248,1.7108,1.6613,1.642,1.6393,1.6199,1.6126,1.6126,1.6126,1.6126,1.6126,1.6126,1.6126,1.6126,1.6126,1.6126,1.6126,1.6126,1.6126,1.6126,1.6126,1.6126,1.6126,1.6126,1.6126,1.6126,1.6126,1.6126,1.6126,1.6126,1.5965,1.5765,1.5571,1.5538,1.5471,1.5271,1.5244,1.5244,1.5244,1.6141,1.7081,1.7895,1.9619,2.1025,2.1845,2.2418,2.2832,2.3125,2.2871,2.2842,2.3125,2.2861,2.2588,2.2305,2.1865,2.1074,1.9941,0.0,0.0,0.0,0.0,0.0,0.0,0.0,0.0,0.0,0.0,0.0,0.0,0.0,0.0,0.0,0.0,0.0,0.0,0.0,0.0,0.0,0.0,0.0,1.2114,1.2553,1.3607,1.5435,1.6073,1.6511,1.6931,1.8016,1.8344,1.7432,1.9604,2.1289,2.1998,2.2043,2.2215,2.2595,2.2614,2.2046,2.0971,2.3196,2.3794,2.2762,2.2952,2.2434,2.1164,2.0217,1.9223,1.8273,1.8273,1.8326,1.8601,1.8601,1.8317,1.7969,1.7081,1.6727,1.6714,1.6707,1.6707,1.6707,1.6707,1.6707,1.6707,1.6707,1.6707,1.6707,1.6707,1.6707,1.6707,1.6707,1.6707,1.6707,1.6707,1.6707,1.6707,1.6707,1.6707,1.6707,1.6707,1.6707,1.6707,1.6707,1.6246,1.5671,1.5104,1.5003,1.481,1.4229,1.4142,0.0,1.4142,1.4724,1.6027,1.8329,1.9237,2.0576,2.2833,2.2373,2.2275,2.3086,2.2373,2.2295,2.3105,2.2353,2.1924,2.1924,2.0644,2.04,2.125,0.0,0.0,0.0,0.0,0.0,0.0,0.0,0.0,0.0,0.0,0.0,0.0,0.0,0.0,0.0,0.0,0.0,0.0,0.0,0.0,0.0,0.0,1.5583,1.4321,1.5211,1.6565,1.7961,1.8278,1.8795,1.9944,2.0703,2.0931,2.0663,2.1577,2.2206,2.2432,2.2451,2.2879,2.3839,2.3266,2.3222,2.3908,2.2903,2.3404,2.534,2.4417,2.4409,2.5329,2.5127,2.4284,2.3119,2.3119,2.1905,2.0077,2.0077,1.9393,1.8303,1.7609,1.7208,1.7001,1.6787,1.6707,1.6707,1.6707,1.6707,1.6707,1.6707,1.6707,1.6707,1.6707,1.6707,1.6707,1.6707,1.6707,1.6707,1.6707,1.6707,1.6707,1.6707,1.6707,1.6707,1.6707,1.6707,1.6707,1.6707,1.6573,1.6346,1.5979,1.5912,1.5785,1.5404,1.5351,0.0,1.5351,1.7022,1.8287,1.83,2.0579,2.2167,2.2191,2.2578,2.2891,2.3125,2.292,2.29,2.3125,2.292,2.2793,2.2793,2.1846,2.1465,0.0,0.0,0.0,0.0,0.0,0.0,0.0,0.0,0.0,0.0,0.0,0.0,0.0,0.0,0.0,0.0,0.0,0.0,0.0,0.0,0.0,0.0,1.7047,1.8249,1.7521,1.7811,1.8642,2.0099,2.0326,2.0744,2.1762,2.2584,2.2834,2.2269,2.2954,2.3448,2.3617,2.3626,2.4004,2.4961,2.4591,2.4809,2.5625,2.45,2.4822,2.665,2.5793,2.5703,2.6153,2.6153,2.5503,0.0,2.4368,2.3046,2.1128,2.1128,2.0072,0.0,0.0,0.0,0.0,0.0,1.7268,1.7248,1.7121,1.7074,1.7074,1.7074,1.7074,1.7074,1.7074,1.7074,1.7074,1.7074,1.7074,1.7074,1.7074,1.7074,1.7074,1.7074,1.7074,1.7074,1.7074,1.7074,1.7074,1.7074,1.7074,0.0,1.6687,1.6333,1.5945,1.5531,1.5464,1.5643,1.6267,1.7766,1.9011,1.9393,2.1368,2.2599,2.2386,2.2539,0.0,0.0,0.0,2.2617,2.2617,2.2617,0.0,0.0,0.0,2.1514,2.1885,0.0,0.0,0.0,2.0273,1.9883,0.0,0.0,0.0,0.0,0.0,0.0,0.0,0.0,0.0,0.0,0.0,0.0,0.0,0.0,0.0,0.0,1.9091,2.0643,2.1194,2.036,2.0364,2.2035,2.2245,2.2418,2.2765,2.3794,2.4009,2.296,2.3963,2.4756,2.5195,0.0,0.0,0.0,0.0,2.6455,2.6455,2.6826,2.7041,2.709,2.709,2.6464,2.5322,2.5322,2.4871,2.3896,2.3896,2.3202,2.2145,2.2145,2.0976,1.9158,1.8729,1.849,1.8457,1.8196,1.8096,1.8056,1.7782,0.0,0.0,1.7682,1.7682,1.7675,1.7642,1.7635,1.7629,1.7595,1.7582,1.7582,1.7582,1.7582,1.7582,1.7582,1.7582,1.7582,1.7582,1.7582,1.7582,1.7582,1.7582,1.7502,1.7241,1.652,1.5792,1.5244,1.5157,1.5687,1.6988,1.7781,1.8924,2.0911,0.0,0.0,2.3086,2.25,2.2422,2.3164,2.2471,2.2031,2.2031,2.2031,2.166,2.0869,2.0859,2.124,2.2031,2.2031,2.2412,2.3105,2.1562,2.1279,0.0,0.0,0.0,0.0,0.0,0.0,0.0,0.0,0.0,0.0,0.0,0.0,0.0,0.0,0.0,1.9454,2.1457,2.3075,2.3239,2.3357,2.341,2.3438,2.3717,2.3948,2.4025,2.4643,2.4847,2.4648,2.5178,2.5674,2.6113,2.6133,2.6328,2.6758,2.6846,2.6894,2.6894,2.6973,2.7197,2.7539,0.0,0.0,2.7709,2.7709,2.7534,2.7387,2.7387,2.6544,2.5177,2.527,2.355,2.0885,1.9125,1.849,1.8484,1.843,1.8404,1.8397,1.8337,1.8317,1.8317,1.8317,1.8317,1.827,1.8029,1.7956,0.0,1.7655,1.7582,1.7582,1.7582,1.7582,1.7582,1.7582,1.7582,1.7582,1.7582,1.7582,1.7582,1.7582,1.7582,1.7562,1.7508,1.7161,1.6774,1.6426,1.6366,1.6842,1.8171,1.9327,2.0389,2.1167,2.2838,2.3702,2.3115,2.331,2.3486,2.3652,2.3184,2.2891,2.2891,2.2891,2.2812,2.2646,2.2646,2.2725,2.2891,2.2891,2.2978,2.3135,2.2793,2.2734,0.0,0.0,0.0,0.0,0.0,0.0,0.0,0.0,0.0,0.0,0.0,1.7587,0.0,0.0,2.1205,2.1272,2.2679,2.3867,2.4072,2.4473,2.4668,2.4453,2.4619,2.4834,2.5059,2.5273,2.5488,2.5713,2.5937,2.625,2.668,2.6699,2.6797,2.7012,2.7226,2.7344,2.7344,2.7549,2.7764,2.7978,2.7978,2.8086,2.8291,2.8291,2.8291,2.8291,2.8291,2.7511,2.6063,2.527,2.4036,2.2558,2.1569,2.0243,1.8911,1.8764,1.8704,1.8684,1.8544,1.849,1.849,1.849,1.849,1.8464,1.831,1.827,1.8237,1.8083,1.8036,1.8036,1.8036,1.8036,1.8036,1.8036,1.8036,1.8036,1.8036,1.8036,1.8036,1.8036,1.8036,1.8036,1.8036,1.8413,1.8303,1.7291,1.7742,1.8636,2.0022,2.1312,2.2469,2.3112,2.4092,2.4482,2.3838,2.3984,2.4102,2.4102,2.3896,2.3682,2.3477,2.3467,2.3359,2.3144,2.3135,2.3135,2.3135,2.3135,2.3135,2.3144,2.3359,2.335,0.0,0.0,0.0,0.0,0.0,0.0,0.0,0.0,1.6745,1.797,1.9033,1.9927,2.0508,2.1318,2.208,2.2773,2.3535,2.416,2.4492,2.4922,2.5195,2.5195,2.5195,2.5342,2.5703,2.581,2.6006,2.6367,2.6465,2.6699,2.7119,2.7139,2.7178,2.7256,2.7607,2.7783,2.7783,2.8125,2.8291,2.8291,2.8291,2.8291,2.8291,2.8291,2.8291,2.8291,2.8291,2.7618,2.6381,2.4939,2.4267,2.4267,2.3933,2.2379,2.0235,1.9976,1.9666,1.9412,1.9172,1.8874,1.8664,1.8664,1.8664,1.8651,1.8591,1.8577,1.8564,1.8504,1.849,1.849,1.849,1.849,1.849,1.849,1.849,1.849,1.849,1.849,1.849,1.849,1.849,1.8594,1.8919,1.9657,1.9689,1.833,1.9153,2.0538,2.1954,2.3076,2.4067,2.5139,2.5195,2.5019,2.458,2.4541,2.4502,2.4424,2.4414,2.4258,2.3926,2.3906,2.374,2.3398,2.3389,2.3389,2.3389,2.3389,2.3389,2.3398,2.3471,2.3304,1.2205,1.1587,1.1448,1.2827,1.4263,1.5275,0.0,0.0,1.8976,2.028,2.0912,2.1683,2.3095,2.374,2.4092,2.4189,2.4609,2.4941,2.499,2.5381,2.5664,2.5664,2.5664,2.5684,2.5732,2.6084,2.6338,2.6387,2.6738,2.7139,2.7568,2.7598,2.7764,2.8135,2.8193,2.8223,2.8223,2.8271,2.8291,2.8291,2.8291,2.8291,2.8291,2.8291,2.8291,2.8291,2.8291,2.8184,2.795,2.649,2.5818,2.5709,2.4378,2.3607,2.3263,2.3223,2.243,2.1306,2.1269,2.0373,1.9272,1.9272,1.9272,1.9219,1.8958,1.8878,1.8824,1.8564,1.849,1.849,1.849,1.849,1.849,1.849,1.849,1.849,1.849,1.849,1.849,1.849,1.849,1.8913,2.0186,2.0577,2.0442,1.9909,2.0734,2.1954,2.3276,2.3583,2.4177,2.546,2.5664,2.5478,2.5029,2.5,2.4834,2.4443,2.4414,2.4394,2.4346,2.4346,2.4326,2.4277,2.4268,2.4268,2.4268,2.4268,2.4268,2.4277,2.3094,2.2333,1.4311,1.4135,0.0,0.0,1.6752,1.7641,1.9224,2.0144,2.1094,2.2315,2.2938,2.3381,2.402,2.4297,2.4502,0.0,2.4951,2.5156,2.542,2.5615,2.5742,2.5742,2.5967,2.6113,2.6113,2.6279,2.6602,2.71,2.7295,2.7578,2.8008,2.8027,2.8115,2.8281,2.8291,2.8291,2.8291,2.8291,2.8291,2.8291,2.8291,2.8291,2.8291,2.8291,2.8291,2.8291,2.8291,2.8291,2.8291,2.7618,2.7394,2.7286,2.6726,2.6391,2.6164,2.4497,2.3375,2.2927,2.2927,2.2484,2.1934,2.1934,2.1934,2.1911,2.1767,2.1166,2.0472,2.0344,1.9659,1.9005,1.9005,1.9005,1.9005,1.9005,1.9005,1.9005,1.9005,1.9652,2.0308,2.0308,2.0966,2.1739,2.2387,2.2969,2.3426,2.3168,2.3461,2.3759,2.4052,2.4755,2.5395,2.5664,2.5742,2.5664,2.5478,2.5459,2.5381,2.5195,2.5185,2.5068,2.4805,2.4795,2.4678,2.4424,2.4414,2.4414,2.4414,2.4414,2.4414,2.4331,2.322,2.2267,1.6195,0.0,0.0,1.8431,1.905,1.9782,2.2061,2.2603,2.2934,2.3774,2.4297,2.459,2.459,2.4697,2.4883,2.5195,2.5254,2.5361,2.5693,2.584,2.5918,2.5918,2.6299,2.6611,2.6728,2.6738,2.7002,2.7617,2.7773,2.7969,2.8271,2.8291,2.8291,2.8291,2.8291,2.8291,2.8291,2.8291,2.8291,2.8291,2.8291,2.8291,2.8291,2.8291,2.8291,2.8291,2.8291,2.8291,2.8291,2.8291,2.8291,2.8291,2.8291,2.8291,2.8067,2.5827,2.4829,2.4378,2.4378,2.4156,2.3822,2.3822,2.3822,2.3822,2.3822,2.3039,2.2258,2.2258,2.1145,2.004,2.004,1.97,1.9366,1.9366,1.97,2.004,2.004,2.1145,2.2258,2.2258,2.3039,2.3933,2.4378,2.5033,2.572,2.6166,2.6023,2.5653,2.5136,2.592,2.6396,2.5967,2.5918,2.5869,2.5752,2.5742,2.5742,2.5742,2.5742,2.5596,2.5273,2.5254,2.5107,2.4785,2.4775,2.4775,2.4775,2.4775,2.4775,2.4691,2.3317,2.2351,1.7485,0.0,1.7355,1.9397,2.0907,2.1969,2.246,2.3522,2.4302,2.4394,2.4746,2.5049,2.5049,2.54,2.5703,2.5713,2.5713,2.5723,2.5742,2.6103,2.6367,2.6367,2.6738,2.7168,0.0,2.7627,2.7637,2.7666,2.8047,2.8281,2.8291,2.8291,2.8291,2.8291,2.8291,2.8291,2.8291,2.8291,2.8291,2.8291,2.8291,2.8291,2.8291,2.8291,2.8291,2.8291,2.8291,2.8291,2.8291,2.8291,2.8291,2.8291,2.8291,2.8291,2.8291,2.8184,2.7276,2.6036,2.6036,2.5041,2.3822,2.3822,2.3822,2.3822,2.3822,2.3822,2.371,2.371,2.2702,2.1586,2.1586,2.0479,1.9366,1.9366,2.0479,2.1586,2.1586,2.271,2.371,2.371,2.3822,2.4267,2.5818,2.6036,2.658,2.8048,2.8262,2.7843,2.6997,2.6992,2.6836,2.6416,2.6367,2.6201,2.5771,2.5742,2.5742,2.5742,2.5742,2.5732,2.5713,2.5713,2.5713,2.5693,2.5693,2.5693,2.5693,2.5693,2.5693,2.5596,2.295,2.2449,1.8653,1.9688,2.0764,2.1183,2.2472,2.3677,2.3718,2.4349,2.4844,2.4844,2.4736,2.4639,2.4639,2.4307,2.4209,2.4766,2.4863,2.5068,2.5654,2.6113,2.6387,2.6387,2.7012,0.0,0.0,0.0,0.0,2.8057,2.8213,2.8291,2.8291,2.8291,2.8291,2.8291,2.8291,2.8291,2.8291,2.8291,2.8291,2.8291,2.8291,2.8437,2.8711,2.8711,2.8711,2.8711,2.8711,2.8555,2.8291,2.8291,2.8291,2.8291,2.8291,2.8291,2.8291,2.8291,2.795,2.7511,2.7511,2.7168,2.6834,2.6834,2.6834,2.6834,2.6834,2.6054,2.538,2.538,2.4267,2.2814,2.1805,2.1926,2.2047,2.1145,2.204,2.3039,2.3039,2.4258,2.538,2.538,2.6164,2.6952,2.7501,2.7511,2.7726,2.8184,2.8057,2.7773,2.748,2.7197,2.6963,2.6816,2.6807,2.6748,2.6602,2.6328,2.6172,2.6172,2.5898,2.5742,2.5742,2.5742,2.5323,2.4402,2.4402,2.389,2.3076,2.3076,2.3076,2.2968,2.1151,2.0538,2.0144,2.1474,2.2611,2.3025,2.3877,2.4697,2.4853,2.5107,2.5215,2.4902,2.4609,2.4326,2.4023,2.3525,2.3437,2.4277,2.4414,2.4727,2.5615,2.624,2.6611,2.6611,2.7373,2.7891,0.0,0.0,0.0,2.8271,2.8291,2.8291,2.8291,2.8291,2.8291,2.8291,2.8291,2.8291,2.8291,2.8291,2.8291,2.8291,2.8447,2.8662,2.8926,2.9082,2.9062,2.8916,2.8916,2.8682,2.8291,2.8291,2.8291,2.8291,2.8291,2.8291,2.8291,2.8291,2.8291,2.8291,2.8291,2.8291,2.8291,2.8291,2.8291,2.8291,2.8291,2.7618,2.6943,2.6943,2.5827,2.4267,2.2814,2.3039,2.3375,2.1919,2.3151,2.4599,2.4599,2.5827,2.6943,2.6943,2.7618,2.8291,2.8291,2.8291,2.8291,2.8291,2.8066,2.7891,2.7891,2.7646,2.7412,2.7266,2.7246,2.7187,2.7021,2.6768,2.6611,2.6611,2.6348,2.6123,2.5977,2.5967,2.5271,2.3692,2.3692,2.3076,2.1752,2.1752,2.1717,2.1849,2.0423,2.0076,2.2002,2.2607,2.3037,2.4658,2.5088,2.5215,2.5644,2.5684,2.54,2.456,2.4297,2.3975,0.0,0.0,2.334,2.418,2.4375,2.4727,2.5615,2.6475,2.7012,0.0,0.0,0.0,0.0,0.0,0.0,2.8291,0.0,2.8291,2.8291,2.8291,2.8291,2.8291,2.8291,2.8291,2.8291,2.8291,2.8291,2.8301,2.8701,2.8896,2.8935,2.9346,2.9307,2.8916,2.8916,2.8682,2.8291,2.8291,2.8291,2.8291,2.8291,2.8291,2.8291,2.8291,2.8291,2.8291,2.8291,2.8291,2.8291,2.8291,2.8291,2.8291,2.8291,2.8291,2.8291,2.8291,2.7276,2.5827,2.4267,2.3933,2.371,2.2138,2.4036,2.6155,2.6155,2.7276,2.8291,2.8291,2.8291,2.8291,2.8291,2.8291,2.8291,2.8291,2.8291,2.8291,2.8291,2.8291,2.8135,2.7744,2.7695,2.7529,2.7109,2.706,2.7051,2.7051,2.7021,2.6836,2.6336,2.6316,2.5396,2.3555,2.3546,2.2828,2.1505,2.1505,2.1685,2.1932,2.0574,2.0841,2.3144,2.3926,2.4521,2.4961,2.5322,2.5596,2.5713,2.499,2.4228,2.3994,2.2666,2.1484,0.0,0.0,0.0,2.2861,2.3789,0.0,2.5615,2.6475,0.0,2.7012,0.0,2.8291,2.8291,2.8291,0.0,0.0,2.8291,2.8291,2.8291,2.8291,2.8291,2.8291,2.8291,2.8291,2.8291,2.8291,2.8291,2.8291,2.8398,2.8613,2.8926,2.9033,2.9023,2.8916,2.8916,2.8682,2.8291,2.8291,2.8291,2.8291,2.8291,2.8291,2.8291,2.8291,2.8291,2.8291,2.8291,2.8291,2.8291,2.8291,2.8291,2.8291,2.8291,2.8291,2.8291,2.8291,2.8067,2.7394,2.5936,2.6381,2.6834,2.5261,2.6381,2.7726,2.7726,2.8067,2.8291,2.8291,2.8291,2.8291,2.8291,2.8291,2.8291,2.8291,2.8291,2.8291,2.8291,2.8291,2.8252,2.8144,2.8135,2.8086,2.7978,2.7685,2.75,2.75,2.7197,2.6433,2.5255,2.5245,2.393,2.1412,2.1305,2.0681,1.9318,1.9318,1.9361,1.9446,1.9015,1.9167,2.3779,2.4551,2.5117,2.5312,2.5557,2.5586,2.501,2.4316,2.3516,2.2568,2.1416,2.0566,2.0566,2.0771,0.0,0.0,0.0,0.0,2.5586,2.6475,2.7012,0.0,2.7773,0.0,2.8291,2.8291,2.8291,0.0,2.8291,2.8291,2.8291,2.8291,2.8291,2.8291,2.8291,2.8291,2.8291,2.8291,2.8389,2.8574,2.876,2.9072,2.9492,2.9687,2.9678,2.9482,0.0,2.9131,2.8564,2.8564,2.8457,2.8291,2.8291,2.8291,2.8291,2.8291,2.8291,2.8291,2.8291,2.8291,2.8291,2.8291,2.8291,2.8291,2.8291,2.8291,2.8291,2.8291,2.8291,2.796,2.6509,2.7168,2.795,2.649,2.7276,2.8291,2.8291,2.8291,2.8291,2.8291,2.8291,2.8291,2.8291,2.8291,2.8291,2.8291,2.8291,2.8291,2.8291,2.8291,2.8291,2.8291,2.8291,2.8291,2.8291,2.8076,2.7939,2.7939,2.7715,2.6836,2.5126,2.5011,2.3644,2.0614,2.0498,1.9866,1.849,1.849,1.8557,1.8684,1.8684,1.8751,2.4121,2.4775,2.5254,2.5644,2.5693,2.5322,2.4072,2.3613,2.2881,2.0889,2.0342,2.0264,2.0371,2.0439,2.1172,2.3281,0.0,2.4228,2.5478,2.6435,2.7012,2.7012,2.7773,2.8291,2.8291,2.8291,2.8291,2.8291,2.8291,2.8291,2.8291,2.8291,2.8291,2.8291,2.8291,2.8291,2.8291,2.8291,2.8506,2.8926,2.9307,2.9707,3.0127,3.0537,3.0498,3.0107,0.0,0.0,2.9004,2.8945,2.8701,2.8369,2.831,2.8291,2.8291,2.8291,2.8291,2.8291,2.8291,2.8291,2.8291,2.8291,2.8291,2.8291,2.8291,2.8291,2.8291,2.8291,2.8291,2.796,2.6744,2.7295,2.796,2.6717,2.7384,2.8291,2.8291,2.8291,2.8291,2.8291,2.8291,2.8291,2.8291,2.8291,2.8291,2.8291,2.8291,2.8291,2.8291,2.8291,2.8291,2.8291,2.8291,2.8291,2.8291,2.8291,2.8291,2.8291,2.8291,2.734,2.5317,2.5201,2.3628,2.0428,2.0311,1.9782,1.8611,1.8611,1.8738,1.8985,1.8985,1.9118,2.4355,2.501,2.5644,2.5723,2.5459,2.4941,2.4004,2.2695,0.0,0.0,1.9189,1.8672,1.9375,1.9795,2.0615,2.2441,2.333,2.4111,2.5049,2.624,2.7012,0.0,2.7773,2.8291,2.8291,0.0,0.0,0.0,0.0,2.8291,2.8291,2.8291,2.8291,2.8291,2.8291,2.8291,2.8291,2.8291,2.8506,2.8916,2.8994,2.9258,2.9687,2.9766,2.9756,2.9678,2.9678,0.0,2.9434,2.9062,2.8877,2.8779,2.8428,2.8291,2.8291,2.8291,2.8291,2.8291,2.8291,2.8291,2.8291,2.8291,2.8291,2.8291,2.8291,2.8291,2.8291,2.8291,2.8291,2.8291,2.796,2.8077,2.8291,2.796,2.8067,2.8291,2.8291,2.8291,2.8291,2.8291,2.8291,2.8291,2.8291,2.8291,2.8291,2.8291,2.8291,2.8291,2.8291,2.8291,2.8291,2.8291,2.8291,2.8291,2.8291,2.8291,2.8291,2.8291,2.8291,2.7032,2.4174,2.4064,2.2703,1.9658,1.9543,1.9435,1.9212,1.9212,1.9245,1.9292,1.9292,1.9319,2.3867,2.4727,2.5684,2.5449,2.5225,2.4609,2.2861,0.0,0.0,0.0,1.8437,1.8271,1.9131,1.9453,0.0,2.1602,2.2754,2.3682,2.4316,2.5723,0.0,2.6992,2.7578,2.8057,0.0,0.0,0.0,0.0,0.0,2.8291,2.8291,2.8291,2.8291,2.8291,2.8291,2.8291,2.8291,2.8506,2.8828,2.9258,2.9482,2.9824,3.0264,3.0264,3.0264,3.0264,3.0264,0.0,2.9883,2.9668,2.9453,2.9238,2.9033,2.8955,2.8955,2.8955,2.8955,2.8955,2.8955,2.8955,2.8955,2.8955,2.8662,2.8291,2.8291,2.8291,2.8291,2.8291,2.8291,2.8291,2.8291,2.8291,2.8291,2.8291,2.8291,2.8291,2.8291,2.8291,2.8291,2.8291,2.8291,2.8291,2.8291,2.8291,2.8291,2.8291,2.8291,2.8291,2.8291,2.8291,2.8291,2.8291,2.8291,2.8291,2.8291,2.8291,2.8291,2.8291,2.7618,2.6164,2.3933,2.3039,2.1593,1.9482,1.9366,1.9366,1.9366,1.9366,1.9366,1.9366,1.9366,1.9366,2.3408,2.4346,2.5371,2.5019,2.4863,2.417,2.1777,2.1162,0.0,1.8437,1.8008,1.8271,1.9131,1.9141,1.9473,0.0,2.1865,2.2744,2.3545,2.499,2.623,0.0,2.7402,0.0,2.8252,0.0,0.0,0.0,0.0,0.0,2.8291,2.8291,2.8291,2.8291,2.8291,2.8291,2.8291,2.8711,2.9141,2.957,3.0,3.0439,3.0889,3.0889,3.0889,3.0889,3.0889,0.0,0.0,3.0234,3.0,2.9697,2.96,2.957,2.957,2.957,2.957,2.957,2.957,2.957,2.957,2.957,2.9121,2.8564,2.8564,2.8506,2.8428,2.8428,2.8359,2.8291,2.8291,2.8291,2.8291,2.8291,2.8291,2.8291,2.8291,2.8291,2.8291,2.8291,2.8291,2.8291,2.8291,2.8291,2.8291,2.8291,2.8291,2.8291,2.8291,2.8291,2.8291,2.8291,2.8291,2.8291,2.8291,2.8291,2.8184,2.7843,2.6717,2.527,2.3375,2.2258,2.0923,1.9482,1.9366,1.9366,1.9366,1.9366,1.9366,1.9366,1.9366,1.9366,2.3535,2.4121,2.4521,2.4482,2.4189,2.3437,2.1641,0.0,2.0127,1.8369,1.8008,1.8271,1.9131,1.8652,1.8682,2.0352,0.0,2.0918,2.2939,2.4014,2.5195,2.6826,0.0,0.0,2.8252,0.0,0.0,0.0,0.0,0.0,2.8291,2.8291,2.8291,2.8291,2.8291,2.8291,2.8291,2.8711,2.9141,2.957,3.0,3.0439,3.0889,3.0889,3.0889,3.0889,3.0889,0.0,0.0,3.0371,3.0176,3.0098,2.9717,2.957,2.957,2.957,2.957,2.957,2.957,2.957,2.957,2.957,2.9521,2.9453,2.9453,2.918,2.8857,2.8857,2.8584,2.8291,2.8291,2.8291,2.8291,2.8291,2.8291,2.8291,2.8291,2.8291,2.8291,2.8291,2.8291,2.8291,2.8291,2.8291,2.8291,2.8291,2.8291,2.8291,2.8291,2.8291,2.8291,2.8291,2.8291,2.8291,2.8291,2.8291,2.7726,2.6381,2.6155,2.4812,2.1919,2.1699,2.0923,1.9482,1.9366,1.9366,1.9366,1.9366,1.9366,1.9366,1.9366,1.9366,2.2295,2.331,2.4355,2.4102,2.3916,2.3271,2.1279,0.0,2.0078,1.8359,1.8008,1.8115,1.8457,1.8242,1.8232,0.0,0.0,0.0,2.2158,2.334,2.4687,2.6435,2.7012,0.0,0.0,0.0,0.0,0.0,0.0,0.0,2.8291,2.8291,2.8291,2.8291,2.8291,2.8291,2.8291,2.8711,2.9141,2.957,3.0,3.0439,3.0889,3.0889,3.0889,3.0889,3.0889,0.0,0.0,3.0693,3.0615,3.0596,3.043,3.0361,3.0361,3.0361,3.0361,3.0361,3.0361,3.0361,3.0361,3.0361,3.0361,3.0264,2.9736,2.9443,2.9307,2.9307,2.9189,2.9062,2.9062,2.9062,2.9062,2.9062,2.9062,2.8994,2.873,2.8672,2.8594,2.834,2.8291,2.8291,2.8291,2.8291,2.8291,2.8291,2.8291,2.8291,2.8291,2.8291,2.8291,2.8291,2.8291,2.795,2.7051,2.6943,2.6381,2.482,2.3925,2.2814,2.1699,2.0702,2.004,1.9366,1.9366,1.9366,1.9366,1.9366,1.9366,1.9366,1.9366,1.9366,2.1416,2.2519,2.3662,2.3613,2.3408,2.2754,0.0,0.0,1.9775,1.8311,1.8008,1.8008,1.8008,1.8008,1.8008,0.0,0.0,1.9853,2.1289,2.249,2.3828,0.0,0.0,0.0,0.0,0.0,0.0,0.0,0.0,0.0,0.0,2.8291,2.8291,2.8291,2.8291,2.8291,2.8291,2.8711,2.9072,2.9385,2.9805,3.0185,3.0498,3.0498,3.0498,3.0508,0.0,0.0,0.0,3.083,3.0889,3.0889,3.0889,3.0889,3.0889,3.0889,3.0889,3.0889,3.0889,3.0889,3.0889,3.0889,3.0889,3.0781,3.0146,2.9863,2.9756,2.9756,2.9668,2.957,2.957,2.957,2.957,2.957,2.957,2.9482,2.918,2.9111,2.8984,2.8564,2.8476,2.8437,2.831,2.8291,2.8291,2.8291,2.8291,2.8291,2.8291,2.8291,2.8291,2.8291,2.8291,2.7843,2.6825,2.6381,2.548,2.3933,2.2371,2.1365,2.0923,1.9924,1.9366,1.9366,1.9366,1.9366,1.9366,1.9366,1.9366,1.9366,1.9366,1.9366,2.1299,2.1894,2.2109,2.2939,2.2519,2.167,0.0,0.0,1.9053,1.8193,1.8008,1.8008,1.8008,1.8008,1.8008,1.8008,0.0,0.0,2.0342,2.1348,0.0,0.0,0.0,0.0,0.0,0.0,0.0,0.0,0.0,0.0,0.0,2.8291,2.8291,2.8291,2.8291,2.8291,2.8291,2.8711,2.8916,2.8926,2.9365,2.958,2.958,2.958,2.958,0.0,0.0,0.0,0.0,3.0703,3.0889,3.0889,3.0889,3.0889,3.0889,3.0889,3.0889,3.0889,3.0889,3.0889,3.0889,3.0889,3.0889,3.0889,3.0879,3.0557,3.0185,3.0185,2.9893,2.957,2.957,2.957,2.957,2.957,2.957,2.957,2.956,2.956,2.9434,2.8994,2.8916,2.8779,2.8369,2.8291,2.8291,2.8291,2.8291,2.8291,2.8291,2.8291,2.8291,2.8291,2.8291,2.8291,2.8291,2.6943,2.548,2.3933,2.2371,2.0923,1.9482,1.9366,1.9366,1.9366,1.9366,1.9366,1.9366,1.9366,1.9366,1.9366,1.9366,1.9366,1.9053,1.9873,2.0605,2.0869,2.0957,2.0674,1.9512,0.0,1.8516,1.7373,1.7373,1.7578,1.7578,1.7812,1.8008,1.8008,1.8008,0.0,0.0,0.0,0.0,0.0,0.0,0.0,0.0,0.0,0.0,0.0,0.0,0.0,0.0,2.8291,2.8291,2.8291,2.8291,2.8291,2.8291,2.8428,2.8633,2.8916,2.9062,2.9277,2.957,2.957,0.0,0.0,0.0,0.0,0.0,3.0703,3.0889,3.0889,3.0889,3.0889,3.0889,3.0889,3.0889,3.0889,3.0889,3.0889,3.0889,3.0889,3.0889,3.0889,3.0889,3.0791,3.0674,3.0674,3.0576,3.0469,3.0469,3.0469,3.0469,3.0469,3.0469,3.0381,3.0068,3.0,2.9785,2.9062,2.8916,2.8789,2.8369,2.8291,2.8291,2.8291,2.8291,2.8291,2.8291,2.8291,2.8291,2.8291,2.8291,2.7843,2.6825,2.538,2.3933,2.2363,2.0923,1.9924,1.9366,1.9366,1.9366,1.9366,1.9366,1.9366,1.9366,1.9366,1.9366,1.9366,1.9366,1.9366,0.0,1.8467,1.9277,1.96,1.9639,0.0,0.0,0.0,1.7695,1.6831,1.708,1.7383,1.7383,1.7725,1.8008,1.8008,1.8008,0.0,0.0,0.0,0.0,0.0,0.0,0.0,0.0,0.0,0.0,0.0,0.0,0.0,0.0,2.8291,2.8291,2.8291,2.8291,2.8291,2.8291,2.8291,2.8428,2.8682,2.8682,2.8828,2.9092,2.9092,0.0,0.0,0.0,0.0,0.0,3.0205,3.0488,3.0635,3.0635,3.0732,3.0889,3.0889,3.0889,3.0889,3.0889,3.0889,3.0889,3.0889,3.0889,3.0889,3.0889,3.0889,3.0889,3.0889,3.0889,3.0889,3.0889,3.0889,3.0889,3.0889,3.0889,3.081,3.0518,3.0459,3.0244,2.9541,2.9277,2.9033,2.8603,2.8398,2.8291,2.8291,2.8291,2.8291,2.8291,2.8291,2.8291,2.8291,2.7843,2.706,2.6155,2.471,2.3151,2.1699,2.0256,1.9366,1.9366,1.9366,1.9366,1.9366,1.9366,1.9366,1.9366,1.9366,1.9366,1.9366,1.9366,1.9366,0.0,1.7461,1.8027,1.8857,1.8486,1.791,0.0,0.0,0.0,0.0,0.0,1.7344,1.7373,1.7725,1.8008,1.8008,0.0,0.0,0.0,0.0,0.0,0.0,0.0,0.0,0.0,0.0,0.0,0.0,0.0,0.0,0.0,2.796,2.796,2.796,2.796,2.8067,2.8291,2.8291,2.8291,2.8291,2.8291,2.8291,2.8291,2.8291,0.0,0.0,0.0,0.0,0.0,2.9394,2.9795,3.0156,3.0032,3.0315,3.0723,3.0597,3.0616,3.0762,3.0762,3.0762,3.0889,3.0889,3.0889,3.0889,3.0889,3.0889,3.0889,3.0889,3.0889,3.0889,3.0889,3.0889,3.0889,3.0889,3.0889,3.0889,3.0889,3.0889,3.0752,3.0293,2.9853,2.9434,2.8994,2.8574,2.8291,2.8291,2.8291,2.8291,2.8184,2.8174,2.8067,2.795,2.6717,2.5927,2.5818,2.4488,2.3039,2.1699,2.0256,1.9366,1.9366,1.9366,1.9366,1.9366,1.9366,1.9366,1.9366,1.9366,1.9366,1.9366,1.9366,1.9366,1.4277,0.0,1.6152,1.6689,1.6924,1.6943,0.0,0.0,0.0,0.0,0.0,0.0,0.0,0.0,0.0,0.0,0.0,0.0,0.0,0.0,0.0,0.0,0.0,0.0,0.0,0.0,0.0,0.0,0.0,0.0,0.0,2.4829,2.4829,2.4829,2.4829,2.5945,2.8291,2.8291,2.8291,2.8291,2.8291,2.8291,2.8291,2.8291,0.0,0.0,0.0,0.0,2.8955,2.9394,2.9629,2.9595,2.8426,2.8219,2.8345,2.7243,2.7674,2.903,2.903,2.9776,3.0889,3.0889,3.0889,3.0889,3.0889,3.0889,3.0889,3.0889,3.0889,3.0889,3.0889,3.0889,3.0889,3.0889,3.0889,3.0889,3.0889,3.0889,3.0752,3.0293,2.9853,2.9434,2.8994,2.8574,2.8291,2.8291,2.8291,2.7843,2.6717,2.6599,2.6164,2.4939,2.4599,2.3933,2.2694,2.2371,2.1919,2.1586,2.0256,1.9366,1.9366,1.9366,1.9366,1.9366,1.9366,1.9366,1.9366,1.9366,1.9366,1.9366,1.9366,1.9366,1.3457,1.4297,1.5186,1.542,1.5801,1.6064,1.582,0.0,0.0,0.0,0.0,0.0,0.0,0.0,0.0,0.0,0.0,0.0,0.0,0.0,0.0,0.0,0.0,0.0,0.0,0.0,0.0,0.0,0.0,0.0,0.0,2.3822,2.3822,2.3822,2.3822,2.4599,2.6164,2.6273,2.6273,2.6273,2.6273,2.6273,2.6273,2.6273,2.6273,0.0,0.0,0.0,2.6609,2.6827,2.7027,2.72,2.639,2.6628,2.7445,2.5897,2.6385,2.7876,2.7876,2.9081,3.0605,3.082,3.0889,3.0889,3.0889,3.0889,3.0889,3.0889,3.0889,3.0889,3.0889,3.0889,3.0889,3.0889,3.0889,3.0889,3.0889,3.0889,3.081,3.0566,2.9412,2.8446,2.8219,2.7691,2.707,2.6391,2.6834,2.6717,2.5261,2.5041,2.471,2.3933,2.3151,2.2484,2.1699,2.1031,2.0587,2.0587,1.9815,1.9366,1.9366,1.9366,1.9366,1.9366,1.9366,1.9366,1.9366,1.9366,1.9366,1.9366,1.9366,1.9366,1.3311,1.4033,1.4697,1.4766,1.5098,1.543,1.5498,0.0,0.0,0.0,0.0,0.0,0.0,0.0,0.0,0.0,0.0,0.0,0.0,0.0,0.0,0.0,0.0,0.0,0.0,0.0,0.0,0.0,0.0,0.0,0.0,2.3159,2.3159,2.3159,2.3159,2.3159,2.3159,2.3599,2.3822,2.3822,2.3822,2.3822,2.3822,2.3822,2.3822,0.0,0.0,0.0,2.3822,2.3822,2.4003,2.4398,2.417,2.5079,2.6329,2.4821,2.5433,2.7007,2.7236,2.8396,2.9814,3.0277,3.0665,3.0801,3.0869,3.0889,3.0889,3.0889,3.0889,3.0889,3.0889,3.0889,3.0889,3.0889,3.0889,3.0889,3.0889,3.0889,3.0869,3.0801,2.9059,2.7682,2.7505,2.6782,2.5626,2.4386,2.5041,2.5151,2.371,2.3487,2.3375,2.3159,2.204,2.1252,2.1252,2.0148,1.9366,1.9366,1.9366,1.9366,1.9366,1.9366,1.9366,1.9366,1.9366,1.9366,1.9366,1.9366,1.9366,1.9366,1.9366,1.9366,1.2959,1.3594,1.4326,1.4687,1.5098,1.5508,1.5879,0.0,0.0,0.0,0.0,0.0,0.0,0.0,0.0,0.0,0.0,0.0,0.0,0.0,0.0,0.0,0.0,0.0,0.0,0.0,0.0,0.0,0.0,0.0,0.0,2.004,2.004,2.004,2.004,2.004,2.004,2.2605,2.3822,2.3822,2.3822,2.3822,2.3822,2.3822,2.3822,0.0,0.0,2.3822,2.3822,2.3822,2.3855,2.3792,2.2554,2.2314,2.2597,2.1128,2.2568,2.5484,2.6778,2.7509,2.7856,2.8278,2.9238,3.0371,3.0771,3.0889,3.0889,3.0889,3.0889,3.0889,3.0889,3.0889,3.0889,3.0889,3.0889,3.0889,3.0889,3.0889,3.0771,3.0381,2.9779,2.9099,2.8742,2.725,2.6045,2.5818,2.482,2.3599,2.2145,2.1919,2.1479,2.0263,1.9815,1.97,1.97,1.9475,1.9366,1.9366,1.9366,1.9366,1.9366,1.9366,1.9366,1.9366,1.9366,1.9366,1.9366,1.9366,1.9366,1.9366,1.9366,1.9366,1.3164,1.3662,1.4231,1.4749,1.5292,1.5811,1.6076,0.0,0.0,0.0,0.0,0.0,0.0,0.0,0.0,0.0,0.0,0.0,0.0,0.0,0.0,0.0,0.0,0.0,0.0,0.0,0.0,0.0,0.0,0.0,0.0,0.0,1.9366,1.9366,1.9366,1.9366,1.9366,2.0709,2.1373,2.1373,2.1373,2.1373,2.1373,2.1373,2.1373,2.1373,0.0,2.1373,2.1373,2.1373,2.1373,2.138,2.0702,2.101,2.1695,2.1025,2.1799,2.3205,2.4195,2.5065,2.5829,2.6325,2.7651,2.9057,2.9263,3.0092,3.0889,3.0889,3.0889,3.0889,3.0889,3.0889,3.0889,3.0889,3.0889,3.0889,3.0889,3.0693,3.0449,3.0234,2.9086,2.767,2.6677,2.5634,2.4267,2.271,2.2597,2.204,2.0587,2.0364,2.0141,1.9482,1.9366,1.9366,1.9366,1.9366,1.9366,1.9366,1.9366,1.9366,1.9366,1.9366,1.9366,1.9366,1.9366,1.9366,1.9366,1.9366,1.9366,1.9366,1.9366,1.9452,1.3389,1.3818,1.4273,1.4887,0.0,1.6412,1.6546,0.0,0.0,0.0,0.0,0.0,0.0,0.0,0.0,0.0,0.0,0.0,0.0,0.0,0.0,0.0,0.0,0.0,0.0,0.0,0.0,0.0,0.0,0.0,0.0,0.0,1.9366,1.9366,1.9366,1.9366,1.9366,1.9366,1.9366,1.9366,1.9366,1.9366,1.9366,1.9366,1.9366,1.9366,1.9366,1.9366,1.9366,1.9366,1.9366,1.9366,1.9366,2.0148,2.1145,2.1472,2.1365,2.1174,2.187,2.2866,2.3845,2.4309,2.5668,2.7222,2.7311,2.8462,2.9634,2.9634,2.971,2.9903,3.0645,3.0889,3.0889,3.0889,3.0889,3.0743,3.0276,3.0209,3.0023,2.9468,2.7883,2.6287,2.5051,2.4003,2.2484,2.0263,2.0587,2.0702,1.9597,1.9366,1.9366,1.9366,1.9366,1.9366,1.9366,1.9366,1.9366,1.9366,1.9366,1.9366,1.9366,1.9366,1.9366,1.9366,1.9366,1.9366,1.9366,1.9366,1.9366,1.9366,1.9366,1.9519,1.3389,1.3818,1.4301,1.5158,1.6334,0.0,1.785,1.7917,0.0,1.8494,0.0,0.0,0.0,0.0,0.0,0.0,0.0,0.0,0.0,0.0,0.0,0.0,0.0,0.0,0.0,0.0,0.0,0.0,0.0,0.0,0.0,0.0,0.0,1.9366,1.9366,1.9366,1.9366,1.9366,1.9366,1.9366,1.9366,1.9366,1.9366,1.9366,1.9366,1.9366,1.9366,1.9366,1.9366,1.9366,1.9366,1.9366,1.9366,1.9482,1.97,2.1145,2.0694,1.9707,2.1167,2.1729,2.1896,2.2221,2.3499,2.485,2.5185,2.5662,2.5965,2.5965,2.6209,2.7082,3.0147,3.0889,3.0889,3.0889,3.0889,3.0412,2.856,2.9278,2.9611,2.7343,2.6816,2.6541,2.6044,2.3607,2.1699,2.1472,2.0371,1.9482,1.9366,1.9366,1.9366,1.9366,1.9366,1.9366,1.9366,1.9366,1.9366,1.9366,1.9366,1.9366,1.9366,1.9366,1.9366,1.9366,1.9366,1.9366,1.9366,1.9366,1.9366,1.9366,1.9366,1.9519,1.314,1.3864,1.4613,1.4786,1.5855,0.0,0.0,1.7424,1.7569,1.7607,1.6916,0.0,0.0,0.0,0.0,0.0,0.0,0.0,0.0,0.0,0.0,0.0,0.0,0.0,0.0,0.0,0.0,0.0,0.0,0.0,0.0,0.0,0.0,1.9366,1.9366,1.9366,1.9366,1.9366,1.9366,1.9366,1.9366,1.9366,1.9366,1.9366,1.9366,1.9366,1.9366,1.9366,1.9366,1.9366,1.9366,1.9366,1.9366,1.9366,1.9482,2.004,1.9924,1.9482,2.0033,2.0256,2.0277,2.0389,2.1691,2.3121,2.3247,2.423,2.5268,2.55,2.5666,2.6064,2.751,2.782,2.782,2.782,2.8482,2.8507,2.6911,2.7328,2.7471,2.5683,2.5095,2.4547,2.3503,2.2363,2.1252,2.0371,1.9815,1.9366,1.9366,1.9366,1.9366,1.9366,1.9366,1.9366,1.9366,1.9366,1.9366,1.9366,1.9366,1.9366,1.9366,1.9366,1.9366,1.9366,1.9366,1.9366,1.9366,1.9366,1.9366,1.9366,1.9366,1.9619,1.2924,1.37,1.4505,0.0,0.0,0.0,1.6727,1.6804,1.6852,1.7004,0.0,0.0,0.0,0.0,0.0,0.0,0.0,0.0,0.0,0.0,0.0,0.0,0.0,0.0,0.0,0.0,0.0,0.0,0.0,0.0,0.0,0.0,0.0,0.0,1.9366,1.9366,1.9366,1.9366,1.9366,1.9366,1.9366,1.9366,1.9366,1.9366,1.9366,1.9366,1.9366,1.9366,1.9366,1.9366,1.9366,1.9366,1.9366,1.9366,1.9366,1.9366,1.9366,1.9366,1.9366,1.9366,1.9366,1.9366,2.0287,2.1351,2.1351,2.2263,2.3505,2.3747,2.3777,2.3909,2.4143,2.5084,2.5951,2.5836,2.6466,2.658,2.4915,2.5298,2.5483,2.3878,2.3319,2.2814,2.1805,2.1252,2.0587,1.9591,1.9366,1.9366,1.9366,1.9366,1.9366,1.9366,1.9366,1.9366,1.9366,1.9366,1.9366,1.9366,1.9366,1.9366,1.9366,1.9366,1.9366,1.9366,1.9366,1.9366,1.9366,1.9366,1.9366,1.9366,1.9366,1.9679,1.277,1.3304,0.0,0.0,0.0,0.0,1.6608,1.6174,1.6148,1.7041,0.0,0.0,0.0,0.0,0.0,0.0,0.0,0.0,0.0,0.0,0.0,0.0,0.0,0.0,0.0,0.0,0.0,0.0,0.0,0.0,0.0,0.0,0.0,0.0,1.9366,1.9366,1.9366,1.9366,1.9366,1.9366,1.9366,1.9366,1.9366,1.9366,1.9366,1.9366,1.9366,1.9366,1.9366,1.9366,1.9366,1.9366,1.9366,1.9366,1.9366,1.9366,1.9366,1.9366,1.9366,1.9366,1.9366,1.9366,1.9366,1.9366,1.9366,1.9573,1.98,1.98,2.0007,2.0227,2.0234,2.3051,2.5877,2.5514,2.555,2.4997,2.2665,2.3443,2.3918,2.1987,2.1586,2.1586,2.1586,2.0371,1.9366,1.9366,1.9366,1.9366,1.9366,1.9366,1.9366,1.9366,1.9366,1.9366,1.9366,1.9366,1.9366,1.9366,1.9366,1.9366,1.9366,1.9366,1.9366,1.9366,1.9366,1.9366,1.9366,1.9366,1.9366,1.9366,1.9366,1.9679,1.223,0.0,0.0,1.446,0.0,0.0,0.0,1.6102,0.0,0.0,0.0,0.0,0.0,0.0,0.0,0.0,0.0,0.0,0.0,0.0,0.0,0.0,0.0,0.0,0.0,0.0,0.0,0.0,0.0,0.0,0.0,0.0,0.0,0.0,1.9366,1.9366,1.9366,1.9366,1.9366,1.9366,1.9366,1.9366,1.9366,1.9366,1.9366,1.9366,1.9366,1.9366,1.9366,1.9366,1.9366,1.9366,1.9366,1.9366,1.9366,1.9366,1.9366,1.9366,1.9366,1.9366,1.9366,1.9366,1.9366,1.9366,1.9366,1.9432,1.9539,1.974,1.986,1.9973,2.018,2.1071,2.189,2.1797,2.2416,2.2655,2.0864,2.156,2.1934,2.0392,2.0033,2.0033,2.0033,1.9707,1.9366,1.9366,1.9366,1.9366,1.9366,1.9366,1.9366,1.9366,1.9366,1.9366,1.9366,1.9366,1.9366,1.9366,1.9366,1.9366,1.9366,1.9366,1.9366,1.9366,1.9366,1.9366,1.9366,1.9366,1.9366,1.9366,1.9366,1.9679,1.215,0.0,0.0,1.4314,1.479,1.5304,0.0,0.0,0.0,0.0,0.0,0.0,0.0,0.0,0.0,0.0,0.0,0.0,0.0,0.0,0.0,0.0,0.0,0.0,0.0,0.0,0.0,0.0,0.0,0.0,0.0,0.0,0.0,0.0,1.9366,1.9366,1.9366,1.9366,1.9366,1.9366,1.9366,1.9366,1.9366,1.9366,1.9366,1.9366,1.9366,1.9366,1.9366,1.9366,1.9366,1.9366,1.9366,1.9366,1.9366,1.9366,1.9366,1.9366,1.9366,1.9366,1.9366,1.9366,1.9366,1.9366,1.9366,1.9366,1.9406,1.9579,1.9626,1.9666,1.9846,1.9887,1.992,2.0034,2.0614,2.0904,1.9881,2.0157,2.0479,1.9591,1.9366,1.9366,1.9366,1.9366,1.9366,1.9366,1.9366,1.9366,1.9366,1.9366,1.9366,1.9366,1.9366,1.9366,1.9366,1.9366,1.9366,1.9366,1.9366,1.9366,1.9366,1.9366,1.9366,1.9366,1.9366,1.9366,1.9366,1.9366,1.9366,1.9366,1.9366,1.9619,1.232,0.0,0.0,1.4516,1.5237,0.0,0.0,0.0,0.0,0.0,0.0,0.0,0.0,0.0,0.0,0.0,0.0,0.0,0.0,0.0,0.0,0.0,0.0,0.0,0.0,0.0,0.0,0.0,0.0,0.0,0.0,0.0,0.0,1.9366,1.9366,1.9366,1.9366,1.9366,1.9366,0.0,1.9366,1.9366,1.9366,1.9366,1.9366,1.9366,1.9366,1.9366,1.9366,1.9366,1.9366,1.9366,1.9366,1.9366,1.9366,1.9366,1.9366,1.9366,1.9366,1.9366,1.9366,1.9366,1.9366,1.9366,1.9366,1.9366,1.9366,1.9366,1.9366,1.9366,1.9366,1.9366,1.9432,1.97,1.976,1.9686,1.9426,1.9366,1.9366,1.9366,1.9366,1.9366,1.9366,1.9366,1.9366,1.9366,1.9366,1.9366,1.9366,1.9366,1.9366,1.9366,1.9366,1.9366,1.9366,1.9366,1.9366,1.9366,1.9366,1.9366,1.9366,1.9366,1.9366,1.9366,1.9366,1.9366,1.9366,1.9366,1.9366,1.9366,1.9366,1.9519,0.0,1.3229,0.0,0.0,1.5698,0.0,0.0,0.0,0.0,0.0,0.0,0.0,0.0,0.0,0.0,0.0,0.0,0.0,0.0,0.0,0.0,0.0,0.0,0.0,0.0,0.0,0.0,0.0,0.0,0.0,0.0,0.0,0.0,1.9366,1.9366,1.9366,1.9366,1.9366,1.9366,0.0,1.9366,1.9366,1.9366,1.9366,1.9366,1.9366,1.9366,1.9366,1.9366,1.9366,1.9366,1.9366,1.9366,1.9366,1.9366,1.9366,1.9366,1.9366,1.9366,1.9366,1.9366,1.9366,1.9366,1.9366,1.9366,1.9366,1.9366,1.9366,1.9366,1.9366,1.9366,1.9366,1.9379,1.9446,1.9459,1.9446,1.9379,1.9366,1.9366,1.9366,1.9366,1.9366,1.9366,1.9366,1.9366,1.9366,1.9366,1.9366,1.9366,1.9366,1.9366,1.9366,1.9366,1.9366,1.9366,1.9366,1.9366,1.9366,1.9366,1.9366,1.9366,1.9366,1.9366,1.9366,1.9366,1.9366,1.9366,1.9366,1.9366,1.9366,1.9366,1.9519,0.0,0.0,0.0,1.5351,0.0,0.0,0.0,0.0,0.0,0.0,0.0,0.0,0.0,0.0,0.0,0.0,0.0,0.0,0.0,0.0,0.0,0.0,0.0,0.0,0.0,0.0,0.0,0.0,0.0,0.0,0.0,1.9366,1.9366,1.9366,1.9366,1.9366,1.9366,1.9366,1.9366,1.9366,1.9366,1.9366,1.9366,1.9366,1.9366,1.9366,1.9366,1.9366,1.9366,1.9366,1.9366,1.9366,1.9366,1.9366,1.9366,1.9366,1.9366,1.9366,1.9366,1.9366,1.9366,1.9366,1.9366,1.9366,1.9366,1.9366,1.9366,1.9366,1.9366,1.9366,1.9366,1.9366,1.9366,1.9366,1.9366,1.9366,1.9366,1.9366,1.9366,1.9366,1.9366,1.9366,1.9366,1.9366,1.9366,1.9366,1.9366,1.9366,1.9366,1.9366,1.9366,1.9366,1.9366,1.9366,1.9366,1.9366,1.9366,1.9366,1.9366,1.9366,1.9366,1.9366,1.9366,1.9366,1.9366,1.9366,1.9366,1.9366,1.9366,1.9366,1.9366,1.9446,0.0,0.0,1.4496,1.5565,0.0,0.0,0.0,0.0,0.0,0.0,0.0,0.0,0.0,0.0,0.0,0.0,0.0,0.0,0.0,0.0,0.0,0.0,0.0,0.0,0.0,0.0,0.0,0.0,0.0,0.0,1.9366,1.9366,1.9366,1.9366,1.9366,1.9366,1.9366,1.9366,1.9366,1.9366,1.9366,1.9366,1.9366,1.9366,1.9366,1.9366,1.9366,1.9366,1.9366,1.9366,1.9366,1.9366,1.9366,1.9366,1.9366,1.9366,1.9366,1.9366,1.9366,1.9366,1.9366,1.9366,1.9366,1.9366,1.9366,1.9366,1.9366,1.9366,1.9366,1.9366,1.9366,1.9366,1.9366,1.9366,1.9366,1.9366,1.9366,1.9366,1.9366,1.9366,1.9366,1.9366,1.9366,1.9366,1.9366,1.9366,1.9366,1.9366,1.9366,1.9366,1.9366,1.9366,1.9366,1.9366,1.9366,1.9366,1.9366,1.9366,1.9366,1.9366,1.9366,1.9366,1.9366,1.9366,1.9366,1.9366,1.9366,1.9366,1.9366,1.9366,1.9366,1.9366,0.0,0.0,1.5003,0.0,0.0,0.0,0.0,0.0,0.0,0.0,0.0,0.0,0.0,0.0,0.0,0.0,0.0,0.0,0.0,0.0,0.0,0.0,0.0,0.0,0.0,0.0,0.0,0.0,0.0,0.0,1.9366,1.9366,1.9366,1.9366,1.9366,1.9366,1.9366,1.9366,1.9366,1.9366,1.9366,1.9366,1.9366,1.9366,1.9366,1.9366,1.9366,1.9366,1.9366,1.9366,1.9366,1.9366,1.9366,1.9366,1.9366,1.9366,1.9366,1.9366,1.9366,1.9366,1.9366,1.9366,1.9366,1.9366,1.9366,1.9366,1.9366,1.9366,1.9366,1.9366,1.9366,1.9366,1.9366,1.9366,1.9366,1.9366,1.9366,1.9366,1.9366,1.9366,1.9366,1.9366,1.9366,1.9366,1.9366,1.9366,1.9366,1.9366,1.9366,1.9366,1.9366,1.9366,1.9366,1.9366,1.9366,1.9366,1.9366,1.9366,1.9366,1.9366,1.9366,1.9366,1.9366,1.9366,1.9366,1.9366,1.9366,1.9366,1.9366,1.9366,1.9366,1.9366,1.1824,1.348,1.4816,0.0,0.0,0.0,0.0,0.0,0.0,0.0,0.0,0.0,0.0,0.0,0.0,0.0,0.0,0.0,0.0,0.0,0.0,0.0,0.0,0.0,0.0,0.0,0.0,0.0,0.0,1.9366,1.9366,1.9366,1.9366,1.9366,1.9366,1.9366,1.9366,1.9366,1.9366,1.9366,1.9366,1.9366,1.9366,1.9366,1.9366,1.9366,1.9366,1.9366,1.9366,1.9366,1.9366,1.9366,1.9366,1.9366,1.9366,1.9366,1.9366,1.9366,1.9366,1.9366,1.9366,1.9366,1.9366,1.9366,1.9366,1.9366,1.9366,1.9366,1.9366,1.9366,1.9366,1.9366,1.9366,1.9366,1.9366,1.9366,1.9366,1.9366,1.9366,1.9366,1.9366,1.9366,1.9366,1.9366,1.9366,1.9366,1.9366,1.9366,1.9366,1.9366,1.9366,1.9366,1.9366,1.9366,1.9366,1.9366,1.9366,1.9366,1.9366,1.9366,1.9366,1.9366,1.9366,1.9366,1.9366,1.9366,1.9366,1.9366,1.9366,1.9366,1.9366,1.9366,0.0,0.0,1.4215,0.0,0.0,0.0,0.0,0.0,0.0,0.0,0.0,0.0,0.0,0.0,0.0,0.0,0.0,0.0,0.0,0.0,0.0,0.0,0.0,0.0,0.0,0.0,0.0,0.0,0.0,1.9366,1.9366,1.9366,1.9366,1.9366,1.9366,1.9366,1.9366,1.9366,1.9366,1.9366,1.9366,1.9243,1.8765,1.8765,1.8532,1.8175,1.901,1.9366,1.9366,1.9366,1.9366,1.9366,1.9366,1.9366,1.9366,1.9366,1.9366,1.9366,1.9366,1.9366,1.9366,1.9366,1.9366,1.9366,1.9366,1.9366,1.9366,1.9366,1.9366,1.9366,1.9366,1.9366,1.9366,1.9366,1.9366,1.9366,1.9366,1.9366,1.9366,1.9366,1.9366,1.9366,1.9366,1.9366,1.9366,1.9366,1.9366,1.9366,1.9366,1.9366,1.9366,1.9366,1.9366,1.9366,1.9366,1.9366,1.9366,1.9366,1.9366,1.9366,1.9366,1.9366,1.9366,1.9366,1.9366,1.9366,1.9366,1.9366,1.9366,1.9366,1.9366,1.9366,0.0,1.2565,0.0,0.0,0.0,0.0,0.0,0.0,0.0,0.0,0.0,0.0,0.0,0.0,0.0,0.0,0.0,0.0,0.0,0.0,0.0,0.0,0.0,0.0,0.0,0.0,0.0,0.0,0.0,1.9366,1.9366,1.9366,1.9366,1.9366,1.9366,1.9366,1.9366,1.9366,1.9366,1.9366,1.9366,1.8642,1.7085,1.7085,1.6256,1.5079,1.8052,1.9366,1.9366,1.9366,1.9366,1.9366,1.9366,1.9366,1.9366,1.9366,1.9366,1.9366,1.9366,1.9366,1.9366,1.9366,1.9366,1.9366,1.9366,1.9366,1.9366,1.9366,1.9366,1.9366,1.9366,1.9366,1.9366,1.9366,1.9366,1.9366,1.9366,1.9366,1.9366,1.9366,1.9366,1.9366,1.9366,1.9366,1.9366,1.9366,1.9366,1.9366,1.9366,1.9366,1.9366,1.9366,1.9366,1.9366,1.9366,1.9366,1.9366,1.9366,1.9366,1.9366,1.9366,1.9366,1.9366,1.9366,1.9366,1.9366,1.9366,1.9366,1.9366,1.9366,1.9366,1.9366,0.0,0.0,0.0,0.0,0.0,0.0,0.0,0.0,0.0,0.0,0.0,0.0,0.0,0.0,0.0,0.0,0.0,0.0,0.0,0.0,0.0,0.0,0.0,0.0,0.0,0.0,0.0,0.0,0.0,0.0,1.9366,1.9366,1.9366,1.9366,1.9366,1.9366,1.9366,1.9366,1.9366,1.9366,1.8402,1.7566,1.6968,1.5902,1.5192,1.4604,1.579,1.6267,1.6267,1.6267,1.6267,1.6385,1.7449,1.7806,1.7923,1.901,1.9366,1.9366,1.9366,1.9366,1.9366,1.9366,1.9366,1.9366,1.9366,1.9366,1.9366,1.9366,1.9366,1.9366,1.9366,1.9366,1.9366,1.9366,1.9366,1.9366,1.9366,1.9366,1.9366,1.9366,1.9366,1.9366,1.9366,1.9366,1.9366,1.9366,1.9366,1.9366,1.9366,1.9366,1.9366,1.9366,1.9366,1.9366,1.9366,1.9366,1.9366,1.9366,1.9366,1.9366,1.9366,1.9366,1.9366,1.9366,1.9366,1.9366,1.9366,1.9366,1.9366,1.9366,1.9366,1.9366,1.1035,0.0,0.0,0.0,0.0,0.0,0.0,0.0,0.0,0.0,0.0,0.0,0.0,0.0,0.0,0.0,0.0,0.0,0.0,0.0,0.0,0.0,0.0,0.0,0.0,0.0,0.0,0.0,0.0,0.0,1.9366,1.9366,1.9366,1.9366,1.9366,1.9366,1.9366,1.9366,1.9127,1.8525,1.756,1.6486,1.5306,1.4242,1.3531,1.2928,1.2928,1.3646,1.4604,1.4604,1.4604,1.4723,1.5784,1.6138,1.6374,1.7331,1.7812,1.7812,1.8409,1.8642,1.8648,1.9243,1.9366,1.9366,1.9366,1.9366,1.9366,1.9366,1.9366,1.9366,1.9366,1.9366,1.9366,1.9366,1.9366,1.9366,1.9366,1.9366,1.9366,1.9366,1.9366,1.9366,1.9366,1.9366,1.9366,1.9366,1.9366,1.9366,1.9366,1.9366,1.9366,1.9366,1.9366,1.9366,1.9366,1.9366,1.9366,1.9366,1.9366,1.9366,1.9366,1.9366,1.9366,1.9366,1.9366,1.9366,1.9366,1.9366,1.9366,1.9366,1.9366,1.9366,0.0,0.0,0.0,0.0,0.0,0.0,0.0,0.0,0.0,0.0,0.0,0.0,0.0,0.0,0.0,0.0,0.0,0.0,0.0,0.0,0.0,0.0,0.0,0.0,0.0,0.0,0.0,0.0,0.0,1.9345,1.9352,1.9366,1.9366,1.9366,1.9366,1.9366,1.9366,1.9366,1.8525,1.6968,1.685,1.5182,1.2213,1.2093,1.1257,0.9822,0.9822,1.1619,1.4485,1.4485,1.4485,1.448,1.4485,1.4485,1.4485,1.4604,1.4604,1.4837,1.6374,1.6968,1.7208,1.8765,1.9249,1.9249,1.9366,1.9366,1.9366,1.9366,1.9366,1.9366,1.9366,1.9366,1.9366,1.9366,1.9366,1.9366,1.9366,1.9366,1.9366,1.9366,1.9366,1.9366,1.9366,1.9366,1.9366,1.9366,1.9366,1.9366,1.9366,1.9366,1.9366,1.9366,1.9366,1.9366,1.9366,1.9366,1.9366,1.9366,1.9366,1.9366,1.9366,1.9366,1.9366,1.9366,1.9366,1.9366,1.9366,1.9366,1.9366,1.9366,1.9366,1.9366,1.1009,0.0,0.0,0.0,0.0,0.0,0.0,0.0,0.0,0.0,0.0,0.0,0.0,0.0,0.0,0.0,0.0,0.0,0.0,0.0,0.0,0.0,0.0,0.0,0.0,0.0,0.0,0.0,1.8691,1.8824,1.9038,1.9252,1.9366,1.9366,1.9366,1.9366,1.9366,1.8286,1.7443,1.6968,1.4589,1.3048,1.2217,1.102,1.0179,0.9822,0.9822,1.0301,1.114,1.114,1.114,1.1257,1.2453,1.2808,1.3053,1.4128,1.4604,1.4604,1.5074,1.5311,1.5311,1.579,1.5908,1.6149,1.7331,1.7683,1.7923,1.912,1.9366,1.9366,1.9366,1.9366,1.9366,1.9366,1.9366,1.9366,1.9366,1.9366,1.9366,1.9366,1.9366,1.9366,1.9366,1.9366,1.9366,1.9366,1.9366,1.9366,1.9366,1.9366,1.9366,1.9366,1.9366,1.9366,1.9366,1.9366,1.9366,1.9366,1.9366,1.9366,1.9366,1.9366,1.9366,1.9366,1.9366,1.9366,1.9366,1.9366,1.9366,1.9366,1.9366,1.9366,0.0,0.0,0.0,0.0,0.0,0.0,1.2746,1.3026,0.0,0.0,0.0,0.0,0.0,0.0,0.0,0.0,0.0,0.0,0.0,0.0,0.0,0.0,0.0,0.0,0.0,1.813,0.0,1.8303,1.8424,1.8564,1.8731,1.8905,1.9005,1.9005,1.9005,1.8764,1.8052,1.7225,1.6107,1.4923,1.3036,1.1782,1.114,1.0179,0.9822,0.9822,0.9822,0.9822,0.9822,0.9822,0.9822,0.994,1.0778,1.1257,1.1257,1.2213,1.2573,1.2693,1.3412,1.3646,1.3765,1.4361,1.4604,1.4723,1.5666,1.602,1.6374,1.7929,1.8887,1.9366,1.9366,1.9366,1.9366,1.9366,1.9366,1.9366,1.9366,1.9366,1.9366,1.9366,1.9366,1.9366,1.9366,1.9366,1.9366,1.9366,1.9366,1.9366,1.9366,1.9366,1.9366,1.9366,1.9366,1.9366,1.9366,1.9366,1.9366,1.9366,1.9366,1.9366,1.9366,1.9366,1.9366,1.9366,1.9366,1.9366,1.9366,1.9366,1.9366,1.9366,1.9366,1.9366,0.0,0.0,0.0,0.0,0.0,0.0,1.2392,1.2772,1.3293,0.0,0.0,0.0,0.0,0.0,0.0,0.0,0.0,0.0,0.0,0.0,0.0,0.0,0.0,0.0,1.7582,1.7836,1.7996,1.7996,1.827,1.8444,1.8444,1.847,1.849,1.849,1.8373,1.768,1.6298,1.5962,1.4474,1.2021,1.1787,1.1063,0.9798,0.9798,0.9805,0.9822,0.9822,0.9822,0.9822,0.9822,0.9822,0.9822,0.9822,0.9822,0.9822,0.9822,0.9822,0.994,1.1499,1.1976,1.2217,1.3646,1.4123,1.4123,1.4247,1.4366,1.4718,1.6256,1.7806,1.8887,1.8887,1.901,1.9127,1.9127,1.9243,1.9366,1.9366,1.9366,1.9366,1.9366,1.9366,1.9366,1.9366,1.9366,1.9366,1.9366,1.9366,1.9366,1.9366,1.9366,1.9366,1.9366,1.9366,1.9366,1.9366,1.9366,1.9366,1.9127,1.9249,1.9243,1.8887,1.9004,1.901,1.8887,1.9004,1.9243,1.9366,1.9366,1.9366,1.9366,1.9366,1.9366,0.0,0.0,0.0,0.0,0.0,0.0,1.2919,1.2746,1.2786,0.0,0.0,0.0,0.0,0.0,0.0,0.0,0.0,0.0,0.0,0.0,0.0,0.0,0.0,0.0,1.7582,1.7635,1.7669,1.7669,1.7956,1.813,1.813,1.8364,1.849,1.849,1.7334,1.664,1.6298,1.3932,1.2364,1.1833,1.0574,0.9852,0.9649,0.9649,0.9713,0.9822,0.9822,0.9822,0.9822,0.9822,0.9822,0.9822,0.9822,0.9822,0.9822,0.9822,0.9822,0.9822,1.0179,1.0301,1.0301,1.066,1.0781,1.102,1.2333,1.2693,1.3053,1.4599,1.5316,1.5553,1.5553,1.6503,1.7443,1.7443,1.8409,1.9366,1.9366,1.9366,1.9366,1.9366,1.9366,1.9366,1.9366,1.9366,1.9366,1.9366,1.9366,1.9366,1.9366,1.9366,1.9366,1.9366,1.9366,1.9366,1.9366,1.9366,1.8887,1.7566,1.8648,1.8292,1.5671,1.6733,1.6856,1.5553,1.6856,1.8163,1.9366,1.9366,1.9366,1.9366,1.9366,1.9366,0.0,0.0,0.0,1.2265,0.0,0.0,0.0,1.2518,1.2559,1.346,0.0,0.0,0.0,0.0,0.0,0.0,0.0,0.0,0.0,0.0,0.0,0.0,0.0,0.0,1.7582,1.7582,1.7582,1.7582,1.7722,1.7816,1.7816,1.7956,1.7705,1.6926,1.6254,1.5142,1.3704,1.2158,1.1101,1.0512,0.972,0.9347,0.95,0.9574,0.9649,0.972,0.9791,0.9822,0.9822,0.9822,0.9822,0.9822,0.9822,0.9822,0.9822,0.9822,0.9822,0.9822,0.9822,0.9822,0.9822,0.9822,0.9822,0.994,1.0781,1.1619,1.2333,1.3172,1.4004,1.4604,1.4604,1.5198,1.602,1.685,1.7566,1.8402,1.9243,1.9366,1.9366,1.9366,1.9366,1.9366,1.9366,1.9366,1.9366,1.9366,1.9366,1.9366,1.9366,1.9366,1.9366,1.9366,1.9366,1.9366,1.9366,1.8642,1.8163,1.8163,1.7455,1.6621,1.5784,1.5784,1.5429,1.4604,1.5429,1.6144,1.6979,1.7806,1.8648,1.9366,1.9366,1.9366,0.0,0.0,0.0,0.0,0.0,1.2305,0.0,0.0,0.0,1.2933,0.0,0.0,0.0,0.0,0.0,0.0,0.0,0.0,0.0,0.0,0.0,0.0,0.0,0.0,0.0,1.7482,1.7582,1.7582,1.7582,1.7582,1.7582,1.7582,1.6929,1.5417,1.5097,1.3691,1.1105,1.0781,1.0197,0.9113,0.9113,0.9191,0.934,0.9466,0.9554,0.9615,0.973,0.9795,0.9822,0.9822,0.9822,0.9822,0.9822,0.9822,0.9822,0.9822,0.9822,0.9822,0.9822,0.9822,0.9822,0.9822,0.9822,0.9822,0.9822,1.066,1.1736,1.1736,1.2693,1.3646,1.3646,1.3885,1.448,1.5779,1.6256,1.6856,1.8169,1.8765,1.8887,1.8887,1.9243,1.9366,1.9366,1.9366,1.9366,1.9366,1.9366,1.9366,1.9366,1.9366,1.9366,1.9366,1.9366,1.9366,1.9366,1.7923,1.7443,1.8409,1.6031,1.4955,1.5542,1.4356,1.3765,1.4128,1.4128,1.4247,1.4604,1.5902,1.7214,1.8532,1.9127,1.9243,0.0,0.0,0.0,0.0,1.2305,0.0,0.0,0.0,1.2318,1.2392,0.0,0.0,0.0,0.0,0.0,0.0,0.0,0.0,0.0,0.0,0.0,0.0,0.0,0.0,0.0,1.7128,1.7582,1.7582,1.7582,1.7582,1.7582,1.7582,1.6929,1.5417,1.4234,1.2729,1.1109,0.9805,0.9054,0.8964,0.8964,0.9039,0.9178,0.9198,0.9354,0.9612,0.9629,0.9703,0.9822,0.9822,0.9822,0.9822,0.9822,0.9822,0.9822,0.9822,0.9822,0.9822,0.9822,0.9822,0.9822,0.9822,0.9822,0.9822,0.9822,0.994,1.0061,1.0061,1.0179,1.0301,1.0301,1.1378,1.2573,1.2693,1.3885,1.496,1.5079,1.6262,1.7325,1.7325,1.8402,1.9366,1.9366,1.9366,1.9366,1.9366,1.9366,1.9366,1.9366,1.9366,1.9366,1.9366,1.9366,1.9366,1.9366,1.7923,1.6497,1.5198,1.4842,1.3407,1.0778,1.0418,1.102,1.2453,1.2453,1.3172,1.4604,1.4723,1.496,1.5198,1.8052,1.8642,0.0,0.0,0.0,0.0,0.0,0.0,1.2385,0.0,1.2305,0.0,0.0,0.0,0.0,0.0,0.0,0.0,1.2438,0.0,0.0,0.0,0.0,0.0,0.0,0.0,0.0,0.0,0.0,0.0,1.6974,1.7074,1.7074,1.7395,1.6929,1.5417,1.4019,1.262,1.1105,0.9588,0.894,0.894,0.894,0.8971,0.9032,0.9117,0.9222,0.9354,0.9534,0.9642,0.9703,0.9788,0.9822,0.9822,0.9822,0.9822,0.9822,0.9822,0.9822,0.9822,0.9822,0.9822,0.9822,0.9822,0.9822,0.9822,0.9822,0.9822,0.9822,0.9822,0.9822,0.9822,0.9822,1.0301,1.102,1.1976,1.2693,1.3407,1.4366,1.5902,1.6968,1.6968,1.8286,1.9366,1.9366,1.9366,1.9366,1.9366,1.9366,1.9366,1.9366,1.9366,1.9366,1.9366,1.9366,1.9366,1.9366,1.7097,1.5666,1.602,1.4242,1.2213,0.994,0.9822,1.0058,1.0778,1.0778,1.114,1.1856,1.2693,1.2693,1.1856,1.602,1.7683,1.2667,0.0,0.0,0.0,0.0,0.0,0.0,0.0,0.0,0.0,0.0,0.0,0.0,0.0,0.0,0.0,0.0,1.2271,0.0,0.0,0.0,0.0,0.0,0.0,0.0,0.0,0.0,1.5885,1.6186,1.642,1.658,1.7068,1.6768,1.5411,1.4019,1.262,1.1105,0.9588,0.894,0.894,0.894,0.894,0.8944,0.9045,0.9117,0.9164,0.9388,0.9534,0.9618,0.972,0.9785,0.9822,0.9822,0.9822,0.9822,0.9822,0.9822,0.9822,0.9822,0.9822,0.9822,0.9822,0.9822,0.9822,0.9822,0.9822,0.9822,0.9822,0.9822,0.9822,0.9822,0.9822,1.0061,1.1257,1.1495,1.1856,1.3048,1.4594,1.566,1.566,1.6973,1.8052,1.8052,1.8771,1.9366,1.9366,1.9366,1.9243,1.8765,1.8765,1.8525,1.8169,1.8525,1.8765,1.8765,1.6621,1.5429,1.566,1.3044,1.102,0.9822,0.9822,0.9822,0.9822,0.9822,0.9822,0.9822,1.102,1.0899,0.994,1.4351,1.6138,0.0,0.0,0.0,1.3574,0.0,0.0,0.0,0.0,1.2305,0.0,0.0,0.0,0.0,0.0,0.0,0.0,0.0,0.0,0.0,0.0,0.0,0.0,0.0,0.0,0.0,0.0,0.0,1.5003,1.5277,1.5691,1.6259,1.6573,1.6369,1.5399,1.4019,1.262,1.1105,0.9588,0.894,0.894,0.894,0.894,0.894,0.8944,0.9022,0.9154,0.9164,0.9337,0.9608,0.9615,0.9696,0.9822,0.9822,0.9822,0.9822,0.9822,0.9822,0.9822,0.9822,0.9822,0.9822,0.9822,0.9822,0.9822,0.9822,0.9822,0.9822,0.9822,0.9822,0.9822,0.9822,0.9822,0.9822,0.9819,0.9819,0.994,0.994,1.1257,1.2333,1.2333,1.3646,1.4723,1.4723,1.7337,1.9366,1.9366,1.9366,1.8881,1.7325,1.7085,1.6492,1.496,1.6138,1.7085,1.7085,1.6968,1.566,1.2573,1.0778,0.9822,0.9822,0.9822,0.9822,0.9822,0.9822,0.9822,0.9822,0.9822,0.9822,0.9819,1.3168,1.3885,0.0,0.0,1.1481,1.2986,0.0,0.0,0.0,0.0,0.0,0.0,0.0,0.0,0.0,0.0,0.0,0.0,0.0,0.0,0.0,0.0,0.0,0.0,0.0,0.0,0.0,0.0,0.0,1.4062,1.4362,1.487,1.5651,1.6152,1.6566,1.6797,1.5417,1.4019,1.262,1.1105,0.9915,0.894,0.894,0.894,0.894,0.894,0.8964,0.9018,0.9113,0.9269,0.9466,0.9568,0.9693,0.9822,0.9822,0.9822,0.9822,0.9822,0.9822,0.9822,0.9822,0.9822,0.9822,0.9822,0.9822,0.9822,0.9822,0.9822,0.9822,0.9822,0.9822,0.9822,0.9822,0.9822,0.9822,0.9822,0.9822,0.9822,0.9822,1.1016,1.2213,1.2213,1.3531,1.4604,1.4604,1.5553,1.6267,1.6267,1.6267,1.6026,1.5429,1.5429,1.5192,1.4604,1.5074,1.5429,1.5429,1.4475,1.2924,1.0778,1.0058,0.9822,0.9822,0.9822,0.9822,0.9822,0.9822,0.9822,0.9822,0.9822,0.9822,0.9819,1.0899,1.1736,1.0719,1.0728,0.0,1.2339,1.2018,0.0,1.2841,0.0,0.0,0.0,0.0,0.0,0.0,0.0,0.0,0.0,0.0,0.0,0.0,1.2305,0.0,0.0,0.0,0.0,0.0,0.0,1.2752,1.3133,1.344,1.4041,0.0,0.0,1.6413,1.7402,1.5589,1.4234,1.3264,1.1324,0.9805,0.894,0.894,0.894,0.894,0.894,0.894,0.8944,0.9035,0.9161,0.9313,0.9466,0.9615,0.9751,0.9802,0.9822,0.9822,0.9822,0.9822,0.9822,0.9822,0.9822,0.9822,0.9822,0.9822,0.9822,0.9822,0.9822,0.9822,0.9822,0.9822,0.9822,0.9822,0.9822,0.9822,0.9822,0.9822,0.9822,0.9822,1.066,1.1378,1.1378,1.2213,1.2933,1.2933,1.2933,1.3287,1.4485,1.4604,1.4366,1.3765,1.3765,1.3531,1.2933,1.3412,1.4009,1.4604,1.3172,1.1736,1.0781,1.0058,0.9822,0.9822,0.9822,0.9822,0.9822,0.9822,0.9822,0.9822,0.9822,0.9822,0.9822,0.9822,1.0301]}]]